GEFSSGP_500_meanwind_048.txt.gz
Wind_Speed
25 26 27 29 29 29 29 28 27 25 23 21 20 19 19 20 21 21 19 19 18 18 19 19 20 20 20 19 18 17 16 15 14 14 13 12 12 12 13 13 14 14 15 15 16 17 18 19 19
25 25 27 28 29 28 28 29 29 28 25 23 21 20 20 21 20 20 21 20 20 19 19 19 20 20 20 20 19 18 17 16 16 15 14 14 13 13 14 14 14 15 16 16 17 18 19 20 20
26 27 28 28 27 24 26 29 31 30 27 25 23 22 21 21 20 21 21 21 21 20 20 20 20 20 20 20 19 18 18 17 17 16 16 15 15 15 15 15 15 16 16 17 17 18 19 20 21
29 29 30 29 23 22 25 28 31 31 30 28 26 24 23 22 22 22 22 21 21 21 21 21 21 21 21 21 20 19 19 19 18 17 17 16 16 16 16 16 16 16 16 17 17 18 19 20 20
32 32 32 29 22 22 25 28 29 31 31 30 28 27 26 24 23 22 22 21 22 22 23 23 23 23 23 22 21 20 20 20 19 19 18 18 17 17 16 16 17 17 17 17 17 18 19 19 20
34 33 33 28 23 24 28 29 29 30 31 31 31 30 29 27 25 24 22 22 22 22 23 24 25 25 24 23 22 21 21 21 21 20 19 19 18 18 17 17 17 17 17 18 18 18 19 20 20
35 34 33 28 25 26 29 32 31 31 32 32 32 31 30 29 28 26 24 23 22 22 23 24 25 25 24 23 23 22 22 22 22 21 21 20 20 19 18 18 17 17 17 17 18 18 19 19 20
34 33 32 27 25 27 30 34 34 33 33 33 33 32 32 31 30 29 27 25 24 24 24 24 25 25 25 24 23 23 22 22 22 22 22 22 21 20 19 19 18 18 18 18 18 18 19 20 20
33 33 29 25 25 28 32 35 36 34 34 34 34 34 33 33 32 31 30 28 27 26 26 26 26 26 26 25 24 23 22 22 22 23 23 23 22 21 20 20 19 19 18 18 19 19 20 21 21
33 31 26 25 27 30 33 36 37 36 34 34 35 34 34 34 33 33 32 31 30 29 28 27 27 28 27 26 25 23 22 22 22 23 24 24 24 23 22 21 20 20 20 20 20 21 21 22 23
32 30 27 27 29 31 33 36 37 37 35 34 35 34 34 34 34 34 33 33 33 32 30 29 29 29 29 28 27 25 23 23 22 23 25 25 25 25 24 22 22 21 21 21 22 23 24 24 25
31 29 28 28 29 31 33 35 38 38 35 35 35 34 33 33 33 34 35 35 35 33 32 31 31 31 31 31 29 27 25 24 23 24 25 26 26 26 25 25 24 23 23 23 24 25 26 26 27
30 28 28 28 28 30 32 34 38 39 37 37 36 35 34 33 33 34 36 36 36 35 34 34 33 33 34 33 32 30 28 26 25 25 26 26 27 27 27 27 26 26 25 25 26 27 28 28 28
29 27 27 27 27 28 30 33 36 35 37 39 38 37 35 34 34 35 36 36 36 36 36 35 35 35 35 34 33 32 30 28 27 27 28 28 28 28 28 28 28 28 28 28 28 29 29 30 30
29 27 26 26 26 27 29 31 32 32 38 39 39 38 37 36 36 36 36 36 37 38 37 37 36 36 35 35 34 34 32 31 30 30 29 30 30 29 29 29 30 30 30 30 30 31 31 32 32
29 28 26 26 26 27 29 28 29 32 36 38 40 40 40 39 38 38 38 38 38 39 39 38 38 37 36 36 35 34 34 33 32 32 31 31 32 31 30 31 31 31 31 31 32 33 33 34 34
29 28 27 27 27 27 28 28 29 32 35 37 39 41 41 41 40 39 39 39 39 40 41 40 39 38 38 37 36 35 34 34 34 34 33 33 33 33 32 32 32 32 32 32 33 34 34 35 36
30 29 29 28 28 29 30 30 30 33 35 37 39 41 42 41 40 40 41 41 41 42 42 42 41 40 39 38 37 36 35 35 35 35 35 34 34 34 34 33 33 33 33 34 35 35 36 37 39
30 30 30 30 31 33 34 34 33 34 36 38 40 42 43 43 42 42 43 43 43 43 43 43 43 42 41 39 38 37 36 36 36 36 35 35 35 34 34 34 34 34 35 35 36 37 38 39 41
30 31 32 33 35 37 37 38 37 38 38 40 42 43 45 45 45 45 44 44 44 44 44 44 44 43 42 41 39 38 37 36 36 36 36 35 35 35 35 35 35 36 36 37 37 38 39 41 42
30 32 34 36 38 40 42 42 41 41 41 42 44 46 47 47 48 48 47 46 45 45 45 45 44 44 43 42 41 39 38 37 36 36 36 37 36 36 36 36 37 37 38 38 39 40 41 43 43
32 34 36 39 41 42 45 49 44 44 43 44 46 49 50 50 50 50 50 48 47 46 45 45 45 44 43 42 41 40 39 37 36 36 36 37 37 37 37 37 38 38 39 39 41 42 43 44 45
34 36 38 41 43 45 46 50 47 46 45 46 48 50 52 53 53 52 52 51 50 48 47 46 45 44 43 42 41 40 38 37 37 37 37 37 37 37 38 38 38 39 40 41 42 43 45 46 47
35 37 39 41 44 47 46 49 48 46 46 47 49 51 53 55 55 55 55 54 53 52 50 48 47 45 43 42 41 39 38 38 37 37 37 37 37 37 38 38 39 40 41 42 43 44 46 48 49
35 37 39 43 45 46 47 49 46 44 47 49 51 52 54 56 58 58 57 56 56 54 51 50 48 46 44 43 41 39 38 38 38 37 37 37 37 37 38 39 39 40 41 42 44 45 47 49 51
34 36 38 42 45 46 45 45 41 42 46 49 51 53 54 55 57 58 58 57 57 56 54 51 49 47 45 43 41 39 38 38 38 37 37 37 37 38 39 39 40 41 42 43 45 47 50 52 53
33 35 37 40 42 43 43 41 39 40 44 47 49 50 51 52 54 56 57 57 57 56 54 52 50 48 46 43 41 40 38 38 38 38 37 37 37 38 39 40 40 41 42 44 46 49 51 53 55
33 33 34 36 38 40 39 36 34 33 37 41 44 47 48 49 51 54 56 56 55 55 54 52 50 48 46 44 42 40 38 38 38 37 37 37 38 39 39 40 40 41 43 45 48 51 53 55 57
28 29 30 33 35 38 38 30 28 29 32 35 39 41 43 44 46 50 54 55 55 54 53 52 50 47 45 43 41 39 37 37 37 37 37 37 37 38 39 39 40 42 44 47 50 53 55 57 59
25 26 29 32 33 35 36 26 25 27 29 31 33 34 35 36 39 44 49 52 52 52 51 50 48 46 43 41 39 38 37 36 36 36 36 37 37 38 38 39 40 43 46 49 52 54 56 58 61

GEFSSGP_500_meanwind_054.txt.gz
Wind_Speed
33 32 32 32 31 30 26 24 26 25 24 24 22 18 18 24 26 26 24 22 21 21 21 21 21 21 21 22 22 23 23 23 22 21 20 19 18 18 18 17 17 17 17 17 17 17 17 18 18
33 32 33 33 32 30 24 25 28 28 28 26 23 22 21 26 26 23 23 22 22 22 22 23 23 23 22 23 23 23 23 23 23 23 22 21 20 19 19 18 18 18 18 18 18 19 19 19 19
32 32 33 33 31 26 22 24 29 30 27 26 26 25 25 32 26 23 24 24 23 23 23 23 23 24 23 23 23 23 24 24 24 24 23 22 21 20 20 19 19 19 19 19 19 19 19 19 19
33 33 34 32 27 21 23 27 30 28 25 27 28 27 30 32 25 23 25 25 24 24 23 24 24 24 24 24 24 24 24 24 24 24 24 23 22 22 21 20 20 20 20 20 20 20 20 20 20
35 35 35 32 25 21 24 27 30 26 25 27 27 28 34 30 28 27 27 26 26 25 24 25 25 25 25 25 25 25 24 24 25 24 24 23 23 22 22 21 21 20 21 21 21 21 21 20 20
37 36 36 32 24 23 25 27 31 26 26 27 27 28 35 30 30 29 28 28 28 26 26 26 26 26 25 25 25 25 25 24 24 24 24 24 23 23 22 22 21 21 21 21 21 21 21 21 21
38 37 36 33 27 26 26 29 33 29 28 27 27 28 34 33 30 30 30 30 29 27 27 28 27 26 26 26 25 25 24 24 24 24 24 24 24 23 23 22 22 22 21 21 21 21 21 21 21
39 39 38 34 29 26 27 32 36 32 29 30 30 28 33 34 28 30 30 31 30 29 28 29 28 28 27 27 26 25 24 24 24 24 24 23 23 24 23 23 23 22 22 21 21 22 22 22 22
41 41 39 33 30 28 30 36 39 32 31 33 32 29 33 33 27 28 30 31 31 31 30 30 30 29 28 28 27 26 25 24 24 24 24 24 23 24 24 23 23 23 23 23 23 23 23 23 23
43 42 37 33 32 33 35 39 40 33 33 34 33 32 33 33 30 29 30 31 32 32 32 31 31 31 30 29 28 28 27 25 25 25 25 24 24 24 24 24 24 24 24 25 24 24 24 25 25
43 41 37 35 36 37 37 39 38 35 35 34 34 34 34 33 31 30 31 32 32 33 33 32 32 31 31 30 30 29 28 27 27 26 26 25 25 24 24 25 25 26 26 27 26 26 27 27 27
43 41 39 38 38 37 35 37 37 37 36 34 35 36 34 30 30 30 31 32 33 33 33 33 33 33 32 31 31 30 29 29 29 28 27 27 26 26 25 25 26 26 27 28 29 29 29 29 29
44 42 40 39 38 35 35 37 37 37 36 35 36 35 32 28 29 31 31 32 32 32 32 33 34 34 33 33 32 31 31 31 30 30 29 29 28 28 27 26 26 27 28 29 30 31 31 31 32
45 43 41 40 38 36 36 37 37 35 35 36 36 35 32 30 30 32 32 32 32 32 32 33 34 35 35 34 34 33 32 32 32 31 31 30 30 30 29 29 28 29 29 30 31 32 33 33 34
44 42 41 40 38 38 38 37 36 35 36 36 35 34 32 31 32 33 33 32 33 34 34 34 35 36 36 35 35 35 34 33 33 33 33 32 32 32 32 31 31 31 31 32 32 33 34 34 35
44 43 42 40 39 39 38 35 34 35 36 35 34 33 32 31 32 32 33 33 34 35 36 36 36 36 37 37 37 36 36 35 34 33 33 33 33 33 34 34 33 33 34 34 34 34 35 35 36
44 43 41 41 40 39 38 35 34 35 34 33 32 32 32 31 31 31 32 33 34 36 38 38 38 38 38 39 38 38 37 36 36 35 34 34 34 35 35 35 35 35 35 35 36 36 36 37 37
42 42 41 41 40 39 37 35 34 34 33 32 31 31 32 31 30 31 32 34 36 38 39 40 40 40 40 41 40 39 38 37 37 36 35 35 35 36 36 37 37 37 37 37 37 37 37 38 38
41 41 40 39 40 39 37 36 34 33 32 31 31 32 33 33 33 33 34 35 36 38 40 42 42 41 42 43 41 40 40 39 38 38 37 36 36 36 37 38 38 37 37 37 37 38 38 38 39
37 37 37 38 38 38 37 36 34 33 33 33 34 34 35 36 36 37 37 38 39 40 41 42 43 43 43 44 43 43 43 41 39 38 38 37 37 37 37 38 38 38 38 38 38 38 38 40 40
34 34 35 35 36 36 37 36 34 34 34 35 36 37 38 39 40 41 42 43 43 43 44 44 44 45 45 45 46 45 43 42 41 40 39 38 38 38 38 38 39 39 39 39 39 39 39 40 41
31 31 31 32 33 34 35 36 34 34 35 37 38 40 41 43 44 45 46 47 48 48 48 47 47 48 48 48 48 47 45 44 43 42 40 39 39 39 39 39 40 40 40 40 40 40 40 40 41
27 27 28 29 31 32 33 36 35 36 37 39 41 43 45 46 48 49 50 50 51 52 52 52 51 51 50 49 49 48 47 46 45 43 42 40 40 39 39 40 40 40 40 40 41 41 41 42 42
24 25 26 28 30 32 32 35 35 38 40 42 44 46 47 49 49 50 51 52 53 54 55 55 55 54 52 51 50 49 48 47 46 45 43 42 40 40 40 40 40 40 40 41 41 42 42 43 44
24 24 26 28 30 32 34 36 36 39 41 44 46 48 49 49 49 49 50 51 52 53 54 55 56 55 54 53 51 50 49 48 47 46 44 42 41 40 40 40 40 40 40 41 42 43 43 45 46
24 25 27 30 32 34 36 38 38 40 42 44 45 47 48 49 49 50 50 50 51 52 53 54 55 56 55 54 52 51 49 48 47 46 45 43 41 41 40 40 40 40 40 41 43 44 45 46 47
25 26 28 31 33 36 37 38 38 39 41 43 45 47 48 49 49 49 50 50 50 51 52 52 54 55 55 54 53 51 49 48 47 47 45 43 41 41 40 40 40 40 41 41 43 44 46 47 48
27 27 29 31 33 36 36 35 35 36 38 41 42 44 45 46 47 48 49 50 50 50 51 52 52 53 54 54 53 50 48 47 47 46 45 43 42 41 40 40 40 41 41 42 43 45 46 47 48
27 28 29 31 33 34 35 32 31 33 35 37 39 41 42 44 46 47 48 49 49 50 50 51 50 52 52 51 50 49 48 47 46 45 44 43 41 40 40 40 40 40 41 43 44 45 47 48 49
26 27 28 29 30 31 33 27 25 29 32 35 37 39 40 42 45 46 47 47 47 47 48 49 49 49 48 48 47 47 46 46 45 44 43 41 40 39 39 39 40 40 42 43 45 46 47 49 50

GEFSSGP_500_meanwind_060.txt.gz
Wind_Speed
37 36 34 33 32 30 26 25 27 27 25 23 22 24 25 24 21 19 19 20 18 18 18 19 19 19 20 20 20 21 21 22 22 22 23 23 22 22 21 21 21 21 21 21 21 21 21 21 20
39 38 37 36 35 31 26 27 30 31 28 25 24 26 26 25 22 19 20 20 19 18 19 19 20 20 21 22 22 22 22 23 23 23 24 24 24 24 23 23 23 22 22 22 22 22 22 22 22
41 40 40 39 36 30 26 31 34 32 30 28 27 29 30 27 23 21 21 21 20 20 20 20 21 21 22 23 23 23 24 24 24 24 24 24 25 25 25 25 25 24 24 24 24 23 23 23 23
42 42 42 41 35 28 29 34 35 34 31 30 30 32 32 28 25 24 23 23 22 22 22 22 22 23 23 23 24 24 24 24 24 24 25 25 25 26 26 26 26 26 25 25 25 25 24 24 24
44 44 43 40 33 28 31 35 36 34 32 30 31 33 33 30 27 26 25 25 25 25 24 24 24 24 24 24 24 24 24 25 25 25 25 25 26 26 26 27 27 26 26 26 26 26 25 25 24
46 45 44 39 31 30 32 35 36 34 31 29 30 32 33 30 28 27 27 27 27 27 26 26 26 26 25 25 24 24 24 24 25 25 25 25 25 25 26 26 27 27 26 26 26 26 26 25 25
46 45 43 37 32 32 31 35 36 34 31 29 29 31 31 29 26 26 26 27 28 27 26 26 27 27 26 26 25 25 24 24 24 24 24 24 24 24 25 25 26 26 26 26 26 26 26 25 25
46 45 43 38 34 32 32 35 36 35 32 30 31 30 29 27 25 24 24 25 26 26 26 27 27 27 27 26 25 25 25 24 23 23 23 23 23 23 23 24 24 25 25 25 25 25 25 25 25
46 46 44 38 34 32 34 36 37 36 34 32 31 29 28 27 24 22 22 23 24 25 26 27 27 27 27 27 26 26 25 25 24 24 23 23 23 22 23 23 23 24 24 24 25 25 25 25 25
47 47 43 38 35 34 37 38 38 38 36 33 31 28 28 27 24 23 22 23 23 25 26 27 28 28 28 27 27 27 27 26 25 25 24 24 24 23 23 23 23 23 24 24 25 25 26 26 27
47 47 43 39 37 37 39 39 40 40 38 34 30 28 28 27 25 23 23 23 24 26 27 27 27 27 27 28 28 28 28 27 27 26 26 25 25 24 23 23 23 23 24 24 25 25 26 27 27
48 47 44 40 41 41 41 41 41 41 39 35 30 29 29 28 25 23 23 24 25 26 26 27 27 27 27 28 28 29 29 28 28 27 26 26 26 25 25 24 24 24 24 24 24 25 26 27 28
49 48 46 43 43 43 42 42 42 41 39 36 32 31 32 30 27 25 24 25 26 26 26 26 27 27 27 28 28 29 29 29 29 28 27 27 27 27 26 25 25 25 25 25 26 26 26 27 28
51 50 48 46 45 44 42 41 41 40 40 38 35 34 34 32 28 26 26 26 27 26 27 27 27 27 28 28 29 29 30 30 30 29 29 28 28 28 27 26 26 26 26 27 27 27 27 28 29
51 50 48 46 45 45 44 42 41 40 41 40 37 36 35 33 30 27 26 28 28 28 28 28 28 28 28 29 30 31 31 31 30 30 30 29 29 29 29 28 27 27 28 28 28 28 29 30 30
50 50 48 46 46 46 45 42 40 42 43 41 38 36 35 33 31 29 28 29 30 30 30 30 30 30 30 31 32 32 33 32 31 31 31 31 31 30 30 30 29 29 29 29 29 29 30 31 32
49 48 47 46 46 46 46 42 40 43 43 41 39 37 35 34 32 30 30 30 31 32 32 32 32 32 32 33 34 34 34 33 33 33 32 32 32 32 31 31 31 31 30 30 30 30 31 31 32
45 46 45 45 46 46 45 43 40 42 42 41 39 38 36 35 33 32 32 32 33 33 33 33 33 32 33 34 34 34 34 34 34 34 34 34 33 33 33 33 32 32 32 31 31 32 31 32 33
42 43 44 44 45 45 45 43 40 41 42 40 39 38 37 35 35 35 34 34 34 34 33 33 33 33 34 35 35 35 36 36 37 37 37 36 35 34 34 34 33 33 33 33 33 33 33 33 33
40 40 41 42 44 44 44 43 40 40 41 40 40 38 37 37 36 36 35 35 35 35 35 35 35 35 36 37 37 39 40 40 40 39 39 38 37 37 36 36 35 35 34 34 34 34 34 34 35
37 37 38 39 40 41 42 41 39 39 40 40 39 38 38 37 37 37 37 37 37 37 37 38 38 39 39 40 41 41 42 42 41 40 39 39 39 39 39 38 37 36 36 35 35 35 35 35 36
33 33 34 35 37 38 39 38 35 36 37 37 37 37 37 38 38 38 39 39 39 39 40 41 42 43 43 44 44 44 44 44 43 42 42 42 42 42 41 40 39 38 37 36 36 36 36 37 37
30 30 30 32 33 34 35 36 31 32 33 34 34 36 37 38 39 39 40 40 41 42 43 44 45 46 47 48 48 48 47 47 46 46 45 44 44 44 43 42 41 40 39 38 38 37 37 38 39
27 27 27 28 29 30 29 32 29 28 30 31 33 34 36 37 39 40 41 42 44 45 47 48 49 50 51 52 52 52 52 50 49 49 48 47 47 46 45 45 43 42 41 40 40 39 39 39 40
25 25 25 25 26 25 25 27 26 26 28 29 31 34 36 38 40 42 43 45 46 48 49 51 52 53 54 54 54 54 54 53 52 51 51 50 48 47 47 46 45 44 43 42 41 40 40 41 41
23 24 24 23 23 22 23 24 24 25 26 28 31 34 36 39 41 43 45 47 48 50 52 53 53 54 54 54 54 55 54 54 53 52 51 50 49 48 48 47 46 45 44 43 42 41 41 42 43
23 22 21 21 21 21 22 22 23 24 26 29 31 34 36 39 41 43 45 47 49 50 52 53 54 54 55 55 54 54 54 53 53 52 52 51 50 49 49 48 47 46 45 44 43 42 43 43 45
21 21 21 20 20 20 20 20 22 24 27 29 31 33 35 38 40 42 44 45 47 49 51 52 53 54 54 54 54 54 53 53 52 52 52 51 50 50 49 48 47 46 45 44 43 43 43 44 45
20 20 20 19 20 20 20 19 22 24 26 28 30 32 33 35 36 38 41 43 46 48 50 52 53 53 53 53 52 52 52 51 50 49 50 50 50 50 49 47 46 45 44 44 43 43 44 45 46
20 19 19 20 19 19 19 19 21 23 25 27 29 30 31 33 35 37 39 42 44 46 48 50 51 52 52 52 51 50 50 49 48 46 46 48 48 48 47 46 45 44 43 42 42 43 43 45 47

GEFSSGP_500_meanwind_066.txt.gz
Wind_Speed
43 42 41 40 40 38 34 32 32 31 31 30 29 28 27 25 24 23 20 19 18 17 16 16 16 16 17 17 17 17 17 17 17 17 17 18 18 18 19 19 20 20 20 19 19 19 19 19 20
44 44 43 43 42 38 33 32 32 32 31 30 29 28 27 26 25 23 22 20 19 18 17 17 17 17 17 17 18 18 18 18 18 18 18 18 19 19 19 20 20 21 21 21 21 21 20 20 20
45 45 45 45 44 37 30 32 34 33 32 31 30 29 27 26 25 24 23 21 20 19 18 18 17 17 17 17 17 18 18 18 18 19 19 18 18 19 19 20 20 21 21 21 21 22 21 21 22
47 47 48 47 42 34 31 34 35 34 32 32 31 30 28 27 26 25 23 22 21 20 19 19 19 19 18 18 18 18 18 19 19 19 19 19 19 19 19 19 20 20 21 21 22 22 22 22 23
49 49 50 48 40 34 34 36 37 35 34 34 33 31 29 28 27 26 25 24 23 23 22 22 21 21 20 20 20 20 20 20 20 20 20 20 19 19 19 19 20 20 21 21 21 22 22 23 23
51 51 50 46 39 35 35 37 38 36 36 35 34 33 31 30 28 28 27 26 25 25 25 24 24 23 23 22 22 21 21 21 21 21 21 20 20 20 20 20 19 20 20 21 21 22 22 22 23
52 52 50 45 40 38 37 40 40 39 37 37 36 34 32 30 30 29 29 28 27 27 26 26 25 25 24 24 23 23 22 22 21 21 21 21 20 20 21 20 20 20 20 21 21 21 21 22 22
53 53 51 47 42 39 38 42 42 41 39 38 37 35 32 31 31 31 30 29 29 28 27 27 26 26 25 25 24 23 22 22 21 21 21 21 20 21 21 21 21 21 21 21 21 21 21 22 22
53 54 51 46 42 39 40 43 44 43 40 39 38 35 34 33 31 31 30 29 29 28 28 27 26 26 25 25 24 23 23 22 22 22 22 21 21 21 21 22 22 22 22 22 21 21 22 22 23
53 53 49 46 43 41 42 44 45 43 41 40 38 36 34 32 30 29 28 28 28 29 28 27 27 26 25 25 24 24 24 23 23 23 22 22 22 22 23 23 23 23 23 23 23 23 23 23 24
52 51 49 47 45 42 43 45 45 44 42 40 39 36 34 32 30 28 27 28 28 29 28 27 26 26 26 25 25 25 24 24 24 23 23 23 23 23 23 23 24 24 23 24 24 24 24 24 24
51 50 49 48 45 44 44 45 45 44 43 41 40 37 35 32 30 29 28 29 29 29 28 28 27 27 26 26 26 26 25 25 25 24 23 23 23 23 23 24 24 24 24 24 24 25 25 25 26
51 50 49 47 46 45 45 45 45 44 43 42 41 39 36 33 32 31 31 30 30 30 30 29 29 28 28 27 27 27 27 27 26 25 25 24 24 24 24 24 25 25 25 25 26 26 26 26 27
51 51 49 47 46 45 45 46 46 44 44 43 42 40 37 35 33 32 31 30 30 31 31 32 31 31 30 29 28 29 29 28 28 27 26 26 26 26 26 26 26 26 27 27 27 27 27 28 28
51 51 50 48 46 45 46 47 46 44 46 45 43 41 39 37 35 33 32 32 32 32 33 33 33 33 31 30 30 30 30 30 29 29 28 28 28 28 27 27 27 28 28 28 29 29 29 29 30
51 52 51 48 47 46 47 46 46 46 46 46 44 42 41 39 37 35 34 33 33 34 35 35 36 35 34 33 32 32 32 32 31 31 30 30 30 30 30 29 30 30 30 30 30 30 31 31 31
50 51 50 48 47 47 47 46 45 46 47 46 45 44 42 40 38 36 35 35 35 36 37 37 37 36 36 35 35 35 34 33 33 33 32 32 32 32 32 32 32 32 32 32 32 33 33 33 33
47 48 48 47 47 47 47 47 44 46 46 46 46 45 43 41 39 38 38 37 37 37 38 38 38 38 37 37 37 36 36 35 35 35 35 35 34 34 34 34 34 35 34 34 35 35 35 35 35
46 46 46 46 46 46 47 47 44 45 46 46 46 45 44 42 41 40 40 39 39 38 39 39 39 39 39 38 38 37 37 37 37 37 37 37 36 36 36 36 36 37 37 37 37 37 36 36 37
44 44 44 44 45 46 47 46 43 44 46 46 45 45 44 43 42 41 41 40 39 39 39 39 39 40 40 39 39 39 39 40 39 39 39 38 38 38 39 39 39 40 40 40 39 39 39 39 38
41 41 41 41 41 43 44 44 42 42 45 45 45 44 43 42 41 41 41 41 40 40 40 40 40 41 41 41 41 42 42 41 41 40 40 40 41 42 42 42 42 43 42 42 42 42 41 41 41
35 36 36 37 38 39 41 41 39 40 42 44 43 43 42 41 41 41 41 41 40 40 40 41 41 42 42 43 43 43 43 43 42 43 43 44 44 45 45 45 45 45 45 45 45 44 44 43 42
31 32 33 33 35 36 37 38 36 37 39 41 41 41 40 40 40 40 41 41 41 41 41 42 43 43 44 45 45 45 45 45 45 46 46 46 47 47 47 47 47 47 47 47 47 46 45 45 45
30 30 30 31 32 33 33 34 33 34 35 37 38 38 38 39 39 39 40 40 41 41 42 43 43 44 45 46 47 48 48 48 48 48 49 49 50 50 50 50 50 49 49 49 48 48 48 47 47
30 29 29 29 31 31 30 31 30 31 32 33 34 34 35 36 37 37 38 39 40 41 42 43 44 45 47 48 49 49 50 51 51 52 53 53 54 53 53 53 52 52 52 51 51 51 50 49 49
27 27 28 28 28 28 27 27 28 27 28 29 30 31 32 33 34 35 36 37 38 40 41 43 45 46 48 50 51 52 53 54 55 56 56 57 56 56 55 55 54 53 53 52 52 52 51 51 51
26 26 26 26 26 24 24 25 24 23 24 26 27 28 29 30 31 33 34 36 38 40 42 44 45 47 50 52 53 55 56 57 58 59 60 60 59 58 57 56 55 54 54 53 54 53 53 53 52
25 24 25 24 23 22 21 21 20 21 22 24 25 26 27 28 30 32 34 36 38 40 42 44 46 47 49 51 53 55 57 59 60 61 61 61 61 60 59 57 56 55 55 54 53 53 53 53 52
23 23 23 23 22 20 19 18 19 20 21 22 23 25 26 28 30 32 34 36 37 39 41 43 45 47 49 52 54 56 58 59 60 61 61 60 59 59 58 56 54 53 53 52 52 53 53 53 51
22 22 22 22 20 18 17 17 18 20 21 22 23 24 26 28 30 31 33 34 36 38 40 42 44 46 48 51 53 55 57 58 59 60 59 59 58 56 55 53 52 51 51 51 52 52 52 51 51

GEFSSGP_500_meanwind_072.txt.gz
Wind_Speed
50 49 48 47 46 45 42 38 35 35 34 32 30 29 27 25 24 23 20 19 18 18 17 16 16 16 16 16 16 16 15 15 16 16 16 16 17 17 17 18 18 19 19 19 19 19 19 19 19
50 50 50 50 50 47 42 38 37 38 36 34 32 31 29 28 25 23 22 21 20 19 18 17 17 17 16 16 16 16 16 16 16 16 16 17 17 18 18 18 18 19 19 19 19 20 20 20 20
51 51 52 53 52 47 41 38 39 40 38 36 34 33 31 29 27 24 23 22 21 20 19 18 18 17 16 16 16 15 15 15 16 16 16 17 17 17 18 18 18 18 18 18 19 20 20 20 20
51 52 54 55 53 45 40 39 42 41 39 37 36 34 32 30 27 25 24 23 23 21 20 19 18 17 16 16 16 16 16 16 16 17 17 17 18 18 18 18 18 18 19 19 20 20 20 20 20
52 53 55 56 51 44 41 41 42 42 40 38 37 35 33 31 29 27 25 24 23 22 21 20 19 19 18 17 17 17 17 18 18 18 18 19 19 19 19 19 19 20 20 20 20 20 20 20 20
53 54 55 55 49 43 41 42 43 42 40 39 37 36 34 32 29 28 26 25 24 23 22 22 21 21 20 19 19 19 19 19 19 20 20 20 20 20 20 20 20 20 20 20 20 20 21 21 21
54 54 53 51 47 44 41 42 43 42 41 39 38 36 35 33 30 29 27 26 24 24 24 24 23 23 22 21 21 21 21 21 20 20 20 20 20 20 20 20 20 20 21 21 21 21 21 21 21
54 54 54 51 48 44 42 43 43 43 42 41 39 37 36 33 31 30 28 27 26 25 25 26 26 25 25 24 23 22 22 21 21 20 20 20 20 20 20 20 20 20 21 21 21 21 21 22 22
54 55 54 50 47 44 43 44 45 44 43 42 40 37 36 34 32 31 29 28 28 28 28 28 28 28 27 26 25 24 23 22 21 21 20 20 20 20 20 20 20 20 20 20 21 21 21 21 22
56 55 51 50 48 46 45 46 46 46 45 43 41 38 37 35 33 31 31 30 30 31 31 30 30 29 29 28 26 25 24 23 22 21 21 20 20 20 20 20 20 20 20 21 21 21 21 21 21
56 53 52 50 49 48 47 48 48 47 46 45 42 40 38 36 34 33 32 32 32 32 32 31 31 30 30 29 28 26 25 24 23 22 22 21 21 20 20 20 20 20 21 21 21 21 22 21 22
54 54 53 51 50 50 49 49 49 49 48 46 44 42 40 38 36 35 34 34 34 33 32 32 32 31 31 30 29 28 27 26 25 24 23 22 22 21 21 21 21 21 21 22 22 22 22 22 22
53 53 54 53 51 51 50 50 50 49 49 47 45 43 41 39 37 36 35 35 34 33 33 33 33 32 32 31 31 29 29 28 27 26 25 24 23 23 22 22 22 23 23 23 23 23 23 23 23
52 53 53 53 52 51 50 51 51 49 49 49 47 45 43 41 39 37 36 35 34 34 33 33 33 33 33 32 32 31 31 30 29 27 27 26 25 25 24 24 24 24 24 24 24 24 24 25 25
53 54 54 53 52 51 50 50 51 50 50 49 48 46 44 42 40 38 37 36 35 35 35 34 34 34 34 34 33 33 32 32 31 30 29 29 28 27 27 27 26 26 26 26 26 26 26 27 27
52 54 54 52 51 50 50 49 50 51 50 49 49 47 45 43 41 39 38 37 36 36 35 35 35 35 35 35 35 35 34 34 33 32 31 31 31 30 30 29 29 29 29 29 29 29 29 29 29
51 52 52 51 50 49 49 48 48 50 50 49 49 48 46 43 41 40 38 37 36 36 36 36 37 37 37 37 37 37 36 36 35 35 34 34 34 34 33 32 32 32 32 31 31 31 31 31 31
46 48 49 50 49 48 48 47 47 48 50 49 49 48 46 44 42 40 39 38 37 37 37 37 37 38 38 39 39 39 38 38 38 37 37 37 37 37 36 35 35 35 35 34 34 34 34 34 34
44 46 47 48 48 48 47 47 47 47 48 49 48 48 46 44 42 41 40 39 38 38 38 38 38 39 40 40 40 40 40 40 40 40 40 40 39 39 38 38 38 38 38 38 38 37 37 37 37
42 44 45 46 46 46 47 47 46 47 47 47 47 47 47 45 43 42 41 40 39 38 38 39 39 40 40 41 41 42 42 43 42 42 42 41 41 41 41 41 41 41 41 41 40 40 40 40 40
41 42 43 43 43 43 44 46 46 46 47 47 47 47 46 46 44 43 42 40 39 39 39 39 39 40 41 42 42 43 44 44 43 43 43 43 44 44 44 44 44 44 44 44 44 44 44 44 43
39 40 41 41 42 42 42 44 45 45 46 47 46 46 46 45 44 43 42 41 40 40 39 39 40 40 41 42 43 44 44 44 44 44 44 45 46 46 47 47 47 47 47 47 47 47 47 47 46
35 36 37 38 40 41 41 42 42 43 43 45 45 45 45 44 44 43 42 42 41 40 40 40 40 41 41 42 43 44 44 44 45 45 45 46 47 48 49 49 50 50 50 50 50 50 50 49 49
32 33 33 35 37 39 40 40 39 40 41 42 43 44 43 43 43 42 42 41 41 40 40 40 40 41 41 42 43 43 43 44 45 45 46 47 48 49 50 51 52 52 52 53 53 53 53 53 52
30 30 30 32 35 37 37 37 37 36 37 39 40 41 41 41 41 41 41 41 40 40 39 39 40 40 41 41 42 42 43 44 45 45 46 47 48 49 51 52 53 54 55 55 56 56 55 55 54
29 29 30 30 31 32 33 34 34 33 34 35 37 38 38 39 39 40 40 40 40 40 39 40 40 40 40 40 41 42 43 44 44 46 47 48 49 51 52 54 56 57 58 58 58 58 58 57 57
27 27 28 28 28 29 30 31 31 30 31 32 33 34 35 35 36 37 37 38 38 38 38 38 38 38 38 39 40 41 42 43 44 46 47 49 51 53 55 57 58 59 60 60 61 61 60 59 58
26 25 26 26 25 25 27 27 27 27 28 29 31 32 32 33 33 34 34 35 35 36 36 36 36 36 37 38 39 40 42 43 44 46 48 50 52 54 56 58 59 60 61 61 61 61 60 59 58
26 25 25 24 24 23 24 25 24 25 27 28 29 30 30 31 31 31 32 32 33 33 33 34 34 35 37 38 39 41 42 43 45 47 49 51 53 55 56 58 59 60 60 60 58 57 56 55 55
23 23 24 24 23 23 22 22 23 24 25 26 27 27 28 28 29 30 30 30 31 31 32 33 34 35 36 37 39 40 41 43 45 47 49 51 52 53 55 56 57 57 57 57 56 54 54 53 52

GEFSSGP_500_meanwind_078.txt.gz
Wind_Speed
51 50 50 49 48 46 43 39 38 38 37 35 31 28 26 27 29 29 23 18 17 17 16 16 15 14 13 13 13 13 13 14 14 14 15 15 15 15 16 16 16 16 17 17 17 17 17 18 18
53 52 52 52 51 49 44 40 40 40 40 34 30 29 28 30 31 26 23 19 19 19 18 17 15 15 14 14 14 14 14 14 15 15 15 14 15 15 15 16 16 17 17 17 17 17 18 18 19
53 53 54 55 54 51 45 41 41 42 41 36 34 33 33 36 31 25 24 22 21 21 19 18 17 16 15 15 15 14 14 14 14 14 14 15 15 16 16 17 17 17 17 17 17 17 18 18 19
53 54 55 57 55 51 46 42 43 44 43 39 37 35 37 35 28 26 27 25 23 22 21 20 18 17 16 15 15 15 15 15 15 15 15 16 16 16 17 17 17 17 17 18 18 18 19 19 19
54 55 56 57 55 51 48 46 46 46 44 41 39 39 39 35 32 30 29 27 26 24 22 21 20 19 18 17 16 16 16 16 16 16 16 17 17 17 18 18 18 18 17 18 18 18 18 18 19
53 54 56 57 55 52 50 48 47 47 45 43 41 41 41 37 35 33 31 30 28 25 24 23 22 21 19 18 18 18 17 17 18 18 18 18 18 18 18 18 18 17 17 17 17 17 17 17 18
53 54 54 53 52 52 50 49 48 47 46 44 43 42 44 39 37 35 33 32 29 27 27 25 24 23 22 20 19 19 19 19 19 19 19 18 18 18 18 18 17 17 17 17 17 17 16 17 17
53 53 53 53 51 50 49 49 49 48 46 44 44 44 46 41 39 37 35 33 31 29 29 28 26 25 24 23 21 20 20 20 20 20 19 19 18 18 18 18 17 17 16 16 16 16 16 16 17
54 55 55 52 50 48 46 48 50 49 47 46 46 47 48 42 40 38 36 34 33 31 30 29 28 27 26 24 23 22 21 21 21 20 20 19 19 18 18 18 17 17 16 16 16 16 16 16 17
54 55 51 47 47 47 46 47 49 49 47 46 47 48 47 42 40 38 37 36 34 33 32 31 30 29 27 26 25 24 23 22 22 21 20 20 19 19 18 18 18 17 16 16 16 16 16 16 17
52 50 47 48 50 51 50 50 49 48 47 47 47 46 45 41 40 39 38 37 36 35 33 32 31 30 29 27 27 26 25 24 23 22 21 21 20 20 19 19 18 17 17 17 17 17 17 17 17
51 48 49 50 52 53 52 51 48 48 47 47 48 47 46 43 42 41 40 38 37 36 35 33 32 31 30 29 28 27 26 25 24 23 22 22 21 21 20 20 19 19 19 19 19 19 19 19 19
50 50 51 52 54 53 52 51 49 47 48 49 49 49 46 44 43 42 41 40 38 37 36 35 33 32 31 30 29 28 28 27 26 25 24 23 23 22 22 22 21 21 21 21 21 21 21 21 21
48 51 53 54 54 52 51 50 49 48 49 49 49 47 46 44 44 43 42 41 39 38 36 35 34 33 32 31 31 30 29 28 27 26 25 25 24 24 24 24 23 23 23 23 23 23 23 24 24
48 50 53 53 53 52 51 50 48 48 49 49 49 47 46 46 45 44 43 41 40 38 37 36 35 34 33 33 32 31 31 30 29 28 27 27 26 26 26 26 26 26 26 26 26 26 26 27 27
48 50 51 51 51 52 52 49 47 48 50 49 49 48 47 46 45 44 43 42 41 39 38 37 36 35 35 34 33 33 32 31 30 29 29 29 29 29 28 28 29 29 29 29 29 29 29 30 30
47 47 47 48 49 50 51 49 47 48 49 50 50 49 49 47 46 45 44 43 41 40 38 38 37 36 36 36 35 34 33 32 31 31 31 31 31 31 31 31 31 32 32 32 32 32 33 33 33
43 42 43 45 47 48 49 48 47 48 48 49 49 49 49 48 47 46 45 44 42 41 39 39 38 38 37 37 35 34 34 34 33 33 33 33 34 34 34 34 34 35 35 35 35 36 36 37 37
40 41 41 41 44 46 47 47 46 47 47 47 48 49 49 48 47 46 45 44 42 41 40 39 39 39 38 37 36 35 35 36 35 35 35 35 36 37 37 37 37 37 37 38 38 39 39 40 40
40 39 39 40 42 43 44 46 46 47 47 46 47 49 50 48 47 46 45 44 42 41 41 40 39 39 38 38 37 37 37 37 37 37 37 38 38 39 39 39 39 40 40 41 41 41 42 43 43
38 37 37 38 39 40 42 44 45 45 45 45 46 47 49 49 48 47 46 44 43 42 41 40 40 40 39 38 38 38 38 38 38 38 39 40 41 41 41 41 42 42 43 43 43 44 45 46 46
36 36 36 36 37 38 40 42 42 43 44 44 44 45 46 48 48 47 46 44 43 42 41 41 40 40 40 39 39 39 39 39 40 41 41 41 42 42 43 43 44 44 45 45 46 47 47 48 49
34 35 34 34 34 35 37 39 40 42 42 42 42 43 44 45 46 46 45 44 43 42 41 41 40 40 40 40 40 40 41 41 41 42 42 43 43 44 44 45 45 46 47 47 48 48 49 50 51
32 32 31 32 33 34 34 36 37 39 39 40 41 42 42 43 43 44 44 44 43 42 41 41 41 41 41 41 41 41 41 42 42 43 43 44 44 45 46 47 47 47 48 49 49 50 51 52 53
31 31 31 32 34 33 32 34 35 37 37 38 39 41 41 41 42 43 42 42 42 41 41 41 41 41 41 41 42 42 42 43 43 44 44 45 45 46 46 47 48 48 49 49 50 51 52 54 55
31 31 30 30 30 29 31 33 35 35 35 35 36 38 39 40 41 41 41 41 41 41 41 41 41 41 41 42 42 42 42 43 43 44 44 45 46 46 46 46 47 48 48 49 51 52 54 55 56
30 30 28 27 26 26 28 31 33 33 33 34 34 35 37 38 39 40 41 41 41 40 40 40 41 41 41 41 41 41 42 42 43 44 44 44 45 45 45 45 46 46 47 49 51 53 54 55 57
27 27 27 26 25 24 25 27 29 30 31 32 33 34 35 36 37 39 40 40 40 40 40 40 40 40 40 41 41 41 41 42 42 42 42 43 43 44 44 44 45 46 47 49 51 52 53 54 56
26 26 26 25 25 24 24 26 26 28 29 31 32 33 34 35 36 37 37 38 39 39 39 39 39 39 39 40 40 40 40 40 40 40 41 41 41 42 42 42 43 45 46 48 49 50 52 53 53
24 24 24 25 25 24 24 25 23 24 26 28 30 31 33 34 34 35 36 37 37 38 37 37 37 37 37 37 37 37 37 38 38 38 39 39 39 39 39 41 42 43 45 46 47 48 49 49 49

GEFSSGP_500_meanwind_084.txt.gz
Wind_Speed
53 53 52 51 50 49 45 40 39 39 38 37 35 34 33 32 29 25 22 20 19 18 17 16 14 13 12 11 10 10 9 9 9 9 9 10 10 10 10 11 11 11 12 12 13 13 13 13 14
55 55 54 54 53 51 46 42 41 41 40 38 36 36 35 33 29 25 23 21 19 18 18 17 15 13 12 12 11 11 10 10 10 10 10 10 10 10 11 11 11 12 12 12 12 13 13 13 14
57 56 56 57 56 52 46 43 42 43 42 40 38 38 37 34 30 27 25 22 20 19 19 17 16 14 13 12 12 12 11 11 10 10 11 11 11 11 11 11 12 12 12 13 13 13 13 13 14
57 57 58 59 57 52 46 44 45 46 44 42 41 40 39 35 32 29 27 24 22 21 20 18 17 16 14 14 13 12 12 11 11 11 11 11 11 12 12 12 12 13 13 13 13 13 13 13 13
58 59 59 60 58 52 48 47 48 48 47 45 43 42 40 37 33 30 29 27 25 23 22 20 19 17 16 15 14 14 13 13 13 12 12 12 13 13 13 13 13 13 13 13 13 13 13 13 13
58 60 61 60 57 52 50 49 50 50 49 47 46 45 42 39 36 33 30 29 27 26 24 22 21 19 18 16 16 15 15 15 14 14 14 14 14 14 14 14 14 14 13 13 13 13 13 13 13
58 59 59 58 56 53 51 51 52 51 50 49 49 47 44 41 38 35 32 31 30 28 26 24 23 21 20 19 18 17 17 16 16 15 15 15 15 15 15 15 14 14 14 14 13 13 13 13 13
56 57 58 58 57 53 50 51 52 52 51 51 50 49 46 43 40 37 35 33 32 30 28 26 25 24 22 21 20 19 19 18 18 17 17 17 17 16 16 16 15 15 15 14 14 14 14 13 13
55 57 58 55 54 52 50 51 52 52 52 52 52 50 48 46 43 39 37 35 34 32 30 29 27 26 25 23 22 21 21 20 19 19 18 18 18 18 17 17 16 16 16 16 15 15 14 14 14
56 56 54 52 50 50 49 51 53 53 53 53 54 52 50 48 45 41 39 37 36 34 33 31 30 29 27 26 25 23 22 21 21 20 20 20 19 19 19 18 18 17 17 17 16 16 16 16 16
54 52 49 50 50 51 52 52 53 53 53 53 53 53 51 49 46 44 41 39 38 37 35 34 33 31 29 28 27 26 25 23 22 22 21 21 21 20 20 20 19 19 19 18 18 18 18 18 18
51 49 49 49 49 51 52 53 53 53 52 52 52 51 52 50 48 45 43 40 39 38 37 36 35 33 31 30 29 28 27 25 24 23 22 22 22 21 21 21 21 21 20 20 20 20 20 20 20
50 49 49 49 49 50 51 52 52 53 52 51 52 52 52 50 48 47 45 43 41 40 39 37 36 35 33 32 31 30 29 27 26 25 24 23 23 23 23 23 23 23 22 22 22 22 22 23 23
48 49 50 51 50 50 50 50 51 52 52 51 51 52 52 51 49 47 46 44 42 41 40 39 37 36 35 34 33 32 30 29 28 26 25 25 24 24 24 24 24 24 24 24 24 24 24 25 25
48 49 50 51 51 50 49 50 50 49 50 51 50 50 51 51 49 47 46 45 44 42 41 40 39 38 37 36 34 33 32 30 29 28 27 27 26 26 26 26 26 26 25 25 26 26 27 27 28
48 50 50 50 49 49 49 48 46 48 49 50 49 48 49 49 49 48 47 46 45 43 42 41 41 39 38 37 36 34 33 32 30 30 29 28 28 28 27 27 27 27 27 27 28 29 30 30 31
48 49 48 47 47 47 48 46 45 46 47 48 48 48 48 48 48 48 47 47 45 44 43 43 42 41 39 39 37 36 34 33 32 32 31 31 30 29 29 29 29 29 29 29 30 31 32 33 34
44 45 45 45 45 45 46 45 44 45 45 46 47 48 48 47 48 47 47 47 47 46 45 44 44 42 41 40 39 37 35 34 34 34 33 32 31 31 31 31 31 31 31 32 33 33 34 35 36
40 41 43 43 43 43 43 43 44 45 46 46 46 47 47 47 47 48 47 48 48 47 46 45 43 43 42 40 39 38 37 36 36 35 34 34 33 33 33 32 32 33 33 34 35 35 36 37 38
39 40 40 41 42 41 42 43 44 46 46 46 46 46 46 47 47 48 47 47 48 48 47 45 44 43 42 41 40 39 38 38 37 36 35 35 35 35 35 34 34 34 35 35 36 38 38 39 40
38 38 39 39 40 40 40 42 44 44 46 47 46 45 45 46 47 47 47 47 47 48 47 46 45 44 43 42 41 40 40 39 38 37 36 36 36 36 36 36 36 37 37 38 39 40 40 41 42
36 37 37 38 38 38 38 39 39 41 44 45 45 45 44 44 46 48 48 48 47 47 47 46 46 45 44 43 42 41 40 39 38 38 38 38 38 38 38 38 38 39 39 40 40 41 42 43 44
34 34 35 35 36 36 36 36 35 38 40 41 41 42 43 44 45 46 47 48 48 48 48 47 47 46 44 43 42 41 41 40 40 40 40 40 40 39 39 39 40 41 41 42 43 43 44 45 46
32 32 32 32 33 34 34 34 33 34 35 37 39 40 42 44 45 45 46 47 48 48 48 48 47 46 45 45 44 43 42 41 41 41 41 41 41 41 41 41 42 43 43 44 45 45 46 47 47
32 32 31 31 32 32 31 33 31 30 32 35 38 39 41 42 44 45 46 47 47 48 48 48 48 47 47 46 46 45 44 43 43 42 42 42 42 43 43 44 44 44 45 45 46 47 47 47 47
30 31 31 30 30 28 28 30 29 28 30 33 35 38 40 41 42 43 44 45 47 47 47 47 47 47 47 46 46 45 45 45 44 44 44 44 44 44 45 45 45 45 46 46 47 47 47 47 47
29 30 29 28 28 28 28 27 26 26 28 31 33 35 37 39 40 42 42 43 44 45 46 47 47 47 47 47 47 46 46 45 45 45 45 45 45 45 45 45 45 46 46 46 46 46 46 46 46
29 28 29 28 27 27 27 25 23 23 25 28 31 33 36 37 38 40 41 41 42 43 44 44 45 45 45 46 46 46 46 46 46 46 46 46 45 45 45 45 45 45 46 46 45 45 45 46 45
26 27 28 27 27 27 27 25 23 22 23 26 29 32 34 36 37 38 39 40 40 41 42 42 43 43 43 44 44 45 45 45 45 45 45 45 45 45 45 45 45 45 45 45 44 44 44 44 44
24 25 26 26 26 26 26 25 23 22 22 24 26 30 33 35 36 37 37 38 39 39 40 41 42 42 42 42 43 43 44 44 44 44 43 43 43 43 44 44 44 44 43 43 42 42 42 42 43

GEFSSGP_500_meanwind_090.txt.gz
Wind_Speed
54 54 53 52 52 51 48 44 40 38 38 39 38 37 35 33 30 27 24 23 21 19 18 16 14 13 12 10 9 8 8 7 6 5 5 4 4 5 5 6 7 7 8 8 9 9 10 10 11
55 55 55 55 55 53 49 44 41 40 40 40 39 38 36 34 31 28 26 24 22 20 19 17 15 14 12 11 10 9 8 7 6 6 5 5 5 6 6 7 8 8 9 9 9 10 10 11 11
55 56 56 57 57 54 48 44 42 42 42 42 41 39 38 36 33 30 27 25 23 21 19 18 16 14 13 12 10 9 8 7 7 6 6 6 6 7 7 8 8 9 9 10 10 10 11 11 12
56 57 58 58 58 53 48 45 44 44 44 44 42 41 39 37 34 31 29 27 25 23 21 19 17 15 14 12 11 10 9 8 7 7 7 7 7 8 8 9 9 10 10 11 11 11 11 12 12
57 58 59 59 56 54 50 47 46 46 46 45 44 42 40 38 36 33 30 28 26 24 22 20 18 16 15 13 12 11 10 9 8 8 8 8 8 9 9 10 10 11 11 11 12 12 12 13 13
58 59 61 60 55 53 51 49 48 48 48 47 46 44 42 40 37 35 32 30 28 26 23 21 20 18 16 15 13 12 11 11 10 9 9 9 10 10 11 11 12 12 12 12 13 13 14 14 14
58 59 59 57 55 53 51 50 49 49 49 49 47 46 43 41 39 36 34 32 30 27 25 23 21 19 18 16 15 14 13 12 11 11 11 11 12 12 12 13 13 13 14 14 14 15 15 15 15
57 58 59 58 56 52 49 50 50 50 50 51 50 47 44 42 40 38 36 34 32 30 27 25 23 21 19 18 17 15 15 14 13 13 13 13 14 14 14 14 15 15 15 15 16 16 16 16 17
57 58 59 57 55 51 49 50 51 52 53 52 52 49 46 45 43 40 38 36 34 31 29 27 25 23 22 20 19 17 16 16 15 15 15 15 15 16 16 16 16 17 17 17 17 17 18 18 18
57 57 54 53 52 51 50 51 52 54 55 54 53 51 49 46 44 42 39 37 35 34 31 29 27 26 24 22 21 20 19 18 17 17 17 17 17 17 17 18 18 18 18 18 19 19 19 20 20
56 55 52 52 52 51 52 53 54 55 56 56 54 52 50 48 46 43 41 39 38 36 34 32 30 28 27 25 24 23 21 20 19 19 19 19 19 19 19 20 20 20 20 20 20 20 21 21 22
54 53 52 51 51 51 52 54 55 56 56 56 56 54 52 50 47 45 43 41 40 39 37 35 33 31 29 28 26 25 24 23 22 21 21 21 21 21 21 21 21 21 21 21 21 22 22 23 23
53 53 53 52 51 52 52 53 55 56 56 56 56 55 54 52 49 47 45 43 42 41 39 37 35 34 32 31 29 28 27 26 25 24 24 23 23 22 22 22 23 23 23 23 23 23 24 24 25
51 52 53 53 52 52 52 53 54 54 56 56 55 55 53 52 51 49 47 45 43 42 41 40 38 36 35 34 32 31 30 29 28 27 26 26 25 25 24 24 24 24 24 24 25 25 25 26 27
50 51 53 53 53 52 52 52 52 51 55 56 55 54 53 52 51 49 48 46 45 44 43 42 40 39 37 36 35 34 33 32 30 29 29 28 27 27 26 26 26 26 26 26 26 27 27 28 29
51 52 53 53 52 52 53 51 49 51 53 55 54 54 54 52 51 50 48 47 47 45 44 43 42 41 40 39 38 37 35 34 33 32 31 30 30 29 28 28 28 28 28 28 28 28 29 29 30
51 52 52 52 52 52 52 49 48 50 52 54 54 54 53 52 51 50 49 48 47 47 46 45 44 43 42 41 40 40 38 37 35 34 33 33 32 31 30 30 30 30 29 29 30 30 31 31 32
48 48 48 49 50 51 50 48 49 50 51 52 54 54 52 51 49 50 50 49 48 47 47 46 45 45 45 43 42 42 41 39 38 37 36 35 34 33 32 32 32 32 31 31 32 32 32 33 34
44 45 46 46 48 49 49 48 48 49 50 51 52 53 53 52 49 49 49 49 49 48 47 47 46 46 46 45 44 43 43 42 40 39 39 38 36 35 34 34 34 34 33 33 34 34 34 35 36
41 43 44 44 45 46 46 47 47 48 48 49 49 50 51 52 51 49 49 48 49 48 48 48 47 47 47 47 47 46 45 43 42 41 40 39 38 37 37 36 36 36 36 35 35 36 36 37 38
39 39 41 41 42 43 44 46 46 47 47 47 47 47 48 50 51 50 49 48 48 48 48 49 49 48 48 48 48 48 47 46 44 43 42 41 40 40 39 38 38 38 37 37 37 38 39 39 40
36 36 38 39 40 42 43 44 44 45 45 45 45 45 46 47 48 49 50 49 49 48 48 49 49 48 49 50 50 49 48 47 45 44 43 43 42 42 41 40 40 39 39 39 40 40 41 42 42
32 33 34 37 38 39 41 43 42 42 43 42 42 43 44 45 46 46 47 48 49 49 49 49 49 49 49 50 50 49 49 48 47 45 44 44 44 43 43 42 42 41 41 41 42 42 43 43 44
30 30 31 34 37 38 38 40 39 39 39 40 40 41 42 43 45 45 46 47 48 48 49 49 49 50 50 50 49 49 49 48 48 47 47 46 46 45 44 44 43 43 43 43 43 43 44 45 45
29 28 29 32 36 37 36 38 37 35 36 37 38 39 40 42 43 44 45 46 47 48 48 49 49 50 51 51 51 50 50 50 49 48 48 47 47 46 46 45 45 45 45 45 45 45 45 46 47
28 27 28 30 33 34 35 36 34 33 34 35 37 38 38 40 41 42 44 45 47 48 49 49 50 50 50 51 51 51 51 51 50 49 49 48 47 47 47 47 46 46 47 47 47 46 47 47 47
27 26 25 27 30 31 32 33 32 32 32 34 36 37 37 37 39 40 42 43 45 46 48 49 50 50 51 51 51 51 51 51 51 51 50 50 49 49 48 48 48 48 48 48 48 48 48 48 47
26 25 24 24 26 28 29 29 29 29 31 32 34 35 36 36 38 39 40 41 43 44 46 48 49 50 51 51 51 51 51 51 51 50 50 49 50 50 49 49 49 49 49 49 49 48 48 47 47
23 25 25 24 25 25 26 26 25 26 28 30 32 33 35 36 37 38 39 41 42 43 44 46 47 48 49 49 50 51 51 51 51 51 50 50 50 50 50 49 49 49 49 49 48 48 48 47 46
22 23 24 25 25 25 25 24 24 24 26 27 28 29 32 34 36 38 39 40 41 42 43 44 45 46 47 48 49 49 50 51 51 51 50 50 50 50 49 49 49 48 48 48 47 47 47 46 46

GEFSSGP_500_meanwind_096.txt.gz
Wind_Speed
56 55 55 54 53 53 52 49 45 42 40 39 38 36 34 32 30 28 25 23 21 20 19 18 17 15 14 13 12 11 10 9 9 8 7 7 6 5 4 3 3 3 4 4 5 5 6 7 7
56 56 56 56 56 55 52 49 45 43 42 40 39 37 35 33 31 29 26 24 23 21 20 18 17 16 14 13 12 11 11 10 9 9 8 7 6 5 4 3 3 3 4 5 5 6 6 7 8
56 56 57 57 58 56 52 49 46 45 43 42 40 39 37 35 33 30 28 26 24 23 21 19 18 16 15 14 13 12 11 11 10 9 8 7 6 5 4 4 4 4 5 5 6 6 7 7 8
57 57 58 58 58 55 53 50 48 46 45 44 42 40 39 36 34 31 29 27 26 24 23 21 19 17 16 15 13 12 12 11 10 9 9 8 7 6 5 4 4 4 5 5 6 7 7 8 9
59 58 58 58 56 55 54 51 49 48 47 45 44 42 40 38 36 33 31 29 27 26 24 22 20 19 18 16 15 13 12 12 11 10 9 8 7 6 6 5 5 5 6 6 7 7 8 9 10
59 59 59 58 54 54 54 53 51 49 48 47 45 43 42 39 37 35 33 31 29 27 26 24 22 20 19 17 16 15 13 12 11 11 10 9 8 7 7 6 6 6 7 7 8 8 9 10 11
59 58 58 56 54 54 54 53 52 51 49 48 47 45 43 41 39 37 35 32 31 29 27 25 24 22 20 19 17 16 15 14 12 11 11 10 9 8 8 7 7 7 7 8 9 9 10 11 12
59 57 57 57 55 53 52 53 52 52 51 50 48 47 45 43 41 39 36 34 32 30 28 26 25 23 22 20 19 17 16 15 14 13 12 11 10 9 9 8 8 8 9 9 10 11 11 12 13
58 58 57 56 55 52 52 53 53 53 53 51 50 48 46 45 42 40 38 36 34 31 30 28 26 24 23 22 21 19 18 16 15 14 13 12 11 11 11 10 10 10 11 11 12 12 13 14 15
59 59 55 54 54 54 52 53 53 53 53 53 51 49 47 46 44 42 40 37 35 33 31 29 27 26 24 23 22 21 19 18 17 16 15 14 14 13 13 13 12 12 12 13 13 14 15 15 16
57 56 55 56 54 54 53 53 54 53 53 53 52 51 49 47 45 44 42 40 38 36 34 32 29 27 26 25 24 23 21 20 19 18 17 17 16 16 15 15 15 14 14 15 15 16 16 17 18
55 55 56 56 55 54 54 53 54 55 53 53 53 52 50 48 47 45 44 42 40 38 36 34 32 30 28 27 26 25 24 23 22 21 20 19 18 18 18 17 17 17 17 17 17 18 19 19 20
54 54 56 57 56 55 54 53 54 55 55 54 54 54 52 50 48 47 46 44 42 40 38 36 34 32 30 29 28 28 27 26 24 23 22 22 21 21 20 20 20 20 19 19 20 20 21 21 22
54 55 56 57 56 55 55 54 54 55 55 55 55 55 53 52 50 48 47 45 43 42 40 38 36 34 33 32 31 31 30 28 27 26 25 25 24 24 23 23 23 22 22 22 22 22 23 23 24
50 53 55 56 56 54 54 54 54 54 55 55 55 55 55 53 52 50 48 47 45 44 43 41 39 37 36 35 34 34 33 32 31 30 29 28 28 27 27 26 26 25 25 25 25 25 25 26 26
46 51 54 55 55 54 54 54 53 54 55 56 55 54 54 54 53 51 50 48 47 45 44 43 42 40 39 38 37 37 36 35 34 33 33 32 31 30 30 29 29 28 27 27 28 28 28 28 28
44 47 50 52 54 54 54 54 54 54 54 55 56 55 54 53 53 52 51 50 48 47 45 44 43 43 42 40 40 40 39 39 38 37 36 35 35 34 33 33 32 31 30 30 30 30 30 30 31
41 44 46 49 51 53 53 53 53 53 53 54 55 56 55 54 52 52 51 50 49 48 47 46 45 44 44 44 43 42 42 42 41 40 40 39 38 38 37 36 36 35 34 34 33 33 33 33 33
39 42 44 45 48 50 51 51 53 53 54 54 54 55 55 54 52 51 51 50 50 49 47 46 46 46 46 46 45 44 44 44 44 44 44 43 42 41 40 39 39 38 37 37 36 36 36 36 36
38 39 41 43 44 47 49 50 51 53 53 53 54 54 54 54 54 53 51 50 49 49 48 48 47 46 47 47 47 46 46 47 47 46 46 45 45 45 44 42 41 41 40 40 39 39 39 38 39
35 36 38 40 42 44 46 47 50 51 51 52 52 52 53 54 54 53 52 51 50 50 50 49 49 48 49 49 49 48 48 49 49 48 48 47 47 46 45 44 44 44 43 42 42 41 41 41 41
32 34 36 38 40 42 45 45 47 49 50 50 50 50 50 51 53 54 53 53 52 51 51 51 51 50 50 50 50 50 50 50 50 49 49 49 49 48 47 47 47 46 46 45 44 44 43 43 43
29 32 33 35 37 39 41 43 44 46 46 46 48 49 49 50 50 52 53 53 53 53 53 52 52 52 51 50 51 50 51 51 51 51 50 50 50 51 50 49 48 48 47 47 47 46 46 45 45
26 29 30 32 34 38 39 40 41 42 43 44 45 46 47 48 49 49 50 52 52 53 53 53 52 52 52 52 51 51 52 52 52 53 52 52 52 51 51 52 51 50 50 49 48 48 48 47 47
25 26 28 30 32 35 35 38 39 39 41 43 44 45 46 46 47 47 48 49 50 51 52 52 52 51 52 52 52 53 52 52 52 53 53 54 54 52 52 52 52 51 51 50 50 50 49 49 49
24 25 26 27 29 31 33 35 36 37 38 40 42 44 44 45 44 45 46 47 48 49 50 50 51 51 51 52 52 52 52 52 53 53 53 53 53 53 53 52 52 52 52 52 52 52 52 51 51
24 23 23 24 27 28 30 31 32 34 35 36 38 40 41 42 41 42 44 45 46 47 48 48 49 50 49 49 50 50 51 52 53 53 53 52 52 53 53 53 53 53 52 52 52 52 51 51 52
22 21 21 21 23 25 26 27 28 31 32 33 35 36 37 38 38 39 41 42 44 45 46 47 47 48 49 49 49 50 51 51 52 52 52 52 51 51 52 52 53 52 52 52 52 52 52 52 51
20 19 20 21 22 23 24 25 26 28 30 32 33 33 34 35 36 37 38 39 40 42 43 44 45 46 47 48 48 48 49 50 50 51 51 51 51 51 51 52 52 52 52 52 52 52 51 50 50
18 17 18 19 20 22 23 24 24 25 27 29 31 31 32 33 34 35 36 37 37 39 40 42 43 44 44 45 46 46 47 47 49 49 50 51 51 51 51 51 52 51 51 51 51 51 50 49 48

GEFSSGP_500_meanwind_102.txt.gz
Wind_Speed
58 58 57 57 57 58 55 51 47 44 42 42 41 39 36 34 32 30 27 25 23 21 20 19 17 16 15 15 14 13 12 11 10 9 8 8 7 6 6 5 4 3 2 2 1 2 3 3 4
59 59 59 59 59 59 56 51 49 46 46 46 43 40 38 36 34 31 28 25 24 22 21 20 18 17 16 15 15 14 13 12 11 10 9 9 8 7 6 6 5 4 3 2 2 2 2 3 4
59 59 60 60 60 59 54 51 50 49 48 46 44 42 41 38 36 32 29 27 25 24 22 20 19 18 17 16 15 14 14 13 11 11 10 10 9 8 7 6 5 4 4 3 2 2 2 2 3
58 60 61 61 59 56 53 50 51 51 51 47 45 44 42 39 36 33 31 28 27 25 23 22 20 19 18 16 15 15 14 13 12 11 11 10 9 8 8 7 6 5 4 3 2 2 2 3 4
58 60 61 60 58 54 53 51 50 52 52 48 46 45 42 40 38 35 33 31 28 27 25 23 21 20 19 17 16 15 14 14 13 12 12 11 10 9 8 7 6 5 5 4 3 3 3 3 4
59 60 61 60 57 54 53 53 52 52 52 49 48 46 44 41 39 36 35 33 30 28 26 24 23 21 20 18 17 16 15 14 14 13 13 12 11 10 9 8 7 6 5 5 4 4 4 5 5
60 59 59 57 56 55 54 54 54 51 51 50 49 48 46 43 40 38 37 34 32 29 27 26 24 23 21 20 19 18 16 15 15 14 13 12 11 11 10 9 8 7 6 6 5 5 5 6 6
59 58 57 57 56 55 54 54 53 51 51 51 50 50 47 45 42 40 38 35 33 31 29 27 26 24 23 21 20 19 18 17 16 15 14 13 12 12 11 10 9 8 7 7 7 6 7 7 8
58 58 58 57 54 54 53 55 53 53 52 52 51 51 48 46 43 41 40 37 34 32 30 29 28 26 25 23 22 21 20 19 18 17 16 15 14 13 12 11 10 9 9 8 8 8 9 9 10
57 57 53 53 52 53 53 53 54 55 54 53 52 51 49 47 45 43 40 38 36 34 32 31 29 28 26 25 24 23 21 20 19 18 17 16 15 14 13 13 12 11 11 11 10 10 11 11 12
57 54 52 52 53 54 53 51 53 54 54 53 52 51 49 48 46 44 42 40 38 36 34 32 31 30 28 27 26 25 23 22 21 20 19 18 17 16 15 14 14 13 13 13 13 13 13 13 14
54 53 54 54 55 54 53 50 52 54 54 52 52 53 49 48 47 46 44 42 40 38 36 34 32 31 30 29 27 26 25 24 23 22 21 20 19 18 17 17 16 16 16 15 15 15 16 16 16
52 52 52 55 55 55 53 51 49 52 53 52 52 53 53 51 48 47 45 44 42 40 38 36 34 33 31 30 29 28 27 26 25 24 23 22 21 20 20 19 19 18 18 18 18 18 18 19 19
50 52 53 53 54 55 54 54 51 50 52 52 52 52 52 53 50 48 47 46 44 42 40 38 36 35 33 31 30 29 28 28 27 26 25 25 24 23 22 22 21 21 21 21 21 21 21 22 22
46 51 52 53 54 53 53 54 54 51 52 52 53 52 52 53 52 50 48 47 46 44 42 40 39 37 35 33 32 30 30 29 28 28 27 27 26 25 25 24 24 24 24 24 24 24 24 25 25
42 47 49 50 53 54 53 53 52 53 53 53 53 53 52 53 52 52 50 48 47 46 44 42 40 39 37 35 34 33 32 31 30 30 30 29 29 28 27 27 27 27 27 27 27 27 27 28 28
38 43 45 47 50 52 54 53 52 53 54 53 54 53 53 53 53 52 51 50 49 47 46 44 42 41 39 38 37 36 35 34 33 33 32 32 31 31 30 30 30 30 29 30 30 31 31 31 31
35 36 40 44 46 48 50 52 52 53 53 53 54 54 54 53 53 53 52 52 50 49 48 46 45 43 42 41 40 39 38 37 36 36 35 34 34 34 34 33 34 34 33 33 33 33 34 34 34
31 32 35 39 42 44 46 49 50 51 53 53 54 54 54 53 53 52 53 53 52 50 49 48 47 45 44 43 42 41 40 39 39 38 37 37 37 37 37 36 37 37 37 37 38 37 37 37 37
28 30 32 35 38 41 44 46 49 50 51 52 53 54 53 53 53 53 52 52 52 51 50 49 48 46 45 45 45 44 43 41 41 40 40 40 40 39 40 40 40 40 40 40 41 41 40 40 41
27 27 30 32 34 37 41 45 48 48 50 51 52 52 53 53 52 52 53 52 52 51 50 49 48 48 47 46 45 45 45 44 43 42 42 41 42 42 43 43 43 43 43 43 44 44 44 43 43
25 26 27 30 33 34 38 41 44 46 47 49 50 51 51 52 52 53 53 53 53 52 51 50 49 49 48 47 46 46 46 45 44 44 44 44 44 44 45 45 46 47 47 47 47 47 46 46 46
22 25 26 28 31 32 34 38 40 43 46 47 48 50 51 52 52 52 52 53 53 53 53 51 51 50 49 48 47 47 46 46 46 46 46 46 46 46 46 47 48 49 50 49 49 49 49 49 48
20 23 24 26 29 31 32 35 36 39 42 44 46 48 49 51 51 51 52 52 51 52 52 53 52 51 50 50 49 49 48 48 48 48 48 48 48 48 49 49 50 51 51 51 50 50 50 50 51
19 21 22 24 27 28 29 32 33 34 38 41 43 46 47 49 51 51 51 51 51 51 52 52 53 53 52 52 51 51 51 51 50 50 51 50 50 51 51 52 52 52 52 52 52 52 52 52 52
18 19 20 22 24 25 26 29 30 31 35 38 40 43 45 47 48 48 49 49 49 50 51 52 53 53 53 53 52 52 53 53 53 53 53 53 53 53 53 54 53 53 53 53 53 54 54 54 53
16 17 18 19 20 22 24 26 28 30 32 34 37 39 42 44 45 46 46 47 48 48 49 50 51 52 53 53 54 53 54 53 52 53 54 54 54 54 54 54 54 54 53 53 53 53 53 53 52
14 16 17 17 18 19 21 22 24 27 29 30 33 36 39 41 42 43 44 44 45 46 47 49 50 51 51 51 52 53 53 52 52 52 52 53 53 52 53 52 52 52 53 53 52 52 52 51 51
11 13 15 16 17 18 19 21 23 25 27 28 30 32 35 38 39 41 42 42 43 44 45 46 47 48 50 50 51 52 53 53 52 51 52 52 52 51 51 51 51 51 50 51 51 52 51 51 50
9 10 12 14 16 16 18 19 20 23 26 27 28 30 32 34 36 37 39 40 41 41 42 43 44 45 46 47 48 49 49 50 50 50 50 49 50 50 49 49 49 49 49 49 50 50 50 50 50

GEFSSGP_500_meanwind_108.txt.gz
Wind_Speed
57 58 59 60 62 65 63 58 54 50 48 46 44 44 42 40 38 35 32 29 26 24 23 20 19 17 17 16 15 14 13 12 12 11 11 11 10 9 9 8 8 7 6 6 5 4 3 2 2
57 58 59 61 64 64 62 57 53 51 48 47 47 46 43 41 38 36 32 30 28 26 24 22 20 18 17 16 16 15 14 14 13 12 12 11 11 10 9 9 9 8 7 7 6 5 4 3 3
57 59 60 63 64 62 58 54 51 50 50 50 49 47 45 41 38 35 33 31 29 27 25 23 21 19 18 17 16 16 15 15 14 13 13 12 12 11 10 10 9 9 8 7 6 6 5 4 4
56 58 61 64 62 58 55 53 52 51 52 51 51 49 46 42 39 36 34 32 30 28 26 24 22 21 19 18 17 17 16 15 15 14 13 13 13 12 11 11 10 9 9 8 7 6 6 5 5
56 58 61 62 60 56 54 55 54 53 53 52 51 50 47 43 41 39 35 33 31 29 27 25 24 22 21 19 18 18 17 16 16 15 14 14 13 13 12 12 11 10 9 9 8 7 7 6 6
57 58 60 60 58 56 55 55 55 54 54 53 52 51 49 45 43 40 37 35 33 31 29 27 25 23 22 21 20 19 18 17 17 16 15 15 14 14 13 12 11 11 10 9 8 8 8 7 7
56 57 57 56 56 56 55 55 56 54 54 54 53 52 51 48 45 43 40 37 35 33 30 28 26 25 23 22 21 20 19 18 18 17 16 16 16 15 14 13 13 12 11 10 9 9 8 8 8
54 55 56 54 55 56 55 55 56 55 54 55 55 54 52 48 45 44 42 39 37 34 31 29 27 26 25 23 22 21 20 19 18 18 17 17 16 16 15 15 14 13 12 11 11 10 9 9 9
53 54 55 53 53 54 55 56 56 57 56 56 56 54 52 50 46 44 43 41 38 35 32 30 29 27 26 25 23 22 21 20 19 19 18 18 17 17 16 16 15 14 13 13 12 11 10 10 10
53 53 52 53 53 54 56 56 56 57 57 56 55 54 53 52 49 46 43 41 39 36 33 31 30 28 27 26 25 24 22 22 21 20 20 19 18 18 17 17 16 15 15 14 13 13 12 12 12
51 51 49 51 54 54 56 56 55 55 56 57 55 54 53 52 50 48 45 43 40 37 35 33 32 30 28 27 26 25 24 23 22 22 21 20 20 19 19 18 18 17 16 15 15 15 14 14 14
48 49 49 49 53 53 54 55 55 54 54 55 55 53 53 52 50 49 47 44 41 38 36 35 33 31 30 29 28 27 26 25 24 24 23 22 21 21 20 20 19 19 18 17 17 17 17 16 16
44 47 46 48 51 53 53 54 55 53 53 53 53 54 53 52 50 50 47 46 44 40 38 37 35 33 31 30 30 29 28 27 26 25 25 24 23 22 22 22 21 21 20 20 19 19 19 19 19
43 43 45 46 49 51 53 54 55 53 54 52 52 52 53 52 51 49 48 46 45 43 40 38 36 34 33 32 31 30 29 28 27 27 26 25 25 24 24 23 23 23 23 22 22 21 21 21 21
41 40 44 46 46 50 51 53 54 52 54 52 51 51 51 51 50 49 48 47 46 44 42 40 37 36 35 34 34 32 30 29 29 29 28 27 26 26 26 26 26 25 25 25 24 24 24 23 23
37 37 39 43 44 47 50 49 51 53 53 52 51 51 50 50 49 49 48 47 47 46 44 42 40 39 38 36 36 34 33 31 31 31 30 29 28 28 28 28 28 27 27 27 27 26 26 26 26
36 37 37 38 42 44 47 47 48 51 52 51 49 50 51 50 50 49 48 48 48 47 45 45 42 41 40 39 38 37 35 34 33 32 31 31 30 29 29 29 29 29 29 29 29 29 28 28 28
32 35 34 35 39 41 43 45 47 49 49 50 49 48 49 50 50 48 47 47 48 47 45 46 45 42 42 41 40 38 37 36 34 34 33 33 32 31 31 31 31 31 31 31 31 31 31 31 31
26 30 31 32 35 38 40 40 43 49 47 47 49 48 48 48 48 48 47 47 47 47 46 44 45 44 43 42 41 40 39 38 37 36 35 35 34 33 33 34 34 33 33 32 32 33 34 34 34
22 27 29 29 32 34 39 40 41 45 46 45 47 49 48 48 47 47 48 49 48 46 47 46 45 46 47 46 44 42 41 40 38 38 37 37 36 36 36 36 35 35 35 35 36 36 37 37 37
20 23 26 27 29 31 34 38 39 41 45 46 46 47 47 47 46 46 47 47 48 49 48 47 46 46 46 46 45 44 43 42 41 40 40 39 37 37 38 38 38 38 38 37 37 38 39 40 41
18 22 24 25 26 28 31 34 38 40 41 44 45 46 47 47 47 46 47 47 48 48 49 49 48 48 47 47 47 46 45 44 43 42 42 40 40 39 39 39 39 39 39 39 40 40 40 41 42
17 20 22 24 26 26 27 31 33 37 40 42 45 45 45 46 47 48 48 48 48 49 49 50 50 49 48 48 47 46 45 44 43 43 42 41 41 41 41 41 41 41 41 41 42 42 43 44 44
15 17 19 22 24 25 25 28 29 32 35 38 41 44 44 44 45 47 48 49 48 49 50 50 51 50 49 49 48 47 46 45 44 44 44 43 43 43 43 44 43 43 43 43 44 45 46 47 47
13 14 15 18 21 22 23 25 26 29 32 35 37 40 43 45 46 47 48 49 50 49 50 50 50 51 51 50 49 49 48 48 47 46 45 45 45 45 45 46 46 46 46 47 47 47 48 48 49
11 12 13 14 16 18 20 21 22 25 29 31 34 37 39 41 44 46 48 49 50 50 50 51 51 50 51 50 50 49 50 49 49 49 48 48 48 48 48 48 48 49 49 49 49 49 49 49 49
9 10 10 11 13 15 18 19 19 21 27 31 33 35 37 40 41 44 47 48 50 51 51 51 52 52 52 52 52 51 51 51 51 51 51 50 49 49 49 50 50 50 50 51 50 50 50 51 50
8 8 9 10 11 12 14 17 18 18 22 27 32 35 36 39 41 43 46 47 48 49 51 51 51 51 51 52 53 53 53 53 52 51 52 52 52 51 51 52 52 52 51 50 51 51 52 51 51
6 8 8 9 11 12 13 16 18 19 20 23 28 32 34 37 39 42 45 46 47 48 49 51 51 51 51 51 51 52 53 53 52 52 52 52 52 52 52 52 51 51 50 50 50 50 50 50 50
5 5 6 7 9 11 12 13 16 19 21 21 24 27 30 33 36 39 42 44 46 47 48 48 50 51 51 50 50 50 50 51 51 51 52 52 51 51 51 50 50 50 50 50 49 50 49 49 50

GEFSSGP_500_meanwind_114.txt.gz
Wind_Speed
53 53 54 56 59 63 63 61 57 54 53 51 51 50 48 46 43 40 37 34 32 29 28 26 24 22 21 19 18 16 15 14 13 12 11 10 10 9 9 8 8 7 7 6 6 5 5 4 4
51 53 55 57 61 63 62 60 59 55 53 52 52 51 50 48 45 42 38 35 33 31 29 27 26 24 22 20 19 18 16 15 14 13 12 12 11 10 10 9 9 9 8 7 7 6 6 5 5
50 52 56 58 61 62 59 57 57 55 54 55 54 53 51 49 46 43 40 37 35 33 30 28 27 25 23 22 20 19 18 16 15 14 13 13 12 11 11 10 10 9 9 8 8 7 7 6 6
48 51 55 58 60 59 57 56 54 54 55 55 55 54 52 49 47 44 41 39 37 35 32 30 28 26 24 23 21 20 19 18 16 16 14 13 12 12 11 11 10 10 9 9 9 8 8 7 7
45 50 54 56 55 55 55 55 55 54 55 55 56 55 53 50 48 45 43 40 38 36 34 31 29 27 25 24 23 21 20 19 18 17 15 14 13 13 12 12 11 11 10 10 9 9 8 8 8
45 48 52 52 51 50 54 55 55 55 56 56 56 56 53 50 48 46 44 42 39 37 34 32 30 28 27 25 24 23 21 21 19 18 16 15 14 14 13 13 12 12 11 10 10 9 9 9 8
44 46 49 48 49 48 52 55 56 55 56 56 56 55 54 51 49 47 45 43 40 38 36 33 32 30 28 26 25 24 23 22 20 19 18 17 16 15 14 13 13 12 12 11 11 10 10 9 9
40 44 45 46 48 47 50 53 56 56 56 56 55 55 55 53 50 49 47 43 41 39 37 34 33 31 29 27 26 25 23 22 21 20 19 18 18 17 16 15 14 13 13 12 12 12 11 11 10
40 42 43 43 46 46 51 52 54 56 56 58 56 55 54 53 51 50 47 45 43 40 37 35 34 32 30 28 27 26 24 23 22 21 20 19 18 18 17 16 15 14 14 13 13 13 13 12 12
38 39 38 41 44 46 49 52 54 55 56 58 57 55 53 53 52 50 47 46 43 40 38 36 34 33 31 29 28 27 25 24 23 22 21 20 19 19 18 17 17 16 15 15 15 15 14 14 14
35 36 35 38 43 44 47 50 52 54 55 55 57 55 54 53 53 51 50 47 44 41 38 37 35 34 32 30 29 28 26 25 24 23 22 21 21 20 19 19 18 18 17 17 17 17 16 16 16
32 33 34 37 41 43 45 49 51 52 53 53 54 54 54 53 52 50 49 49 46 42 39 37 37 35 33 32 30 29 28 26 25 24 23 23 22 22 21 20 20 19 19 19 18 18 18 18 18
30 31 33 36 39 42 45 48 51 50 50 51 52 53 53 53 52 50 49 49 47 45 41 38 37 35 35 33 32 30 29 28 27 26 25 24 23 23 23 22 21 21 21 21 20 20 20 20 20
30 31 32 35 39 40 42 45 49 49 50 51 51 53 52 51 51 50 48 48 48 46 44 41 39 38 36 35 33 32 30 29 28 27 27 26 25 25 24 24 23 23 23 22 22 22 22 22 23
26 29 31 34 36 38 39 43 46 48 50 50 51 53 54 52 52 50 48 48 46 46 45 43 41 39 38 36 34 32 31 30 30 29 28 28 27 27 26 26 25 25 25 25 24 24 25 25 25
24 26 30 31 32 33 37 41 44 47 50 49 51 53 54 53 52 50 49 48 46 45 45 44 41 40 39 38 36 34 33 33 32 31 31 30 29 29 28 28 27 27 27 27 27 27 27 27 27
20 23 26 30 31 31 34 38 42 46 48 48 50 52 53 52 52 51 49 47 46 45 44 45 42 40 41 39 36 36 35 35 34 33 33 32 32 31 30 30 29 29 29 30 29 29 29 29 29
15 20 23 26 30 30 32 35 39 42 44 47 49 51 52 51 51 50 48 48 47 46 45 45 45 42 41 40 40 40 39 37 36 36 36 35 34 33 33 32 32 32 32 32 32 31 31 31 31
12 17 21 23 28 29 29 31 35 39 42 45 45 48 51 51 51 50 48 49 47 47 46 46 46 45 43 42 42 42 41 40 39 39 38 37 36 36 35 35 35 35 34 34 34 33 33 33 34
12 16 19 20 24 26 27 29 32 35 40 43 44 44 48 49 48 49 48 48 47 46 45 44 45 45 45 44 45 44 43 43 42 42 41 40 39 39 38 38 38 38 38 37 36 36 35 35 35
10 14 18 20 21 23 25 26 30 33 37 40 42 42 45 47 47 48 48 47 46 45 45 44 44 44 45 44 45 46 46 45 45 45 44 42 42 40 40 40 39 39 39 38 38 37 36 35 35
8 12 15 18 19 21 23 24 27 31 35 37 39 41 43 45 45 46 47 47 46 46 45 45 45 45 46 46 45 46 46 46 45 45 45 44 43 42 41 40 40 39 38 38 38 36 36 37 37
7 10 13 16 17 19 21 22 25 29 33 35 36 39 41 42 43 43 45 45 45 45 45 45 45 45 46 47 46 47 47 46 46 46 46 45 45 44 42 40 39 40 39 38 38 39 39 38 38
7 9 11 12 14 17 18 19 23 26 29 33 36 38 40 40 41 42 43 43 43 44 44 44 45 43 44 45 47 47 48 48 47 46 45 44 43 43 42 42 41 41 40 39 39 40 39 39 39
7 7 8 9 11 13 15 16 18 23 28 31 34 38 40 40 42 45 45 44 44 43 44 44 45 44 42 43 44 45 45 46 47 47 45 44 44 44 44 44 42 41 41 41 42 41 40 40 41
7 7 7 7 8 11 12 12 14 18 24 28 32 36 38 38 40 44 45 46 46 46 46 46 46 47 46 45 44 44 45 45 45 46 44 45 46 44 42 43 43 43 43 43 42 41 41 41 42
6 7 7 6 6 8 9 10 11 14 19 24 28 32 36 37 38 42 44 46 46 47 46 45 46 47 46 47 46 46 47 47 47 46 46 46 45 44 45 44 45 44 43 43 43 43 42 43 44
6 5 5 5 5 4 6 7 9 12 16 20 23 26 31 35 37 38 41 43 45 46 46 46 46 46 46 46 47 47 47 46 46 47 47 47 45 44 44 45 45 45 45 46 45 45 45 45 44
5 4 4 3 4 4 5 6 8 10 13 16 20 24 27 30 34 37 39 41 43 44 45 45 45 45 46 47 47 47 47 46 47 48 48 47 47 47 47 47 46 46 46 46 47 47 47 47 47
5 4 3 2 2 4 5 6 9 10 12 14 17 21 24 27 29 33 36 38 41 42 43 44 45 46 46 46 47 48 47 47 48 49 48 48 48 48 48 48 47 47 47 48 48 48 48 48 48

GEFSSGP_500_meanwind_120.txt.gz
Wind_Speed
52 53 53 55 57 60 59 55 53 52 51 50 49 48 47 47 46 45 44 40 38 36 34 31 29 27 26 24 23 21 20 19 18 17 16 15 14 13 12 11 9 9 8 7 6 5 5 5 4
53 54 55 57 60 61 59 56 56 55 54 52 51 50 49 49 48 47 44 42 40 38 36 33 31 29 27 26 25 23 22 21 20 19 17 16 15 14 13 12 10 10 9 8 8 7 6 6 5
53 53 55 58 60 60 58 57 57 56 56 55 53 53 52 51 49 48 46 44 42 40 38 35 33 31 29 28 26 25 23 22 21 20 19 17 16 15 14 13 11 11 10 9 9 8 7 7 6
51 52 54 57 59 58 56 56 57 57 57 56 55 55 54 52 50 49 47 46 44 42 39 37 35 32 31 29 28 26 25 23 22 21 20 19 18 16 15 14 13 12 11 10 10 9 9 8 8
48 49 52 55 56 56 56 56 56 56 57 56 56 57 55 54 52 51 49 47 46 44 41 39 36 34 32 31 29 28 26 25 23 22 21 20 19 18 16 15 14 13 12 11 11 10 10 9 9
44 47 50 52 51 53 53 54 56 56 57 57 57 57 55 55 53 52 51 49 48 46 44 41 38 36 34 32 30 29 27 26 25 24 22 21 20 19 18 16 15 14 13 12 12 11 11 10 10
41 45 47 48 48 50 48 51 55 55 56 57 57 57 56 56 55 54 53 51 49 48 46 43 40 37 35 33 32 30 28 27 26 25 24 23 21 20 19 18 16 15 14 13 13 12 12 11 11
38 41 42 44 44 47 47 50 53 55 56 56 57 56 56 57 56 55 54 53 51 49 47 45 42 39 37 35 32 31 29 28 28 26 25 24 23 22 21 19 18 17 16 15 14 14 13 13 12
35 38 38 39 41 43 46 48 51 52 54 56 57 55 55 56 57 57 56 55 54 52 49 47 43 41 38 36 34 32 30 29 29 28 26 25 24 23 22 21 19 18 17 16 16 15 15 14 14
32 34 34 36 39 41 43 46 49 51 53 54 56 56 55 56 58 58 56 55 54 52 50 47 44 41 39 37 35 33 32 31 30 29 28 26 25 25 24 23 21 20 19 18 18 17 17 16 16
27 28 29 33 35 38 41 42 44 47 49 51 53 54 55 55 58 58 57 55 54 52 50 47 45 43 41 38 37 35 34 32 31 30 29 28 27 26 25 24 23 22 21 20 20 19 18 18 18
24 25 28 31 32 35 37 38 39 42 44 48 52 54 55 56 57 57 58 58 55 53 51 48 46 44 43 40 37 36 35 34 32 31 30 29 28 27 26 25 24 23 23 22 21 21 20 20 20
21 22 24 28 31 32 33 36 37 39 41 46 51 53 53 55 57 58 59 56 55 53 51 48 46 44 43 41 39 38 36 35 34 32 31 30 29 28 27 27 26 25 24 24 23 23 22 22 22
18 18 20 24 28 28 30 32 35 35 39 43 48 51 53 51 55 58 59 55 55 54 53 51 48 46 44 42 40 39 38 36 36 34 33 32 31 30 29 28 27 26 26 25 25 24 24 24 23
15 15 17 21 25 26 28 29 32 34 37 42 46 49 51 51 54 57 59 56 56 53 52 51 49 47 46 44 41 40 40 39 37 36 35 33 33 32 31 30 29 28 27 27 26 26 26 26 26
13 13 12 17 21 25 26 26 29 33 37 41 44 46 49 50 53 55 56 57 56 54 53 51 49 48 47 45 43 43 42 41 40 38 37 36 35 34 33 32 31 31 30 30 29 28 28 28 28
11 12 11 14 19 23 25 24 26 30 35 39 42 45 47 50 52 53 53 56 56 54 52 50 49 49 49 47 46 44 44 42 42 40 38 37 36 35 35 34 33 33 32 32 31 31 31 30 30
9 10 10 13 17 21 23 23 25 28 34 38 40 42 46 48 51 53 53 51 51 53 52 49 50 49 49 47 48 46 46 44 43 42 40 39 38 38 37 36 35 35 34 34 34 34 33 33 33
6 7 9 12 15 19 20 21 24 27 32 36 38 41 45 47 49 51 51 50 48 50 51 49 50 49 49 48 47 46 46 45 44 43 42 41 40 40 39 38 37 36 36 36 36 36 35 36 36
4 4 7 11 14 16 18 20 22 25 29 34 36 39 42 45 46 47 48 48 47 48 48 47 47 47 48 47 47 47 46 45 45 44 44 44 43 42 42 40 39 39 38 38 38 37 37 37 38
3 5 8 12 13 14 16 18 19 22 26 31 33 36 39 43 44 45 46 47 46 46 45 44 44 44 45 44 46 47 47 45 46 46 46 45 44 44 44 42 42 41 40 40 40 40 40 40 40
5 7 9 10 11 13 15 15 17 20 24 28 31 33 37 39 43 43 43 45 45 44 44 44 41 41 44 45 43 42 44 44 45 45 45 46 46 46 46 44 44 43 42 42 42 42 42 42 41
7 8 9 10 11 12 12 13 15 19 21 25 29 31 33 35 39 42 44 44 45 44 41 43 40 40 43 46 44 42 43 43 44 47 48 48 48 47 47 46 45 46 45 45 45 45 44 43 42
9 9 9 10 11 11 11 11 13 16 19 22 25 28 30 32 34 37 39 41 42 42 39 39 39 38 42 45 45 44 45 44 44 46 48 49 49 50 49 48 48 48 48 48 47 46 44 44 43
10 10 10 10 10 10 9 9 9 11 14 18 22 25 26 28 29 32 34 36 39 40 40 38 37 37 39 42 45 45 45 45 44 45 47 50 51 51 50 50 50 50 50 48 48 47 46 45 45
9 8 9 10 10 11 9 8 8 8 10 13 17 21 22 24 25 29 32 34 37 38 39 40 37 36 37 40 42 44 45 44 45 47 48 49 50 51 52 53 52 51 50 49 49 47 46 44 43
9 9 9 9 10 10 8 8 8 9 9 10 14 18 20 21 22 25 28 31 33 34 35 37 38 39 39 39 40 43 45 45 44 46 47 49 51 51 51 51 50 50 50 51 50 48 45 44 44
9 9 9 9 10 10 9 7 7 8 8 8 10 15 18 21 22 24 27 29 31 33 34 35 37 39 40 40 42 44 45 45 44 44 45 46 47 49 51 49 48 48 48 49 49 47 46 45 44
9 8 7 7 8 9 8 6 5 6 7 8 10 14 17 18 21 23 24 27 29 32 34 35 36 37 39 40 41 43 44 45 45 44 44 46 46 46 47 47 47 47 47 46 46 46 46 46 45
9 8 7 7 7 7 6 5 5 6 7 8 10 13 16 17 20 22 23 24 28 30 33 35 37 37 39 40 42 43 43 44 44 44 44 44 45 45 46 47 46 48 48 47 45 45 44 45 45

GEFSSGP_500_meanwind_126.txt.gz
Wind_Speed
48 48 50 51 53 55 54 48 46 46 45 45 45 44 42 41 40 42 42 40 37 36 35 35 34 33 31 29 28 26 24 21 20 18 17 17 16 15 14 13 12 11 10 9 9 8 7 6 6
49 50 52 54 56 56 52 48 48 49 49 49 49 49 47 44 43 44 44 41 39 37 36 36 36 35 33 31 30 28 26 24 22 20 19 18 17 17 16 15 14 13 12 11 10 9 8 8 7
50 51 53 56 57 55 52 50 51 52 52 52 52 52 50 48 46 45 45 43 41 39 37 38 38 37 35 33 32 30 28 26 24 22 21 20 19 18 17 16 15 14 13 12 11 11 10 9 9
50 51 54 56 56 54 52 52 54 54 54 54 54 54 53 51 50 49 48 45 43 41 39 39 40 39 37 35 34 32 30 28 26 24 23 22 21 20 19 18 17 16 15 14 13 12 11 11 10
49 51 53 55 55 53 52 52 53 55 55 54 55 55 55 54 52 51 50 48 45 44 42 41 41 41 39 38 35 34 32 30 28 26 25 23 22 21 20 19 18 18 17 15 14 13 13 12 11
48 50 52 52 52 53 52 51 53 55 55 56 57 57 57 57 54 54 52 49 48 46 44 43 42 42 41 40 37 36 34 32 30 29 27 25 24 23 22 21 20 19 18 17 15 14 14 13 12
46 48 49 49 49 50 51 52 53 56 57 57 58 59 59 59 57 55 54 52 50 49 46 44 44 44 43 42 39 37 36 34 32 31 29 27 25 24 23 22 21 20 19 18 17 16 15 14 13
43 45 46 45 45 46 48 52 53 54 56 57 58 60 61 59 59 57 56 54 51 51 49 46 46 45 44 43 42 40 37 36 34 32 30 29 27 26 24 23 22 21 20 19 18 17 16 15 15
40 41 41 40 42 44 46 50 52 53 54 56 58 59 60 60 59 57 56 56 54 53 51 49 48 47 46 45 43 41 39 37 36 34 32 30 29 27 26 24 24 22 21 20 19 19 18 17 17
36 37 36 38 40 40 43 46 48 51 52 54 55 56 57 59 59 58 57 57 57 56 53 51 50 49 47 46 45 43 41 39 37 35 33 32 30 28 27 26 25 23 22 22 21 20 20 19 18
33 34 35 36 38 38 40 43 46 50 50 51 52 50 54 55 58 58 56 57 58 57 56 52 50 50 49 47 46 45 42 40 38 37 35 33 31 30 28 27 26 25 24 23 22 22 21 20 20
31 32 33 33 34 36 37 40 44 48 48 49 50 50 52 53 56 57 55 56 57 58 57 55 52 51 51 49 48 46 44 42 40 38 36 34 33 31 30 29 28 26 25 25 24 23 23 22 22
28 28 29 29 30 30 32 36 39 42 42 46 48 49 51 52 54 55 55 56 58 58 58 56 53 53 51 50 49 48 46 44 42 40 38 36 34 33 32 30 29 28 27 26 25 25 24 24 24
25 25 24 24 23 24 26 29 33 32 37 41 44 45 47 49 50 55 57 57 57 58 59 57 54 52 52 50 50 48 46 44 43 41 39 38 37 35 34 32 31 30 29 28 27 27 26 26 25
20 20 19 19 20 20 22 23 24 27 33 37 39 42 45 47 49 51 54 56 56 57 57 57 56 54 54 53 51 49 47 46 44 42 41 39 38 37 36 34 33 32 31 30 29 29 28 27 27
17 17 16 16 17 17 18 18 19 22 28 32 36 38 41 42 45 48 52 54 55 56 56 55 55 54 54 52 51 50 49 47 45 43 42 40 40 38 37 36 35 34 33 32 31 30 29 29 29
15 15 14 14 14 16 17 16 19 19 23 28 31 33 35 39 42 44 47 51 52 53 55 54 53 54 54 52 51 51 49 48 46 44 43 42 41 40 39 38 37 36 35 34 33 33 32 32 31
13 12 11 11 12 14 14 14 15 16 19 23 26 29 31 35 38 39 42 48 51 51 53 56 53 52 53 52 51 50 50 49 48 46 45 44 42 41 41 40 39 38 37 36 35 34 34 34 34
10 9 7 7 8 9 9 11 11 13 17 20 22 25 27 29 33 36 40 44 49 50 51 55 53 51 52 52 50 50 49 48 48 48 46 45 42 42 42 41 40 40 39 37 37 36 36 36 36
8 7 6 4 5 6 7 7 7 9 14 17 19 21 23 25 29 34 38 42 46 49 50 53 52 51 52 51 49 50 49 47 47 47 46 44 43 43 43 42 41 40 40 39 39 39 38 38 37
5 4 3 3 4 4 4 4 5 7 10 12 14 17 20 23 27 30 35 40 43 45 47 49 52 51 50 48 46 46 46 46 45 46 46 45 44 44 44 44 43 42 42 42 41 41 41 40 40
2 3 1 1 1 1 1 1 4 7 8 10 11 14 16 20 22 28 32 35 39 41 43 45 46 47 48 48 45 43 45 45 45 45 45 45 44 45 46 45 44 44 44 43 44 44 43 43 43
1 2 2 2 2 2 2 1 4 7 8 8 9 12 14 17 18 23 28 32 34 37 39 38 39 42 44 45 43 41 43 44 44 45 45 46 45 45 45 45 45 44 45 46 46 45 45 45 45
3 3 4 4 3 3 3 4 6 6 6 7 9 12 12 14 16 19 24 29 31 34 35 35 36 38 40 42 41 40 41 43 42 44 43 43 45 45 45 46 46 47 47 48 48 47 48 48 47
4 5 5 5 4 4 4 4 5 5 5 6 7 10 12 13 14 16 20 24 26 29 30 31 32 34 37 38 38 38 38 41 42 44 45 45 46 46 46 46 47 48 48 48 48 49 49 49 49
4 4 6 5 4 5 4 5 4 4 4 5 6 7 9 10 11 13 17 22 24 25 26 25 26 29 33 35 35 36 36 39 42 43 46 46 46 46 47 47 47 49 50 50 50 51 51 51 51
4 4 5 5 5 5 5 5 5 5 5 6 5 5 8 9 9 11 13 17 19 20 22 24 24 26 30 32 32 34 35 36 38 41 43 43 44 45 46 47 49 50 52 52 53 53 53 53 52
5 4 4 5 4 5 6 6 5 5 4 4 4 5 5 7 7 8 9 12 15 16 17 19 22 24 25 27 27 28 31 33 34 35 38 40 41 43 44 46 47 48 50 52 53 54 54 53 53
4 4 4 4 4 4 4 4 4 4 4 4 5 4 4 4 4 6 7 10 12 14 16 17 18 21 22 24 26 27 28 30 32 33 35 38 40 40 42 43 44 45 47 50 52 53 53 54 54
4 4 3 3 3 3 3 4 4 3 3 4 4 3 3 2 4 6 8 9 10 12 14 16 18 20 21 23 25 26 29 31 32 33 35 38 41 42 44 44 45 47 49 49 50 51 51 51 51

GEFSSGP_500_meanwind_132.txt.gz
Wind_Speed
43 43 44 45 47 48 47 43 41 40 40 41 41 40 40 40 39 39 38 35 34 34 32 31 31 32 32 31 29 27 25 24 22 21 19 18 16 15 14 14 13 13 13 12 11 10 9 9 9
45 45 46 47 49 49 47 45 44 44 44 44 44 43 43 43 42 41 39 37 36 35 33 32 32 33 33 33 31 30 28 27 25 24 22 20 19 17 16 15 14 14 14 13 13 12 11 10 10
46 47 48 49 50 48 47 47 47 47 47 46 46 46 46 46 45 44 41 40 39 37 35 35 34 34 34 34 34 32 31 29 28 26 25 23 21 20 18 17 17 16 15 15 14 13 12 12 11
47 48 49 51 50 48 48 49 49 49 50 50 49 49 49 49 48 47 45 43 41 39 38 36 35 35 35 35 35 35 33 32 30 28 27 25 24 22 20 19 18 17 17 17 16 15 14 13 12
47 48 50 51 51 49 50 51 52 53 52 52 52 52 52 51 50 49 47 46 44 42 40 38 37 36 36 36 36 36 35 34 32 31 29 27 26 24 23 21 20 19 18 18 17 17 16 15 14
46 48 50 51 51 50 50 53 54 54 55 54 54 54 53 53 52 51 50 49 48 45 43 41 39 38 37 38 37 37 37 36 34 33 31 29 28 26 25 23 22 21 20 19 19 18 17 16 15
46 48 49 50 50 49 51 53 55 55 56 55 56 55 54 54 53 52 51 51 51 49 46 44 42 41 40 40 39 39 38 38 36 35 34 32 30 28 27 25 23 22 21 21 20 19 19 18 17
44 46 47 47 47 47 49 52 54 55 56 54 56 56 55 54 54 54 54 53 53 52 49 46 45 43 42 42 41 41 40 39 38 37 36 34 32 30 29 27 25 24 23 22 21 21 20 19 18
41 42 42 42 44 45 47 50 52 54 55 55 55 56 55 55 56 57 56 55 55 54 52 49 47 46 44 44 43 42 41 40 39 39 37 35 34 32 30 29 27 26 25 24 23 22 21 20 19
37 37 37 39 42 43 45 47 49 52 53 54 55 56 56 56 57 58 58 57 56 56 55 52 50 48 47 46 45 44 43 42 41 40 38 37 35 34 32 30 29 27 26 25 24 23 23 22 21
33 34 35 37 39 42 44 45 46 49 50 52 55 55 57 57 58 59 60 59 58 57 56 54 53 51 49 48 47 46 45 44 42 41 40 38 37 35 34 32 30 29 27 26 25 24 24 23 23
30 31 33 34 36 39 42 43 44 47 47 49 53 55 57 58 59 60 60 61 60 59 58 57 55 54 52 50 49 49 48 46 44 42 41 40 38 37 35 33 32 30 28 28 27 26 25 25 24
28 29 31 32 33 36 38 40 41 41 43 46 50 53 55 58 59 61 60 61 62 62 61 59 57 55 55 53 51 49 48 48 46 44 42 41 39 38 37 35 33 32 31 30 29 28 27 26 26
26 27 27 28 30 32 34 35 37 37 40 43 47 50 53 55 58 61 62 62 63 62 62 61 60 58 56 55 55 52 50 49 48 46 44 42 41 39 38 37 35 34 33 32 31 30 29 29 28
23 24 24 26 28 28 29 30 31 34 36 38 42 46 48 51 55 59 61 61 62 62 64 63 62 61 58 56 56 54 52 51 49 48 45 43 42 41 40 39 38 36 35 34 33 33 32 31 30
21 21 21 22 23 24 25 24 25 28 29 30 34 39 41 44 48 52 56 59 60 61 62 63 62 61 60 58 56 54 53 51 50 48 46 45 44 42 42 41 39 39 38 37 35 35 34 33 32
17 17 17 17 18 19 19 17 19 22 24 24 26 30 31 35 42 45 50 53 56 58 58 59 59 59 60 59 57 56 54 52 51 50 49 47 46 45 44 42 41 40 39 38 37 37 36 35 34
14 14 13 13 13 13 13 13 12 17 18 19 20 23 25 29 35 40 44 47 51 54 55 56 56 58 59 59 57 57 55 53 52 51 50 48 47 46 45 44 42 41 40 39 39 38 37 37 36
12 11 10 10 10 10 9 9 10 13 14 15 17 19 21 24 30 35 39 43 47 50 53 54 54 55 56 57 58 57 56 54 53 52 51 49 47 46 45 43 42 42 41 40 40 39 38 38 38
9 7 6 6 7 7 6 8 9 9 12 12 14 17 18 21 25 29 35 40 43 45 47 50 51 52 54 53 55 55 55 54 53 51 49 48 49 47 45 45 44 43 43 43 42 41 41 41 41
5 5 4 3 3 4 5 4 4 5 7 8 10 13 14 16 21 25 30 34 36 39 41 43 47 49 50 50 52 54 54 54 52 50 49 48 48 48 46 45 46 46 45 45 44 43 43 42 43
2 2 1 0 1 2 3 3 3 2 2 5 7 10 12 15 18 21 26 28 30 33 36 37 39 43 45 48 49 50 51 50 50 49 49 48 49 48 47 46 46 47 47 46 46 45 45 45 45
1 1 2 1 1 1 2 3 3 3 1 2 5 8 11 14 16 19 21 22 24 28 32 33 35 40 41 44 46 47 47 47 48 49 49 49 48 48 47 46 46 47 46 47 46 45 46 47 47
2 2 1 2 2 2 2 3 3 3 3 3 4 6 9 11 14 15 16 18 19 22 27 29 30 35 37 40 43 45 44 44 45 45 46 47 47 47 48 47 47 47 47 46 46 45 45 46 46
3 2 2 3 3 4 4 4 4 5 6 5 5 6 8 9 9 12 14 17 18 19 22 24 24 28 33 36 37 40 41 40 41 41 43 45 45 45 47 46 47 47 47 47 47 46 46 45 45
4 3 2 3 3 5 6 6 6 5 6 5 6 6 6 7 9 9 10 13 14 17 19 20 20 22 26 31 33 36 38 37 37 38 39 40 41 43 44 45 46 47 47 46 45 46 47 47 48
4 3 2 3 4 5 6 6 7 7 6 5 6 7 7 7 7 8 8 11 12 14 16 18 19 20 22 25 29 33 34 35 34 35 36 38 40 41 43 42 44 45 45 45 45 46 47 47 48
4 3 4 4 5 5 6 6 7 7 7 6 5 5 5 6 8 9 7 8 8 11 13 16 19 19 19 21 24 28 29 29 30 32 34 36 37 38 41 42 42 45 47 48 47 48 47 47 48
5 5 5 5 5 5 6 7 6 6 7 7 7 5 5 6 7 6 5 6 7 9 10 12 15 15 16 17 20 22 24 25 26 28 29 31 33 34 37 38 40 41 43 43 44 44 45 46 48
5 6 6 5 5 5 5 7 7 7 7 8 7 6 6 7 6 5 5 5 6 8 9 9 10 12 14 15 18 20 22 24 24 26 27 28 31 33 34 35 36 37 39 41 42 42 43 45 46

GEFSSGP_500_meanwind_138.txt.gz
Wind_Speed
40 40 40 41 42 43 42 40 38 37 37 36 36 36 36 36 36 36 35 32 31 32 32 31 30 29 29 29 29 28 27 25 23 21 18 17 15 13 12 11 11 11 10 10 9 9 9 9 8
41 41 42 43 45 45 43 41 41 40 40 39 39 39 38 38 38 37 36 35 33 33 33 33 32 30 30 30 30 30 29 28 26 24 22 20 18 16 15 14 13 12 12 11 11 11 11 10 9
42 43 44 45 46 45 44 43 43 43 43 42 42 42 42 41 40 39 38 37 36 35 35 35 34 33 32 31 31 31 31 30 29 27 25 23 21 19 17 16 15 14 14 13 12 12 12 11 11
43 44 46 47 47 45 46 46 46 46 46 45 45 45 45 43 43 41 40 40 39 37 37 36 35 34 33 33 32 32 32 31 31 30 28 26 24 21 20 19 18 17 16 15 14 13 13 13 13
44 45 47 47 46 46 47 48 48 48 49 48 48 48 47 46 46 45 43 42 42 40 39 38 37 36 36 34 34 33 33 32 32 31 31 29 27 24 22 21 20 19 18 17 16 15 15 15 14
44 45 47 47 46 47 48 49 50 51 51 51 51 51 50 49 48 48 47 45 45 44 43 41 39 39 38 37 36 35 34 33 33 33 32 31 29 27 25 23 22 21 20 19 18 17 16 16 16
45 45 46 46 47 48 49 51 52 53 53 53 54 54 52 52 51 51 50 49 48 47 46 44 42 41 40 39 38 37 36 34 34 33 33 32 32 30 28 26 24 23 22 21 20 19 18 18 17
44 45 45 46 46 47 50 52 54 54 55 55 57 57 55 54 54 54 52 51 51 49 48 47 45 44 43 42 40 39 39 37 36 34 34 33 33 32 31 28 27 25 24 23 21 21 20 19 19
43 44 44 44 46 47 49 51 53 55 55 56 57 58 56 57 57 57 55 55 54 53 51 50 48 47 45 45 44 42 41 40 38 37 35 34 34 33 32 31 29 27 26 25 23 22 21 21 20
41 42 42 43 45 46 47 49 50 52 53 54 56 57 58 58 59 59 58 57 56 55 54 52 51 50 48 47 46 45 43 42 40 39 38 36 35 34 33 32 31 30 28 27 25 23 23 22 22
39 39 40 41 43 43 44 46 48 49 50 51 53 54 56 57 59 60 59 59 57 57 56 55 54 52 51 50 49 48 46 44 43 41 39 38 37 35 35 34 33 32 31 29 27 25 25 24 24
37 37 37 38 39 40 40 41 43 45 45 49 51 53 54 56 57 59 59 60 60 59 58 57 56 55 54 53 52 50 48 46 45 43 41 40 39 37 36 36 34 33 31 30 29 28 27 26 25
33 33 34 34 35 35 36 37 39 40 43 46 48 51 52 54 56 58 59 61 61 61 60 59 58 57 56 55 54 52 51 49 48 45 44 41 40 39 38 37 36 34 33 32 31 31 29 28 27
31 31 31 32 33 34 35 36 38 38 42 44 47 49 50 52 53 55 57 60 63 62 61 61 60 59 58 57 55 54 53 51 49 48 45 43 42 41 39 39 38 36 35 33 33 32 31 31 29
29 29 29 30 32 34 35 35 36 37 39 42 44 47 48 49 51 53 53 57 61 62 62 62 61 61 60 58 57 56 55 54 52 50 48 46 44 43 42 41 39 37 36 36 35 35 34 32 31
27 27 27 28 30 32 33 32 32 34 36 38 40 42 44 45 47 50 51 54 58 61 62 63 63 62 61 60 59 57 57 56 54 51 50 48 46 45 43 42 40 39 38 38 37 36 35 34 33
23 24 25 27 29 30 31 29 29 31 32 32 34 36 37 39 41 44 46 49 54 58 60 61 63 64 63 63 62 60 59 57 56 54 51 49 47 46 44 43 42 41 41 40 38 37 37 36 36
21 22 23 24 25 26 26 24 24 26 26 26 26 28 31 34 36 39 41 43 47 54 57 59 61 63 64 64 64 63 61 59 57 55 53 50 49 47 45 43 43 43 42 40 39 38 38 39 38
19 19 20 20 20 21 21 19 19 22 24 22 23 23 25 28 31 34 35 37 40 46 51 53 55 56 59 62 63 63 62 60 58 56 54 53 51 49 47 45 44 43 42 41 40 41 40 41 41
15 15 15 15 16 16 15 15 16 19 20 19 19 20 21 24 26 27 30 32 35 38 43 47 50 51 53 57 59 61 62 61 59 57 56 54 53 51 48 46 44 43 43 42 41 42 42 41 42
11 11 11 11 11 12 12 12 13 15 17 17 17 17 18 19 20 23 26 29 32 35 38 42 46 48 50 52 54 57 60 59 58 57 56 54 53 52 50 49 47 46 45 44 43 44 44 43 43
8 8 8 8 9 10 11 11 10 12 13 14 14 14 15 14 15 18 22 25 28 31 36 38 40 43 46 49 50 53 55 56 56 55 55 54 54 53 51 50 48 46 45 45 46 45 44 44 45
5 5 5 6 8 8 9 10 9 10 11 12 11 11 12 12 13 13 16 20 23 26 30 34 35 37 40 44 46 48 50 51 51 53 54 54 53 53 52 51 49 49 48 47 47 46 46 47 48
3 3 4 5 6 7 7 9 8 9 10 10 10 10 9 10 12 11 12 14 17 21 26 30 32 31 34 39 41 42 43 45 48 51 53 53 54 54 53 52 51 50 50 48 47 48 49 51 51
2 2 3 5 6 7 7 7 7 7 8 8 8 7 7 8 8 7 8 9 12 17 21 24 27 29 31 34 36 37 39 41 43 47 50 52 53 53 51 51 51 51 50 51 51 51 50 50 50
2 2 4 5 6 6 6 7 7 7 7 7 7 6 5 4 4 3 4 4 8 13 14 16 21 26 28 29 32 34 37 39 40 43 47 49 51 50 49 49 50 50 50 50 50 50 49 49 50
2 2 4 5 6 6 5 6 7 8 7 7 5 5 6 5 3 1 1 3 5 8 9 11 15 23 25 25 27 30 33 36 37 39 42 45 47 48 48 47 47 49 50 50 50 49 50 51 51
1 2 3 4 5 5 5 6 6 6 6 8 8 7 7 6 6 5 4 3 3 4 7 10 12 15 19 22 23 24 28 30 32 34 36 38 42 46 47 46 45 45 46 47 48 49 50 50 50
0 1 3 4 5 5 6 6 5 5 6 7 8 7 6 6 6 6 6 4 3 3 3 5 8 11 14 17 19 20 23 25 28 29 32 34 36 39 40 41 42 44 46 46 46 47 48 48 49
2 2 3 3 4 5 6 6 5 6 7 8 9 8 7 7 8 7 7 6 4 3 2 3 4 8 10 13 16 18 21 23 25 27 28 30 33 36 37 38 40 43 44 45 46 47 46 47 47

GEFSSGP_500_meanwind_144.txt.gz
Wind_Speed
36 36 36 37 38 39 38 36 34 33 33 32 32 31 31 32 32 32 30 29 28 28 27 26 25 25 25 24 24 25 25 25 24 23 22 20 18 16 14 13 12 11 10 9 9 8 7 7 7
37 37 37 38 39 39 39 37 36 35 35 35 35 34 34 34 34 34 33 31 31 30 30 29 28 27 26 26 25 26 26 26 26 25 24 23 21 19 17 15 14 13 12 11 10 10 9 8 8
37 37 38 39 40 40 39 38 38 37 37 37 37 37 37 36 36 36 35 34 33 33 32 31 31 30 29 28 27 27 27 27 27 27 26 25 24 22 20 18 17 16 14 13 12 11 11 10 10
38 38 39 40 40 39 40 40 39 39 39 39 39 40 39 38 38 38 37 37 36 36 35 34 34 33 32 31 30 29 29 29 28 28 28 27 27 25 23 21 19 18 17 16 14 13 12 12 11
40 40 40 40 40 40 41 42 41 41 41 41 41 42 41 41 40 40 39 39 38 38 38 37 36 36 35 33 32 32 31 30 30 29 29 29 28 28 26 24 22 20 19 18 16 15 14 14 13
41 41 42 41 41 41 42 44 44 44 44 43 44 44 44 43 43 43 42 42 41 41 40 39 39 38 37 36 35 34 33 33 32 31 30 30 30 29 29 27 25 23 22 20 19 18 16 15 15
41 41 42 42 42 43 43 45 45 46 46 46 46 47 46 46 46 45 45 44 44 44 43 42 42 41 40 39 38 37 36 35 34 33 32 31 31 30 30 29 27 26 24 23 21 20 19 18 17
40 40 41 41 42 43 44 45 46 47 47 48 49 49 48 48 48 48 47 47 47 47 46 45 45 44 43 42 41 40 38 37 36 35 34 33 32 32 32 31 30 28 26 25 24 23 21 20 19
39 40 40 40 41 42 44 45 46 47 48 48 49 50 51 51 51 51 50 50 50 49 49 48 48 47 46 45 44 43 41 40 39 37 36 36 34 33 33 32 31 30 28 27 26 25 24 22 21
39 39 39 40 41 41 42 45 46 47 48 48 50 51 52 53 53 53 53 53 52 52 52 52 52 51 50 48 47 46 43 42 41 40 38 37 37 36 35 33 32 31 31 29 28 28 26 25 24
38 38 39 39 40 41 41 42 44 46 46 48 49 51 52 53 53 54 54 54 54 55 55 56 55 54 53 52 50 49 47 45 43 42 41 40 39 38 37 35 34 33 32 31 30 29 28 27 26
36 37 37 37 38 39 40 41 42 43 44 46 48 49 50 52 53 53 54 54 55 55 57 58 58 58 56 55 53 52 50 48 46 45 43 42 41 40 40 38 36 35 34 33 32 31 30 30 28
34 34 34 35 36 37 38 38 39 39 41 43 45 47 48 51 52 53 53 54 55 55 57 57 60 60 59 58 56 55 53 51 49 48 46 45 44 43 42 41 39 38 36 34 33 33 32 32 31
31 32 33 34 35 35 35 36 37 38 40 41 43 45 46 48 51 51 52 53 54 55 57 58 59 60 60 60 59 57 55 54 53 51 49 48 47 45 44 43 42 40 39 37 35 34 34 33 33
30 31 32 33 33 33 33 33 35 36 38 39 41 43 44 46 48 49 50 52 54 55 56 57 58 60 61 61 61 60 58 56 55 54 52 50 49 48 46 45 44 43 41 40 38 37 36 35 34
29 30 30 30 31 31 31 31 32 34 36 37 39 40 42 43 45 46 47 49 52 53 55 56 57 59 60 62 62 62 61 59 58 56 54 52 51 50 49 47 46 45 44 42 40 39 37 36 35
27 27 28 28 28 29 29 29 30 31 32 33 35 37 39 40 41 42 43 45 48 50 52 54 56 57 60 62 63 63 62 61 60 58 57 54 54 52 51 49 48 48 46 44 41 40 39 38 37
23 24 25 25 25 26 27 26 27 28 29 30 31 32 33 34 36 37 39 40 43 47 49 51 54 55 57 59 62 62 62 61 61 59 59 57 56 55 54 52 50 49 47 45 44 43 42 41 40
19 20 21 21 22 22 23 23 24 26 26 27 27 28 29 29 31 33 35 38 40 42 44 47 50 53 55 57 59 60 61 61 61 60 59 58 56 56 55 54 52 50 49 46 45 45 44 42 42
16 16 16 17 18 18 18 18 20 21 22 23 24 25 26 27 28 31 32 33 35 37 39 42 46 49 52 55 56 57 59 60 59 58 58 57 56 56 55 54 54 52 51 49 47 47 45 44 43
13 13 13 13 14 15 15 16 17 18 19 20 21 22 24 25 27 29 30 31 33 34 36 37 39 43 46 50 53 55 57 58 59 58 58 57 56 56 55 53 53 54 53 51 49 49 47 46 45
10 10 10 10 11 12 13 14 14 14 15 17 19 20 21 23 24 26 27 28 29 30 31 33 35 38 41 47 50 51 53 54 55 55 56 55 55 55 55 55 54 53 53 53 51 50 48 47 46
7 7 7 8 9 10 11 12 11 12 12 13 16 18 18 19 20 23 23 23 24 25 27 30 32 35 37 40 43 45 48 51 51 52 53 54 54 55 55 55 53 52 53 53 51 51 51 49 47
6 6 6 7 8 8 8 9 9 10 11 11 13 14 15 16 16 17 17 18 19 21 23 25 27 29 32 35 39 41 43 46 48 48 48 50 53 53 53 54 53 52 53 54 53 52 52 51 49
4 4 4 4 5 5 5 6 8 9 10 10 10 10 11 11 11 12 12 12 13 14 16 18 21 24 27 30 34 37 40 42 44 44 43 45 48 50 50 51 52 53 53 55 55 54 53 52 52
3 3 3 3 2 3 4 6 7 8 9 10 10 9 8 9 8 8 8 7 8 10 12 14 17 20 22 25 28 31 34 36 38 39 39 41 43 46 47 49 51 52 53 54 55 56 54 54 54
2 1 1 0 1 2 4 6 6 6 8 9 8 8 7 7 7 7 7 6 5 5 7 10 13 15 17 20 23 26 28 30 32 34 35 37 40 42 44 45 47 50 52 53 54 54 54 54 54
2 2 2 2 2 3 4 5 5 5 7 7 8 8 7 7 7 6 6 6 3 3 3 5 8 11 14 16 20 23 25 26 28 30 32 34 36 39 41 43 44 47 50 51 53 53 53 53 54
3 2 2 2 3 4 5 6 6 6 7 8 8 7 8 8 8 8 7 7 4 2 1 2 6 9 11 13 16 20 22 23 24 25 27 29 33 37 39 41 43 44 47 49 50 52 53 53 53
2 2 2 2 3 4 5 6 7 7 7 8 8 8 8 9 9 9 8 8 7 4 1 1 2 4 6 9 11 14 18 20 21 22 24 26 29 33 36 39 40 41 43 45 47 50 51 52 52

GEFSSGP_500_meanwind_150.txt.gz
Wind_Speed
34 34 34 35 35 36 35 33 33 32 32 31 30 30 30 31 31 31 28 26 26 25 24 23 23 23 22 22 22 22 22 21 21 21 20 19 18 17 16 15 14 13 13 12 12 11 11 10 10
35 35 36 36 37 36 36 35 34 33 33 32 32 33 33 33 33 32 31 29 29 28 27 27 26 25 25 24 24 24 23 23 23 22 22 22 21 20 19 18 16 15 14 14 14 13 12 12 11
36 36 37 37 38 37 36 36 36 35 34 33 33 34 35 35 34 34 33 32 32 31 30 30 29 28 28 27 26 25 25 25 24 24 24 23 23 23 22 21 20 18 17 16 15 15 14 13 13
38 38 38 38 38 38 38 38 38 37 35 35 35 36 37 36 36 36 35 35 35 34 33 33 32 31 31 30 29 28 27 27 26 26 25 25 25 24 24 23 22 21 20 18 17 16 16 15 15
40 40 40 39 39 39 40 40 40 39 38 37 37 38 38 38 38 37 37 37 37 36 36 35 35 34 33 33 32 31 30 29 28 28 27 27 27 27 26 25 25 24 23 21 20 18 18 17 17
41 41 41 40 40 40 41 41 41 41 40 40 40 40 39 40 40 39 39 39 39 39 38 37 37 37 36 35 35 34 33 32 31 30 29 29 29 29 28 28 27 26 25 24 23 21 20 19 19
42 42 42 41 41 41 42 41 42 42 41 41 41 41 41 41 41 40 41 42 42 42 41 41 40 39 39 38 37 37 36 35 34 33 32 31 31 30 30 29 29 28 27 26 26 24 22 21 21
42 42 42 41 42 42 42 42 42 42 42 42 42 43 43 42 42 42 43 44 44 44 44 43 43 42 41 41 40 40 39 38 37 36 34 33 32 31 32 31 30 29 29 28 27 27 25 24 23
41 42 41 41 41 42 42 43 43 43 44 44 44 44 44 44 44 44 44 45 45 46 46 45 45 44 44 43 43 43 42 41 40 39 37 36 35 34 33 33 32 32 31 30 29 29 28 26 25
41 41 41 41 41 42 41 42 42 43 43 44 45 45 45 46 46 46 46 46 47 47 48 48 47 47 46 46 45 45 45 44 43 42 41 40 39 37 35 34 34 34 33 31 31 31 30 29 28
40 40 41 41 41 41 41 41 42 42 43 44 45 45 46 47 47 47 48 48 48 48 49 49 50 50 49 49 49 48 48 47 46 45 44 43 41 40 39 37 36 35 34 33 32 32 31 31 31
39 39 40 40 40 40 40 41 41 41 42 43 44 45 45 46 46 47 48 49 49 49 50 50 51 52 52 51 51 50 50 49 48 48 47 45 44 43 41 40 38 37 36 35 34 34 33 33 33
38 38 38 39 39 39 39 39 40 40 41 42 42 43 43 44 45 46 47 48 49 50 50 51 51 53 53 53 53 52 51 51 51 50 49 48 47 46 44 42 40 39 38 36 35 35 35 34 34
35 36 37 37 37 37 37 38 38 38 39 40 40 41 42 43 44 45 46 47 48 49 51 51 52 53 54 54 55 55 54 54 53 53 52 50 50 49 47 45 43 42 40 39 37 36 36 36 35
32 33 34 35 35 35 36 36 36 36 37 38 39 40 41 42 43 44 45 46 47 47 49 50 52 53 54 55 56 56 56 55 55 54 54 53 52 51 50 48 46 45 44 42 41 39 38 38 38
29 31 32 33 34 34 35 34 35 35 36 36 37 39 40 41 42 43 44 45 46 47 48 49 51 53 54 55 55 56 57 57 57 57 56 55 55 54 53 51 49 47 46 45 44 42 40 40 40
28 28 29 30 31 32 33 32 33 33 34 35 36 37 38 39 39 40 41 43 43 44 45 46 48 50 51 54 55 56 57 58 58 58 58 58 57 57 56 54 52 51 49 47 46 45 43 42 41
25 26 27 27 28 28 29 30 31 31 33 34 35 35 36 36 36 37 38 39 41 41 41 42 44 46 48 50 52 54 56 57 57 58 58 59 59 58 57 56 54 53 52 50 49 48 47 45 44
22 23 24 25 25 26 26 28 29 30 32 32 33 33 33 33 34 35 36 37 38 39 39 40 42 43 44 46 48 50 52 54 56 56 58 59 59 58 58 57 56 55 53 51 50 50 49 47 47
19 20 21 22 22 23 24 26 27 28 29 29 30 30 31 32 32 32 34 35 36 37 38 39 40 42 44 45 45 46 48 50 52 54 56 57 58 58 57 57 56 56 54 52 52 51 50 49 48
16 17 18 19 20 21 22 24 24 25 26 26 27 28 29 29 30 31 32 34 35 36 36 37 38 39 41 42 44 46 46 47 49 51 52 55 56 56 56 56 56 56 55 53 53 52 50 49 49
13 14 15 16 17 18 19 20 20 22 23 24 25 26 28 29 29 30 31 31 33 34 34 35 36 37 39 39 40 43 44 45 46 48 48 51 53 55 56 56 56 56 56 54 53 52 52 51 51
11 11 12 13 14 15 16 17 18 19 20 22 23 24 26 27 28 28 29 29 30 30 31 32 34 35 37 38 39 40 41 42 44 45 47 48 51 53 55 55 55 54 54 53 52 50 51 52 52
10 10 10 11 12 13 13 14 15 15 16 18 19 21 23 24 25 26 27 27 27 27 27 29 30 30 31 33 35 36 38 39 41 43 44 46 47 49 51 52 54 52 52 53 53 50 50 51 52
9 9 9 9 10 10 10 12 12 13 15 16 18 19 20 22 22 23 24 24 24 24 24 25 26 27 28 29 31 32 34 35 37 39 41 43 44 45 47 49 50 50 50 50 51 50 49 49 51
7 7 7 7 8 8 9 11 11 12 14 15 16 17 18 18 18 19 19 19 19 20 20 21 21 22 23 24 25 27 28 28 30 33 35 38 40 40 40 42 46 47 48 48 49 50 50 50 50
5 5 5 5 7 8 9 10 11 11 12 14 14 15 15 15 15 15 15 14 14 15 16 17 17 18 18 19 20 22 24 25 27 30 32 33 34 35 36 38 41 42 44 44 46 48 49 50 50
4 3 4 5 6 8 8 9 10 10 11 12 12 12 12 11 11 11 11 9 10 12 13 14 14 13 13 14 16 18 20 21 23 26 28 30 31 32 32 35 38 40 41 42 43 45 47 48 48
4 4 5 6 7 8 9 9 10 11 11 11 10 10 9 7 8 8 7 8 9 10 11 11 11 10 10 11 12 13 14 16 18 21 23 26 28 30 31 32 36 38 40 41 43 44 46 47 48
5 5 5 7 8 8 9 9 10 11 11 10 8 7 7 6 6 7 7 8 10 10 10 10 10 10 9 10 10 11 12 14 16 18 20 23 25 27 29 32 35 36 38 39 41 43 44 46 48

GEFSSGP_500_meanwind_156.txt.gz
Wind_Speed
34 33 32 32 32 33 31 29 28 28 29 28 28 28 28 27 27 27 24 22 21 21 20 20 19 19 19 19 19 19 18 18 18 18 17 17 16 16 16 15 14 13 12 12 12 12 12 12 12
36 35 35 34 34 32 31 30 30 29 30 29 29 29 29 29 29 28 26 25 24 23 23 23 22 22 22 21 21 21 21 20 20 20 20 19 19 18 17 17 16 16 15 14 14 13 13 13 13
38 38 37 36 35 32 30 30 30 31 31 31 31 31 30 30 30 29 28 27 26 26 26 26 25 25 24 24 23 23 23 23 23 22 22 22 21 20 20 19 19 18 17 17 16 16 15 15 14
40 39 39 38 36 34 32 32 32 32 33 33 32 32 31 31 31 31 30 29 29 29 28 28 28 28 27 27 26 25 25 25 25 25 24 24 23 23 22 22 21 21 20 19 18 18 18 17 17
41 40 40 39 37 35 34 34 34 34 33 33 33 33 33 32 33 32 32 32 31 31 31 31 31 30 30 29 29 28 28 27 27 26 26 26 26 25 24 24 24 23 22 22 21 20 20 19 18
41 41 41 39 37 36 36 36 36 35 35 35 35 35 34 34 35 35 34 34 34 34 34 33 33 33 33 32 31 31 30 30 29 29 28 28 28 27 27 26 26 25 25 25 24 23 23 22 21
42 42 41 39 38 37 37 37 37 36 37 37 36 36 36 37 37 37 37 36 36 36 36 36 36 36 35 35 34 34 33 33 32 31 31 30 30 29 29 29 28 27 26 27 27 26 25 24 24
42 42 41 40 39 38 38 38 38 38 38 38 38 37 37 38 38 39 39 39 38 38 39 39 38 38 38 38 38 37 36 36 35 35 34 33 33 32 32 31 30 29 29 28 29 28 27 26 25
41 41 41 40 39 39 39 39 39 39 39 39 39 39 38 39 39 40 40 40 40 41 41 41 41 41 41 41 40 40 39 39 39 38 37 37 36 35 34 33 32 32 31 31 30 30 30 29 27
41 41 40 40 40 40 40 40 39 39 39 40 40 40 40 40 40 41 41 42 42 42 43 43 43 43 43 43 43 43 43 42 42 41 41 40 39 38 37 36 35 34 34 34 32 31 31 30 30
41 41 40 40 40 39 39 39 40 40 40 40 40 40 41 41 41 41 42 42 43 43 43 44 44 44 44 45 45 45 45 45 45 45 44 43 42 41 40 39 38 37 37 36 35 34 33 32 32
40 40 40 39 39 39 39 39 39 39 40 40 40 40 41 41 41 41 41 41 42 42 43 44 44 45 46 46 46 46 46 46 46 46 46 46 45 44 43 42 41 40 39 38 38 36 35 34 33
38 37 38 38 38 38 38 39 39 39 39 40 40 40 40 40 40 40 40 40 41 42 43 45 46 46 47 47 47 47 48 48 48 47 47 48 47 47 46 45 44 43 42 41 40 38 37 37 36
35 36 36 36 36 36 37 37 38 38 39 39 39 39 39 39 39 40 41 41 42 42 43 45 45 46 47 48 49 49 49 49 50 50 51 50 49 48 48 47 46 45 45 44 43 41 40 39 38
34 35 35 35 35 35 36 37 37 37 38 38 38 38 38 39 40 40 41 41 42 42 43 44 45 46 47 47 48 50 50 50 51 51 51 51 51 51 50 49 49 48 47 46 45 44 43 42 41
31 33 34 34 34 34 35 35 36 36 37 37 37 37 38 39 39 40 40 41 42 42 42 42 44 45 46 46 47 49 50 51 51 52 52 53 53 53 52 52 52 51 50 48 47 46 45 44 44
29 30 31 32 33 33 33 34 34 35 35 35 36 36 37 37 38 39 40 40 40 41 41 41 42 42 43 44 45 46 48 49 50 51 52 53 54 55 54 54 53 53 52 51 50 49 48 47 46
27 28 29 30 30 31 31 31 32 33 34 34 34 35 35 35 36 37 38 39 39 39 40 40 41 42 43 43 44 45 45 46 47 49 50 52 53 54 55 55 55 55 54 53 52 51 50 49 48
25 26 27 29 29 29 29 29 30 31 32 32 32 33 33 34 35 35 36 37 37 38 39 40 41 42 43 44 44 44 45 46 47 48 49 50 52 53 53 53 54 55 55 55 53 53 53 51 50
23 24 25 27 27 27 27 28 28 28 29 30 31 32 32 32 32 33 34 35 36 36 36 37 39 41 42 43 43 44 45 46 46 47 48 49 51 52 53 53 54 54 55 55 54 54 53 52 51
20 21 22 22 23 24 25 26 26 26 27 28 29 29 30 31 31 32 33 34 35 35 36 36 37 39 40 41 42 42 43 44 45 46 47 49 50 51 53 54 54 53 53 53 54 53 52 52 52
17 17 18 19 20 21 22 23 23 24 25 25 26 27 28 28 30 30 31 32 32 33 33 34 35 35 37 38 39 41 41 42 43 44 45 46 48 49 51 52 53 54 53 53 52 52 53 54 54
14 15 16 17 18 19 19 20 20 20 22 22 24 25 25 26 27 28 28 29 29 29 30 31 32 33 33 35 36 38 39 40 41 42 43 44 45 47 48 49 50 52 52 52 52 52 52 53 54
12 13 14 15 16 16 16 17 17 17 18 19 21 21 22 23 24 26 26 27 28 29 30 30 31 31 32 33 34 35 37 39 40 41 42 43 43 43 45 47 48 49 50 50 51 52 52 51 51
10 10 11 12 14 14 14 15 14 14 15 16 18 19 19 21 22 23 24 26 26 26 26 27 28 29 30 31 32 33 34 36 37 39 40 40 41 42 42 43 45 47 48 49 50 51 51 51 51
8 8 9 11 12 12 13 13 12 13 14 14 15 16 18 18 19 21 22 23 23 24 24 25 26 27 27 28 28 29 30 31 32 35 37 37 38 38 39 40 42 44 46 47 48 49 50 50 51
7 7 8 9 10 11 11 11 11 11 11 12 13 14 15 16 17 18 18 18 19 20 21 22 22 23 23 24 25 26 27 29 30 31 33 34 35 35 36 37 39 41 44 46 46 46 47 48 50
5 6 7 8 9 10 10 10 10 11 12 13 14 14 15 16 17 16 16 16 16 16 17 18 19 20 21 22 22 22 24 26 28 28 28 29 31 32 32 33 36 38 40 43 45 46 47 47 48
5 6 7 8 9 9 9 9 10 10 11 12 13 13 14 14 14 15 14 14 13 14 15 16 17 18 18 19 19 19 21 21 22 24 25 26 27 29 30 31 32 34 36 39 41 43 45 47 48
5 6 7 8 8 9 9 8 10 10 11 11 12 12 12 12 12 12 13 12 13 13 14 15 15 15 16 16 17 17 17 17 18 20 22 24 26 27 29 30 30 31 33 36 38 40 44 46 46

GEFSSGP_500_meanwind_162.txt.gz
Wind_Speed
34 33 33 33 34 33 32 30 29 28 29 29 28 27 25 24 24 23 22 21 21 20 20 19 19 18 18 17 17 17 17 16 16 15 15 14 13 13 12 12 11 11 10 9 9 9 9 9 9
36 36 35 35 35 33 31 30 30 30 30 30 30 28 27 26 25 24 23 23 22 22 21 21 20 20 19 19 18 19 18 18 18 18 17 17 16 16 15 14 14 13 13 12 12 11 11 11 11
39 38 38 37 36 33 31 31 31 31 31 31 30 30 29 28 27 26 26 25 24 24 23 23 23 22 22 21 21 20 20 20 20 20 19 19 19 18 18 17 16 16 15 15 14 14 13 13 13
41 41 40 39 37 34 34 33 32 32 32 31 31 31 30 29 29 28 27 27 26 26 26 26 25 25 24 24 23 23 22 22 22 22 22 21 21 20 20 20 19 18 18 17 17 17 16 16 15
43 42 42 40 38 35 35 34 34 33 33 32 31 31 30 31 30 30 30 29 28 28 28 28 28 28 27 27 26 26 25 25 24 24 24 23 23 23 22 22 22 21 21 20 20 20 19 18 18
44 43 43 40 38 36 35 35 34 34 33 32 32 32 31 32 32 32 32 31 31 30 31 31 30 30 29 30 29 29 29 28 27 26 26 26 25 25 24 24 24 24 23 23 23 22 22 22 21
44 43 42 40 39 38 36 36 36 35 34 33 33 32 32 32 33 33 33 33 33 33 33 33 33 33 32 32 32 32 32 31 30 30 29 28 28 27 27 27 27 26 26 26 25 25 24 24 23
43 43 43 41 40 39 38 37 37 37 36 35 34 34 33 33 33 34 35 35 35 35 35 35 35 35 35 35 35 35 34 34 33 33 33 32 31 30 30 29 29 29 29 29 28 28 27 26 26
43 43 42 41 41 40 39 38 38 38 37 37 36 35 35 35 35 35 35 36 36 36 36 37 37 38 38 37 37 37 37 37 36 36 36 35 34 34 33 32 32 32 32 31 31 30 30 29 28
42 42 41 41 41 41 40 40 39 39 38 38 38 37 37 36 36 36 36 37 37 38 38 38 38 39 39 39 39 39 39 39 38 38 38 37 37 37 36 36 35 35 34 34 33 33 33 32 31
41 41 40 41 41 41 41 40 39 39 39 39 38 38 38 38 38 37 38 38 38 39 39 39 39 39 39 39 40 40 40 40 40 40 40 40 39 39 39 39 39 38 37 37 36 36 35 35 34
40 40 40 40 40 40 40 40 39 39 39 39 39 39 39 38 38 38 38 38 39 39 39 40 40 40 40 40 40 41 41 41 42 42 42 42 42 42 41 42 41 41 41 40 40 39 38 37 37
38 39 39 39 39 39 39 39 39 38 38 38 39 39 39 40 39 39 39 38 39 40 40 41 41 41 41 42 42 42 42 43 43 44 44 44 44 44 43 44 44 44 44 43 43 42 41 40 40
36 37 37 38 38 38 38 38 38 38 38 38 38 38 39 40 39 39 39 39 39 40 41 41 42 42 42 43 44 44 45 45 45 46 46 46 46 46 45 45 46 46 46 46 45 45 45 44 43
34 35 36 36 37 37 37 37 37 37 37 38 38 38 38 38 38 39 39 40 40 40 41 42 42 43 43 44 44 45 46 47 47 47 47 47 47 47 47 47 47 47 47 48 48 47 46 46 45
32 33 34 35 35 35 36 36 36 37 37 37 37 37 38 38 38 38 39 39 40 40 40 41 42 42 42 42 43 44 44 45 46 47 47 48 48 48 48 48 48 47 48 48 49 49 49 48 47
31 32 32 33 34 34 35 35 35 36 36 36 37 37 37 38 38 38 38 38 39 39 39 40 41 41 42 42 43 43 44 44 45 45 46 47 48 48 49 49 49 48 49 49 49 50 50 50 49
28 29 30 32 32 33 34 34 34 35 35 36 36 37 37 37 37 37 37 38 38 39 40 40 41 41 42 43 43 43 43 43 44 45 45 45 46 47 48 49 49 50 50 50 50 50 51 51 51
25 27 29 30 31 32 33 34 33 34 34 34 35 35 36 36 36 37 37 38 38 38 39 39 40 41 41 42 42 42 42 43 44 44 45 45 45 46 47 48 49 50 51 51 51 51 51 52 52
23 25 26 28 29 31 32 32 33 33 33 33 33 34 34 35 36 37 37 38 38 38 38 38 39 40 40 40 41 41 42 43 43 44 45 46 46 47 47 48 49 50 51 52 52 53 53 52 52
22 22 24 26 27 29 30 31 31 32 32 32 32 33 33 34 35 36 36 36 36 37 37 37 38 38 39 39 40 41 42 43 44 45 46 46 47 47 48 48 49 50 50 51 52 53 54 53 53
19 21 23 24 25 26 28 30 29 30 31 32 32 32 33 33 33 34 34 35 34 34 35 35 36 36 37 38 39 40 41 42 44 45 46 47 47 47 47 47 48 49 49 50 50 51 52 53 52
17 19 20 22 23 24 25 27 27 29 29 30 31 31 32 32 32 32 32 33 33 32 32 33 33 33 34 36 37 38 39 40 41 42 43 43 44 44 45 45 46 47 48 48 49 50 50 52 52
14 16 18 19 20 21 22 24 23 25 27 29 29 30 30 31 31 31 30 30 31 31 32 32 32 32 33 34 35 37 38 39 39 39 41 42 43 43 43 43 45 45 46 47 48 49 49 51 52
11 13 15 16 18 19 20 21 21 22 24 26 27 28 29 29 29 28 28 28 29 30 31 31 31 31 32 33 34 35 36 37 38 38 39 40 41 42 42 43 44 44 44 45 45 46 47 48 50
10 11 12 14 16 16 17 18 18 19 20 22 23 24 25 25 25 26 26 26 27 28 29 31 31 31 32 33 34 34 34 34 35 34 35 36 38 39 41 42 43 43 43 43 43 43 43 44 46
10 10 11 13 14 14 15 16 16 17 19 19 20 21 22 23 23 24 25 25 26 27 29 30 30 31 31 32 31 31 31 32 32 32 33 34 35 37 38 39 40 41 40 40 40 42 42 43 45
10 10 11 11 12 13 13 14 15 16 17 18 19 20 21 22 23 23 24 24 26 27 28 29 29 29 29 29 29 28 29 30 31 31 31 33 33 33 33 35 37 38 39 40 40 41 42 43 45
9 10 10 11 12 13 13 13 14 15 16 18 19 20 21 21 21 22 23 24 24 25 26 26 27 27 27 27 26 26 26 27 28 28 29 30 30 31 32 33 34 36 37 38 39 40 41 42 44
9 10 10 11 12 13 14 13 13 14 15 16 18 19 19 20 20 21 21 22 22 22 22 23 23 24 24 24 24 24 24 25 26 26 27 27 27 28 29 31 32 33 33 35 36 38 39 40 41

GEFSSGP_500_meanwind_168.txt.gz
Wind_Speed
38 37 36 35 35 35 34 33 31 29 28 28 28 27 26 25 24 23 22 21 20 20 19 19 18 18 17 17 17 16 16 15 15 14 14 14 13 13 12 12 11 11 10 10 10 9 9 9 9
40 39 38 37 37 36 34 32 31 30 30 30 29 28 28 26 25 24 23 22 21 21 20 20 19 19 18 18 18 18 17 17 17 16 16 16 15 15 14 14 14 13 13 12 12 12 12 11 11
42 41 40 39 38 35 34 32 31 30 30 30 30 30 29 28 27 26 25 24 23 22 22 21 21 21 20 20 20 19 19 19 19 19 18 18 17 17 17 16 16 16 15 15 14 14 14 14 13
43 42 42 41 39 37 35 32 31 31 31 31 30 30 30 29 28 27 26 25 25 24 23 23 23 23 23 22 22 22 22 21 21 21 21 20 20 20 19 19 18 18 18 17 17 17 16 16 16
43 44 43 42 40 38 36 33 32 31 31 31 30 30 30 29 28 28 27 26 26 25 25 25 24 25 25 24 24 24 24 23 23 23 23 23 22 22 22 21 21 21 20 20 20 20 19 19 18
43 44 44 42 41 39 38 36 34 33 32 32 31 30 30 29 29 28 28 27 26 26 26 26 26 26 27 27 26 26 26 25 25 25 25 25 25 24 24 24 23 23 23 23 22 22 22 22 21
43 43 43 42 41 40 39 37 36 35 34 33 32 32 31 30 29 29 28 28 28 27 27 28 28 28 28 28 28 28 28 28 28 28 28 28 27 27 27 27 26 26 25 25 25 25 25 24 24
43 43 43 42 41 40 39 38 37 36 35 34 33 33 32 31 31 30 30 30 30 29 29 29 29 30 29 29 29 30 30 30 30 30 30 30 30 30 29 29 29 29 29 28 28 28 28 27 27
43 43 42 41 40 39 39 38 37 36 36 35 34 33 33 32 31 31 32 32 32 32 31 31 31 31 31 31 31 31 31 31 31 31 31 31 32 31 31 31 31 31 31 31 31 31 31 30 30
42 42 41 40 40 39 38 38 37 36 37 37 36 35 34 33 33 33 33 33 33 33 33 33 32 32 32 32 32 32 32 32 32 33 33 33 34 34 34 33 33 33 33 33 33 33 33 33 32
39 40 40 40 39 38 38 38 37 37 37 37 36 36 35 34 35 35 34 34 34 34 34 34 33 33 33 33 34 34 34 34 34 35 35 35 35 35 35 35 35 35 35 36 36 35 35 35 35
37 38 38 39 38 38 38 38 38 38 37 36 37 37 36 36 35 35 35 35 35 35 35 35 36 35 35 35 35 35 36 36 37 37 37 37 37 37 37 37 37 37 38 38 38 38 38 38 37
36 36 37 37 38 38 37 38 37 37 37 36 36 37 36 36 36 36 36 36 35 36 36 37 37 37 37 37 37 37 37 38 38 39 40 40 39 39 40 40 40 40 40 40 41 41 41 41 41
33 34 35 36 36 36 36 36 36 36 36 36 36 36 37 36 36 36 36 36 36 37 37 37 37 37 37 38 38 37 37 38 39 40 41 41 42 42 43 43 43 43 43 43 43 43 43 43 44
32 32 33 34 34 34 34 35 35 35 35 35 35 36 36 36 36 36 36 36 36 36 37 37 37 37 37 36 37 37 38 38 39 39 40 41 42 43 43 44 44 44 44 44 43 44 44 44 45
29 30 30 31 31 32 33 34 34 34 34 34 34 35 35 35 35 35 35 36 36 36 36 36 37 37 37 37 37 37 38 39 39 39 40 41 41 42 42 43 43 44 44 44 44 44 45 45 46
28 29 29 29 30 30 32 32 33 33 34 34 34 34 35 35 35 35 35 35 35 35 36 36 36 37 37 37 37 37 38 38 39 40 40 41 42 42 43 43 43 43 43 44 44 45 45 45 45
26 27 27 27 28 29 30 31 32 32 33 33 34 34 34 34 35 35 35 34 35 35 36 36 36 36 36 36 37 37 38 39 40 40 41 42 43 43 43 42 42 42 43 43 44 45 46 46 46
23 24 25 26 26 27 29 29 30 31 32 32 32 33 34 35 35 35 34 34 34 34 35 36 37 37 37 37 37 38 38 38 38 39 39 40 42 42 42 42 43 43 44 44 45 45 46 46 47
21 22 23 24 25 26 27 28 29 30 31 32 32 33 33 33 34 34 34 34 34 34 35 35 36 37 37 37 37 37 37 37 37 37 38 39 40 41 42 43 44 45 45 45 46 47 47 47 47
18 19 20 22 23 24 25 26 27 28 30 30 31 32 33 33 33 34 34 34 34 34 34 34 35 36 37 37 36 37 37 36 36 37 38 38 39 39 40 42 44 45 46 46 46 47 48 49 49
14 15 17 19 21 22 24 25 25 26 28 29 30 31 32 33 34 35 34 34 34 34 34 34 35 35 35 36 36 36 36 37 37 38 38 38 39 40 40 41 43 45 46 47 48 48 48 48 49
10 12 14 16 18 20 22 24 23 25 26 27 28 30 31 32 33 33 33 33 33 34 34 34 34 34 35 35 35 36 36 36 37 37 37 38 38 39 40 41 43 44 45 46 47 47 48 48 48
9 10 12 13 15 17 18 21 22 23 24 25 26 28 30 31 32 32 33 33 33 33 33 33 33 33 34 34 35 35 35 35 36 37 37 37 38 38 39 41 41 42 43 44 45 46 46 47 47
8 9 11 12 14 15 16 18 19 20 22 24 25 27 28 29 30 31 32 32 32 32 32 32 32 32 32 33 33 34 34 35 35 36 36 36 37 38 39 40 40 40 41 43 45 45 45 46 47
8 9 10 11 12 13 14 15 16 18 20 22 24 25 27 28 29 30 30 31 32 31 32 31 31 31 31 30 30 31 32 33 34 34 35 36 36 38 39 39 39 39 40 42 43 44 44 45 46
8 9 10 11 11 12 13 14 15 17 18 20 21 23 24 25 26 28 29 29 30 29 30 30 30 30 30 29 29 30 31 32 33 33 33 34 35 36 37 37 38 39 39 40 41 42 43 44 45
8 9 10 11 12 12 12 12 14 15 17 18 19 20 21 23 24 26 27 27 27 28 28 29 29 30 30 30 30 30 31 31 32 33 33 33 33 34 34 35 36 37 37 38 38 39 40 42 43
8 10 11 11 12 12 12 12 13 14 15 16 18 19 20 21 22 24 25 26 26 27 27 28 29 29 29 30 30 31 31 31 31 32 32 32 33 33 33 33 34 35 35 36 37 37 39 40 41
9 10 11 11 11 12 14 14 14 14 15 17 18 19 20 20 21 22 23 24 25 26 27 27 28 28 28 28 28 29 30 30 30 30 31 32 33 33 33 33 33 33 34 36 36 37 37 38 38

GEFSSGP_500_meanwind_174.txt.gz
Wind_Speed
41 40 39 39 39 39 37 34 32 31 30 29 27 26 26 26 26 25 23 21 20 20 19 18 18 17 17 17 17 16 16 15 14 14 13 13 13 12 12 12 12 12 12 11 11 11 11 11 11
42 42 42 41 41 40 38 34 33 33 31 31 30 29 29 28 27 26 24 23 22 22 21 20 19 19 19 19 18 18 17 17 16 16 15 15 15 14 14 14 14 14 14 14 13 13 13 13 13
43 43 43 43 43 41 37 35 34 33 33 33 32 31 31 30 28 26 26 25 24 23 23 22 21 21 21 21 20 20 19 19 19 18 18 17 17 17 16 16 16 16 16 16 15 15 14 15 15
44 44 44 44 43 40 38 37 36 34 34 34 33 33 32 30 29 28 27 26 25 25 24 23 23 23 23 22 22 22 22 21 21 21 20 20 20 19 19 19 19 19 18 18 18 18 17 17 17
44 44 45 45 43 41 40 38 35 35 36 34 33 33 33 31 30 29 29 28 27 26 26 25 24 24 24 24 23 24 24 24 24 23 23 22 22 22 21 21 21 21 21 21 21 20 20 20 20
42 43 44 44 42 41 41 38 37 38 36 35 34 33 32 31 31 30 29 29 28 27 27 26 25 25 25 25 25 25 25 25 25 25 25 25 25 24 24 24 23 23 23 23 23 23 22 22 22
40 41 41 42 41 41 41 39 39 38 37 36 35 33 32 31 31 30 30 30 29 28 28 27 27 26 26 26 25 26 26 26 27 27 27 26 26 26 26 26 26 25 25 25 25 25 25 25 25
38 40 40 40 40 40 40 39 39 39 38 36 35 34 33 31 31 32 31 31 30 30 29 28 28 28 27 27 27 27 27 27 27 27 27 27 27 27 27 27 27 27 27 27 27 27 27 27 27
38 38 39 38 38 39 40 40 40 39 38 36 35 34 32 32 32 32 32 32 31 31 30 30 30 30 29 29 28 28 28 28 28 28 28 28 28 28 28 28 29 29 29 29 29 29 29 29 29
37 37 37 38 38 38 39 39 39 39 38 36 35 34 33 33 33 33 33 33 32 32 31 31 31 31 31 31 31 31 31 31 30 30 30 30 30 30 30 30 30 31 31 32 32 32 32 32 32
35 35 35 37 38 38 37 38 38 39 38 37 35 34 33 34 33 33 34 33 33 32 32 32 32 32 33 33 33 33 33 33 33 32 32 32 32 32 32 32 32 32 32 33 33 34 34 35 35
33 35 36 35 36 37 36 36 37 38 38 37 35 34 34 34 34 34 34 34 34 34 33 33 33 33 33 33 33 34 34 34 34 34 34 34 33 33 34 34 34 34 34 34 34 35 36 36 36
31 32 33 34 35 36 36 35 35 36 36 36 35 35 34 34 34 34 34 34 34 34 34 34 33 33 33 33 34 34 34 34 34 34 35 35 35 35 35 35 35 35 35 35 36 36 37 37 38
28 30 31 32 33 34 34 33 33 34 34 34 34 34 34 33 33 33 33 33 34 34 33 33 33 33 33 33 34 34 33 33 33 34 34 35 36 35 36 36 36 36 36 36 37 37 38 38 39
26 29 30 31 32 33 33 32 32 32 32 33 34 34 34 33 33 32 32 32 32 32 32 32 33 33 33 33 33 34 34 34 34 34 35 35 36 36 37 37 38 38 38 38 38 38 38 38 39
24 27 29 29 30 31 32 32 31 32 32 32 33 33 33 33 33 33 33 32 32 32 32 32 32 32 33 34 34 34 34 34 34 35 35 35 36 36 37 38 39 39 39 39 39 39 39 39 39
22 24 26 28 28 29 30 30 31 31 32 31 32 32 33 32 33 33 33 33 32 32 32 33 33 33 34 35 35 35 35 35 35 36 36 37 38 38 38 38 39 40 40 40 40 40 40 40 40
21 22 24 26 27 28 28 29 30 30 30 31 30 31 32 32 33 32 32 33 33 33 33 33 34 35 35 35 35 36 36 36 36 36 37 38 39 39 39 39 40 40 41 41 41 41 40 40 40
18 20 22 23 25 26 27 27 27 28 29 29 30 31 32 32 33 33 33 33 33 34 34 35 35 35 35 35 35 36 36 37 37 36 37 37 38 38 38 38 38 39 39 40 40 40 40 41 41
16 17 19 20 22 23 24 25 26 27 28 29 29 30 32 32 34 34 34 34 34 34 34 35 35 36 36 35 35 36 36 37 37 37 36 36 37 37 37 37 37 38 38 39 40 40 40 41 41
14 16 17 18 20 21 22 23 24 25 27 28 29 30 31 32 33 34 35 34 35 35 35 35 35 35 35 35 36 36 36 36 36 36 37 38 38 37 37 37 37 38 39 39 39 40 41 41 42
12 14 16 17 18 19 21 22 22 23 24 25 27 28 30 31 33 34 35 35 35 35 35 35 35 35 35 35 36 36 36 36 36 37 37 37 37 37 37 37 38 39 39 40 40 40 41 42 42
11 13 14 15 16 18 19 21 20 21 22 23 25 27 29 30 32 33 34 35 35 35 35 35 35 35 36 36 36 36 36 36 36 37 37 37 37 38 38 38 39 39 39 39 39 40 41 42 42
10 12 13 14 15 16 17 19 19 20 20 22 24 25 27 28 30 32 34 35 35 35 35 34 34 35 35 36 36 37 37 37 37 37 36 36 37 37 38 38 38 38 38 39 39 40 41 42 42
10 11 12 13 14 14 15 16 17 18 19 21 22 23 25 27 29 31 33 34 34 34 34 34 34 35 35 35 36 36 36 37 37 37 37 37 37 37 37 38 38 38 38 39 39 40 40 41 41
10 10 11 12 13 13 14 15 16 17 18 20 21 22 23 25 26 28 30 32 33 34 35 35 36 36 36 36 36 36 37 37 37 37 37 38 38 37 37 37 38 38 39 39 40 40 40 41 41
10 11 11 12 13 13 14 14 15 16 18 19 21 22 23 24 25 26 28 30 32 33 34 35 36 36 37 37 37 38 37 37 37 37 37 37 38 37 37 37 37 37 38 38 38 38 39 39 40
11 11 12 12 13 14 14 15 16 16 18 19 21 22 23 24 25 26 28 30 31 33 34 35 35 36 36 37 37 37 37 36 36 36 36 36 37 37 37 37 37 37 37 37 37 38 38 39 40
11 12 12 13 14 15 16 16 17 17 19 19 20 21 23 24 25 27 28 30 31 31 32 33 33 34 34 35 35 35 35 35 34 35 35 35 36 36 36 36 36 36 37 37 37 38 38 39 40
12 13 14 14 15 16 17 16 17 18 19 20 21 22 23 24 25 26 27 28 29 30 31 31 32 33 33 33 33 34 34 34 34 35 35 35 35 35 35 35 35 36 36 36 37 38 38 39 40

GEFSSGP_500_meanwind_180.txt.gz
Wind_Speed
40 40 40 40 41 41 39 36 34 31 30 28 26 25 25 24 23 21 19 18 17 17 16 16 16 15 15 15 14 14 14 14 14 14 14 14 14 13 13 13 13 13 13 13 13 13 13 13 12
42 42 42 43 43 42 40 37 35 33 31 30 29 28 28 27 25 22 21 20 19 19 18 18 18 17 17 16 16 16 16 15 15 15 15 15 15 15 15 15 15 15 15 15 15 15 15 15 14
43 44 44 45 45 43 40 38 36 34 32 32 31 30 30 29 27 24 23 22 21 20 20 20 19 19 18 17 17 18 18 17 17 17 17 17 17 17 17 18 18 17 17 18 17 17 17 17 16
42 43 45 45 45 42 40 39 37 36 34 33 32 32 31 30 29 26 24 23 23 22 22 21 21 21 21 20 19 20 20 20 20 20 20 20 20 20 20 20 20 20 20 20 20 19 19 19 19
40 41 43 44 43 42 41 39 38 38 36 34 33 33 32 31 29 28 26 24 24 24 24 23 23 23 23 23 22 22 22 22 22 23 23 23 23 23 23 23 23 22 22 22 22 22 21 21 21
38 39 41 41 42 41 41 39 39 39 37 35 34 34 33 31 30 28 27 26 25 25 25 25 26 25 25 25 24 24 24 24 24 24 24 24 24 24 24 25 24 24 24 24 24 23 23 23 23
36 37 38 39 40 40 40 39 39 39 38 36 35 35 33 32 31 29 28 28 27 27 27 27 27 27 27 27 26 25 25 25 25 26 26 26 26 26 26 26 26 26 26 25 25 25 25 25 25
32 35 37 38 38 39 39 39 38 39 39 37 36 35 33 32 31 31 30 28 28 28 29 29 29 29 29 28 27 26 26 26 27 27 27 27 27 26 26 26 26 26 27 27 27 27 27 27 27
31 33 35 36 37 37 38 38 38 38 38 37 36 35 34 33 32 31 31 30 29 29 30 30 30 30 30 29 27 27 27 27 28 28 28 28 28 27 27 27 27 27 28 28 28 29 29 29 29
30 32 33 34 36 37 37 38 37 37 37 37 37 36 35 33 32 31 31 30 30 30 30 30 30 31 31 30 29 28 28 28 28 28 28 28 28 28 28 28 28 28 29 29 29 30 30 31 31
30 30 31 33 33 35 35 36 36 37 37 37 36 36 35 33 32 32 31 31 30 30 30 30 30 31 31 31 30 29 28 28 28 28 28 28 28 28 29 29 29 30 30 30 31 31 32 32 33
27 29 30 32 33 33 34 34 35 36 36 36 35 34 34 33 32 31 30 30 31 30 30 30 30 30 31 30 29 28 28 28 28 28 29 29 29 29 30 30 31 32 32 33 33 33 34 34 34
24 26 29 30 31 31 33 34 34 34 34 35 35 34 34 33 33 32 31 31 30 30 30 29 30 29 29 30 29 29 28 28 29 30 30 30 30 31 32 33 34 34 35 35 35 36 36 36 36
22 23 25 28 29 30 31 34 34 33 33 33 34 34 33 33 33 32 32 32 30 30 29 29 29 29 29 29 29 29 29 29 30 31 30 31 32 32 33 34 35 35 35 36 36 37 37 37 37
21 21 23 26 27 29 30 31 33 32 32 32 33 33 33 33 33 32 32 32 31 30 30 30 30 29 30 30 30 30 30 29 30 31 31 32 32 33 33 34 35 35 36 36 37 37 37 38 38
20 21 22 25 25 26 28 29 30 31 30 29 30 32 32 31 32 32 32 32 32 31 30 30 30 30 31 31 31 31 31 31 31 31 31 32 33 33 34 35 35 36 36 37 37 38 38 39 39
17 19 20 23 24 24 26 26 28 29 30 28 28 28 30 31 31 31 31 31 31 31 31 31 31 31 32 32 32 33 34 34 33 32 33 33 34 35 35 35 36 37 37 38 38 38 39 39 40
14 17 18 20 22 22 23 25 26 27 29 28 28 28 29 31 31 30 31 31 30 31 31 31 32 32 33 33 33 33 34 35 35 34 34 35 35 36 35 35 36 37 38 38 38 39 39 40 40
11 13 16 18 19 20 21 22 24 25 25 26 27 27 29 30 31 31 30 31 30 31 32 32 33 33 34 33 34 35 35 36 37 37 36 35 36 36 36 36 36 36 37 38 38 39 39 38 39
10 12 14 16 18 19 20 20 22 23 24 25 25 25 27 28 29 29 30 30 31 31 32 33 34 34 34 35 35 36 37 37 37 37 37 36 36 36 36 36 37 37 37 38 38 38 38 39 39
10 12 13 14 16 18 19 20 22 24 24 25 25 25 26 27 27 28 29 30 31 32 32 33 34 34 34 35 36 36 37 37 37 37 37 37 37 37 36 36 38 37 37 38 38 38 39 40 41
10 12 13 13 14 15 17 19 21 22 24 24 24 24 25 26 27 28 28 30 31 31 32 32 33 35 35 35 37 37 37 37 36 37 37 37 37 37 36 36 36 36 37 38 38 38 39 39 40
9 11 12 13 14 14 15 17 19 20 21 23 23 24 25 26 26 27 28 29 31 32 33 33 33 34 35 36 37 37 37 37 37 37 37 37 37 37 37 37 36 36 37 37 37 39 39 39 40
9 10 11 12 13 15 15 16 17 18 19 21 22 23 24 25 26 26 28 29 30 32 33 33 34 34 35 36 36 37 38 37 37 37 37 37 37 38 38 38 38 38 37 37 38 39 39 40 40
9 10 11 12 13 13 14 16 16 17 18 19 20 22 23 24 25 26 27 29 31 31 32 33 34 34 34 35 35 36 36 36 37 38 38 38 38 38 38 38 38 38 38 38 39 39 39 40 40
9 10 11 12 12 13 14 15 15 16 17 18 19 20 21 22 24 25 27 28 30 31 32 32 33 34 35 36 36 36 37 38 38 39 39 39 38 38 38 39 39 39 39 39 39 39 40 40 40
10 10 11 12 13 13 13 14 15 16 17 18 19 20 21 22 23 25 26 27 29 30 32 33 33 34 35 36 37 37 38 39 39 40 40 40 40 39 39 40 40 40 40 40 40 40 40 40 40
11 11 12 14 15 15 14 14 14 15 17 18 19 20 22 22 23 24 26 27 28 30 31 33 34 35 36 36 38 38 39 39 39 39 39 39 40 40 39 39 39 39 39 39 40 40 39 40 40
12 12 13 15 16 17 16 15 15 17 18 19 20 21 22 23 23 24 25 27 28 29 31 32 34 35 36 37 37 38 38 37 38 39 39 39 39 39 39 39 39 39 39 38 39 39 39 39 39
13 14 14 15 16 17 18 17 17 18 19 20 21 21 22 23 24 25 26 27 28 30 31 32 33 34 35 36 37 37 37 36 37 37 37 37 37 38 38 38 39 39 39 39 39 39 39 39 39

GEFSSGP_500_meanwind_186.txt.gz
Wind_Speed
37 38 38 39 40 40 38 37 34 32 31 30 28 27 26 25 23 21 20 18 17 17 16 16 15 14 14 14 13 13 12 12 12 12 11 11 11 11 11 11 12 12 12 12 12 12 13 13 13
38 39 40 41 42 41 39 37 35 34 33 32 31 29 28 27 25 23 21 20 19 19 18 17 17 16 15 15 15 14 14 14 13 13 13 13 13 13 13 13 13 13 13 14 14 14 15 15 15
38 39 40 41 41 40 39 37 36 35 35 34 33 31 30 29 27 25 23 22 21 20 20 19 18 18 17 17 17 16 16 16 15 15 15 15 15 15 15 15 15 15 16 16 16 16 17 17 17
36 37 39 40 39 38 38 38 37 36 36 36 35 33 32 30 28 27 25 24 23 22 21 21 20 20 19 19 19 19 19 18 18 18 17 17 17 17 17 18 18 18 18 18 18 18 18 19 19
34 35 37 38 38 38 38 38 38 37 37 37 36 35 33 31 30 28 27 26 25 24 23 23 22 21 21 21 21 21 21 21 21 20 19 19 20 20 20 20 20 20 20 21 21 20 20 20 20
32 34 35 36 36 37 38 38 39 39 39 38 37 35 34 32 31 30 29 28 27 26 25 24 24 23 23 23 22 23 23 23 23 22 21 21 21 21 22 22 22 22 22 22 22 22 21 21 21
30 32 33 34 35 36 37 38 39 39 39 39 38 37 35 34 32 31 30 29 28 28 27 26 26 25 25 24 24 24 24 24 24 23 22 23 22 23 23 23 23 23 23 23 22 22 22 23 23
28 30 31 32 33 34 35 36 37 38 38 39 38 37 35 34 33 32 31 31 30 29 28 28 28 26 26 26 25 25 26 25 25 25 24 24 23 23 24 24 24 24 24 23 23 23 24 24 24
27 29 29 30 32 33 34 34 35 37 38 38 38 37 35 34 34 33 32 32 31 30 29 29 28 27 27 27 27 27 26 26 26 26 25 25 24 24 24 24 24 24 24 24 24 24 25 25 26
24 26 26 28 29 31 32 32 33 35 37 37 36 36 36 34 33 32 32 31 31 30 29 29 28 28 27 27 27 27 26 26 27 27 27 26 25 25 25 25 25 25 25 25 26 26 27 27 28
21 22 23 26 28 28 29 30 30 32 35 35 35 35 35 34 34 33 33 32 31 31 30 29 29 28 28 28 27 27 27 27 27 26 26 26 26 26 26 26 25 26 26 27 27 28 28 29 29
20 20 22 24 26 26 28 29 30 31 32 33 33 34 35 35 34 34 33 33 32 31 31 31 31 30 30 29 28 28 27 27 26 27 26 26 26 26 26 27 27 27 28 28 29 30 30 30 31
17 18 20 22 24 25 26 28 28 28 30 33 33 33 34 34 34 34 34 33 33 32 32 31 31 30 30 30 29 28 27 26 27 26 26 25 26 26 27 28 29 29 30 30 30 30 31 31 32
14 15 18 20 23 24 25 27 28 27 28 31 33 32 33 34 34 34 34 34 33 33 33 32 32 32 32 31 31 29 28 27 28 27 26 27 27 27 28 29 30 30 31 31 31 31 32 33 33
13 14 16 19 21 23 24 25 27 27 29 30 31 32 33 33 34 34 34 34 33 33 33 33 33 33 33 32 32 31 30 29 29 28 28 28 28 29 30 31 31 31 31 32 32 33 33 34 34
12 14 17 18 20 22 24 24 25 27 30 30 31 32 32 32 32 33 33 33 33 33 33 33 33 33 33 33 32 32 31 30 30 30 29 29 29 30 31 32 32 32 32 33 33 33 34 35 35
12 14 15 17 19 20 23 24 25 27 29 30 30 32 32 32 32 32 32 32 33 33 33 33 33 33 33 33 32 32 32 32 32 32 32 32 31 32 32 32 33 33 33 34 34 35 36 36 37
13 13 14 15 17 20 22 23 25 26 27 28 28 30 30 30 31 31 32 33 33 33 33 33 34 34 34 33 32 32 33 32 32 33 33 33 32 33 33 34 34 33 34 35 35 36 37 37 38
13 13 14 15 16 19 20 22 24 26 27 28 28 29 29 30 30 30 29 30 31 32 32 33 33 33 33 33 33 33 33 34 34 34 34 34 33 34 34 34 34 35 35 36 36 37 37 38 38
12 12 13 14 15 17 19 21 22 24 25 26 27 28 29 29 29 29 29 29 30 30 31 31 32 32 32 32 32 33 34 34 34 35 35 35 35 35 35 34 34 35 36 36 37 37 38 38 39
11 12 12 14 15 17 19 20 21 22 23 24 26 27 28 28 28 28 28 29 29 30 30 31 31 32 32 32 32 33 34 35 36 35 35 35 35 36 36 36 36 36 36 37 38 38 39 39 40
11 12 12 12 14 16 18 20 21 21 22 23 24 26 27 28 28 29 29 29 29 29 30 31 31 32 33 34 34 34 35 36 37 37 36 36 36 36 38 37 37 37 38 39 39 39 40 40 40
12 12 11 11 12 14 17 19 20 22 23 23 24 25 26 27 27 27 28 29 29 30 30 31 31 33 34 35 35 35 36 37 37 37 37 37 37 37 38 39 40 39 39 39 40 41 41 41 41
13 13 13 12 12 13 15 18 19 20 22 22 23 23 25 25 26 27 27 28 29 30 31 31 32 33 34 34 36 36 36 37 37 36 37 38 38 39 40 40 40 40 41 41 42 42 42 42 42
13 13 14 15 15 14 15 17 18 18 19 21 21 22 23 25 26 27 28 28 29 30 31 32 33 33 34 34 35 36 36 38 38 38 38 39 40 40 41 42 42 43 43 43 42 42 42 41 41
13 13 14 16 16 15 15 16 16 17 18 20 21 22 24 25 26 27 28 29 30 31 31 32 33 34 34 35 36 37 37 38 39 40 40 40 42 42 42 43 43 43 44 43 42 42 41 41 41
13 14 15 16 17 17 16 16 17 17 18 19 21 23 24 26 27 28 28 29 30 31 32 32 33 34 35 36 37 37 38 38 39 40 41 41 43 44 45 45 44 43 43 43 43 42 42 42 41
15 15 15 16 18 18 17 16 16 17 19 21 22 23 25 26 27 29 30 30 31 32 32 32 33 34 35 35 36 38 39 40 40 40 41 42 43 44 44 44 44 43 42 42 42 42 42 41 41
16 16 16 17 18 18 18 17 17 18 19 21 22 24 26 27 27 28 30 30 31 32 32 32 33 33 34 34 36 38 39 41 42 42 43 44 44 43 43 42 42 42 43 42 42 42 42 41 41
18 18 18 19 19 19 20 19 18 19 20 22 23 25 26 27 28 29 29 30 31 32 33 34 34 34 35 36 37 38 39 41 42 43 44 44 44 43 42 42 43 43 43 43 43 43 43 43 42

GEFSSGP_500_meanwind_192.txt.gz
Wind_Speed
31 32 32 34 35 36 36 34 33 32 30 30 29 28 27 26 25 25 22 21 20 20 19 18 17 16 15 14 14 13 12 12 12 12 11 11 11 10 10 10 10 10 10 10 10 10 11 11 11
31 32 33 35 36 36 36 36 35 34 32 31 31 30 29 28 27 26 24 23 22 21 20 19 19 18 17 16 15 15 14 14 13 13 13 13 13 12 12 12 12 12 12 12 12 12 13 13 13
31 32 32 34 36 36 36 37 36 36 34 33 33 32 31 30 29 27 25 24 23 22 22 21 20 19 18 17 17 16 16 15 15 15 15 15 15 14 14 14 14 14 14 15 15 15 15 15 15
30 31 32 32 33 34 36 37 36 37 36 35 35 34 33 31 30 29 27 26 25 24 23 22 21 21 20 19 19 18 18 17 16 16 17 17 16 16 16 16 16 16 16 17 17 17 17 17 17
28 30 31 32 32 33 36 37 37 37 37 37 36 35 33 32 31 30 29 28 26 26 25 24 23 22 22 21 20 20 19 19 18 18 18 18 18 18 18 18 18 18 18 18 18 18 18 18 18
27 28 30 30 30 33 35 35 36 37 36 37 37 36 34 33 32 31 30 29 28 27 27 26 25 24 23 22 21 21 20 20 20 19 19 19 19 19 19 20 20 20 20 20 20 20 19 19 19
25 26 28 29 29 32 34 35 35 36 36 36 37 37 35 34 32 32 31 30 30 29 28 27 26 26 25 24 22 22 21 21 21 20 20 20 20 21 21 21 21 21 21 21 21 21 20 20 20
23 23 26 27 28 30 32 34 35 35 35 35 36 37 36 34 33 32 32 31 30 30 29 28 27 26 25 25 24 23 22 22 21 21 20 20 20 20 21 22 22 22 22 22 21 21 21 21 21
20 22 23 25 26 27 29 32 33 35 35 35 35 35 35 35 34 33 33 32 31 30 30 29 29 28 27 26 26 25 24 24 23 22 22 21 21 21 22 22 22 23 23 23 23 22 22 22 23
19 20 21 22 22 24 27 29 31 33 34 34 34 34 34 35 34 34 34 33 32 31 31 31 30 29 28 28 28 27 26 25 25 24 24 23 23 24 24 24 24 24 24 24 24 24 24 24 24
16 18 19 20 21 22 24 26 29 31 33 33 33 33 34 35 36 35 35 34 33 32 31 31 31 30 30 29 29 29 28 27 26 25 25 25 25 25 25 25 26 25 25 25 25 25 26 26 26
15 16 17 18 19 20 22 23 24 27 29 30 31 32 33 34 36 35 35 35 34 34 32 32 32 32 31 30 30 30 29 28 28 27 27 27 27 27 26 27 27 26 26 26 25 26 27 27 27
14 14 15 16 17 19 20 21 22 24 26 28 29 30 31 32 34 35 35 35 35 35 34 33 33 33 33 32 31 31 31 30 30 30 29 28 28 28 28 28 28 27 27 26 26 26 27 27 28
13 13 14 14 15 17 19 20 21 23 25 27 28 30 31 31 33 35 35 36 36 35 35 33 33 34 34 34 33 32 32 31 31 31 31 30 29 30 30 29 28 28 27 27 27 27 27 28 28
12 13 13 14 14 15 18 20 22 23 23 25 27 29 32 32 33 33 34 36 36 35 35 34 34 34 34 34 34 33 32 32 32 32 33 33 32 31 30 30 29 28 28 28 28 28 29 29 29
12 12 13 14 15 15 16 18 20 22 23 25 26 27 30 31 32 33 32 34 34 34 34 34 34 35 35 35 35 34 33 34 34 34 34 34 33 32 31 30 30 30 30 30 30 30 31 31 31
12 12 13 14 15 14 16 17 19 20 22 24 26 27 29 31 31 32 33 33 33 34 34 34 34 34 35 35 35 35 34 35 35 35 34 33 34 33 33 32 32 32 32 32 32 33 33 32 32
12 12 13 14 15 15 15 16 18 19 21 23 26 28 29 29 30 31 32 33 33 34 34 34 34 35 35 35 36 36 36 35 35 34 34 33 33 33 32 33 32 32 33 33 34 34 34 34 34
12 12 13 13 15 15 16 17 17 19 20 22 24 26 29 29 29 29 30 32 32 33 34 34 34 34 34 35 36 35 35 34 34 33 34 34 33 33 33 33 33 33 34 34 35 35 35 35 35
12 13 12 13 13 15 16 17 18 19 20 21 23 24 27 28 28 29 29 29 30 31 32 34 33 33 34 35 36 36 35 34 34 35 34 35 35 35 34 34 34 34 35 35 36 36 36 36 37
12 13 13 13 14 15 16 17 19 20 20 21 22 24 25 26 27 28 28 28 29 30 31 32 32 32 33 34 36 36 36 36 35 35 35 36 36 36 36 35 36 36 36 37 37 37 37 37 38
13 13 13 13 14 14 16 17 17 19 20 21 22 24 24 25 26 27 27 28 29 30 31 32 32 33 34 35 36 37 37 38 37 37 37 37 38 38 38 37 37 37 37 38 38 39 39 39 40
12 13 13 13 13 13 14 16 16 17 20 21 22 24 25 25 26 26 27 28 29 30 31 32 32 32 33 34 35 36 37 38 38 39 39 39 38 39 39 38 38 38 38 39 39 40 40 41 42
13 13 13 13 13 13 12 14 15 16 18 20 21 23 24 25 25 26 27 28 29 29 30 31 32 32 33 34 35 36 37 38 38 39 39 39 39 39 39 39 39 39 40 40 41 42 42 43 43
13 13 13 13 13 13 13 14 15 15 17 18 19 21 23 24 24 25 25 26 27 28 29 30 31 32 33 33 34 35 36 37 37 38 39 39 39 39 39 40 40 40 41 42 43 43 43 44 44
14 14 14 15 15 15 14 15 15 15 16 18 19 20 21 22 23 24 24 25 26 27 28 30 31 31 32 33 34 35 36 36 36 37 38 39 40 40 41 42 42 42 43 43 43 44 44 44 45
16 16 16 16 17 17 16 15 15 15 16 18 19 21 21 23 23 24 25 25 26 28 29 30 31 32 32 33 34 35 35 35 36 36 37 38 39 41 42 43 43 44 44 44 44 44 44 45 46
17 17 17 18 19 18 17 16 16 16 17 18 20 21 23 23 24 25 26 27 28 29 29 30 31 32 32 33 33 34 35 35 36 36 37 38 39 41 42 43 44 45 45 45 45 45 46 47 47
18 18 18 18 19 20 19 17 17 17 18 19 20 22 23 24 25 27 28 29 30 31 31 31 31 31 32 33 34 35 36 36 37 38 39 39 39 40 42 44 45 46 46 46 46 46 48 48 48
20 19 19 20 20 20 20 18 18 19 19 20 21 22 24 25 26 27 29 30 30 31 31 31 32 32 33 34 35 36 37 37 37 38 38 39 39 41 42 43 45 46 47 47 47 47 48 48 47

GEFSSGP_500_meanwind_198.txt.gz
Wind_Speed
25 26 28 29 31 32 32 31 31 30 30 30 30 30 29 28 27 27 26 25 23 21 21 20 19 19 17 17 16 15 15 15 14 14 13 12 12 12 11 11 11 11 11 11 11 11 11 11 11
26 26 27 29 30 32 32 32 31 32 31 31 32 32 31 30 28 28 27 26 25 23 22 21 21 20 19 18 17 17 16 16 16 15 14 14 13 13 13 12 12 12 12 12 13 13 13 13 13
25 25 26 29 29 30 31 32 33 33 31 32 33 33 33 32 30 29 28 27 26 24 24 24 23 22 21 20 19 19 18 17 17 16 16 15 15 15 14 14 14 13 13 13 14 14 15 15 15
23 24 26 28 29 29 29 30 32 34 32 33 34 35 34 33 31 30 29 28 27 25 25 25 24 23 22 21 21 20 19 19 18 17 16 16 16 15 15 15 15 15 15 15 15 16 16 16 16
24 24 25 27 28 28 29 30 30 32 33 33 35 36 35 33 32 31 30 29 28 26 26 25 25 24 23 22 22 21 20 20 19 18 17 17 17 16 16 16 16 15 15 16 16 17 17 18 18
23 25 25 26 26 27 28 29 30 30 32 33 35 36 35 34 33 33 32 30 29 28 27 27 26 25 24 23 23 22 22 21 20 19 19 18 18 18 18 17 17 16 16 16 17 17 18 18 19
22 24 24 24 25 26 28 29 30 30 32 33 34 36 36 36 35 35 34 32 31 29 29 28 27 26 26 25 24 24 23 23 22 21 21 20 19 19 19 18 18 18 18 18 18 18 18 19 19
21 23 23 24 25 26 27 29 28 31 31 33 34 35 34 36 36 36 35 33 32 31 30 30 29 28 27 27 26 25 25 24 24 23 22 21 21 20 20 20 20 20 20 19 19 20 20 20 20
21 22 22 22 23 24 26 27 27 29 31 32 33 34 33 34 35 35 34 33 33 33 32 31 31 30 29 28 28 27 27 26 25 25 24 23 23 22 22 22 21 21 22 21 21 21 21 21 22
20 20 20 21 22 23 24 26 25 26 28 30 31 33 32 33 34 34 34 33 33 33 33 33 32 31 30 30 29 29 28 28 27 26 26 25 25 24 24 23 23 23 23 23 23 23 23 23 23
20 20 19 20 22 24 24 25 25 25 27 29 30 31 32 33 33 34 34 34 34 34 34 34 33 33 32 31 31 31 30 29 28 28 28 27 27 27 26 25 25 25 25 26 25 25 25 24 24
19 19 20 20 22 23 23 25 25 24 24 28 29 30 31 32 33 33 34 35 35 34 33 34 34 33 32 32 32 32 32 31 31 30 29 29 28 28 28 27 27 27 28 28 28 27 27 26 26
18 19 20 20 20 21 23 24 25 25 24 25 27 30 30 30 32 33 34 34 34 34 34 33 33 33 33 33 33 33 33 33 32 31 31 30 29 29 29 29 29 29 29 30 29 29 28 28 27
18 18 19 20 20 20 20 21 23 24 23 24 26 28 29 30 31 33 35 34 33 34 34 34 34 33 32 33 33 34 33 32 32 32 31 31 31 31 31 31 31 31 31 31 30 30 30 29 29
17 18 18 19 19 20 20 20 21 21 22 23 25 26 27 29 31 32 33 33 33 33 34 35 35 35 34 34 34 34 33 33 33 33 33 32 33 33 33 32 33 33 33 33 33 32 31 31 31
16 17 17 17 19 20 20 19 19 20 20 21 22 24 26 29 30 32 32 32 32 33 34 35 35 36 36 35 35 35 34 34 34 34 34 34 34 34 35 34 35 35 34 34 34 33 32 32 32
15 16 16 15 17 18 20 19 18 19 19 20 21 23 25 27 28 30 31 31 32 32 33 36 36 36 37 36 36 36 36 35 35 35 35 36 36 36 36 36 35 35 35 34 35 35 34 34 34
15 15 15 15 15 16 17 18 18 18 19 21 21 23 24 26 27 30 30 30 30 32 32 34 36 37 37 37 37 37 37 37 36 36 36 36 38 37 37 36 35 35 36 36 36 36 35 35 35
15 15 15 14 15 16 16 17 17 18 19 20 22 23 25 26 27 28 30 30 30 31 32 33 35 35 36 37 37 37 37 37 36 37 37 37 37 38 38 38 36 36 36 37 36 37 36 36 36
15 15 14 14 16 17 17 16 17 18 20 21 22 23 25 26 27 29 30 29 31 31 31 32 34 35 35 36 36 37 36 36 37 37 38 38 38 38 38 38 37 37 38 36 36 36 37 37 37
16 15 15 16 17 17 18 17 17 18 19 21 21 21 23 25 26 28 29 29 30 30 30 31 32 34 35 36 36 36 36 37 37 38 39 39 38 39 40 39 39 39 39 38 37 37 38 38 38
17 17 17 17 18 17 18 17 16 17 18 19 21 21 22 24 25 27 28 29 30 30 31 31 31 32 34 35 36 36 36 37 38 39 39 40 39 39 40 40 40 40 40 39 38 38 39 39 40
18 17 17 18 18 17 17 18 15 16 18 19 20 21 22 23 24 25 27 28 29 30 31 31 31 32 33 34 35 35 37 38 38 38 37 39 40 40 40 40 41 40 40 40 39 39 40 40 40
18 18 18 18 18 18 17 18 16 15 17 18 20 20 21 23 23 24 26 28 28 29 30 31 31 33 34 34 35 35 36 37 37 38 38 39 40 40 40 41 41 41 41 41 41 41 41 41 42
18 18 19 19 18 18 18 18 18 16 17 18 19 20 21 22 23 25 25 27 28 28 29 30 31 32 33 34 35 36 36 37 37 38 39 39 39 40 41 42 42 43 43 42 43 43 43 43 43
19 19 19 19 19 19 18 18 17 17 17 18 19 19 20 22 23 23 25 26 27 28 28 29 30 31 32 34 35 35 37 37 38 39 39 40 39 40 41 42 42 43 43 43 44 45 45 45 45
21 20 20 21 21 20 19 19 18 17 18 19 20 20 21 22 23 23 24 25 26 28 29 30 31 31 32 33 34 35 36 37 37 38 39 39 39 39 40 41 42 42 43 44 45 45 46 46 46
22 21 22 22 23 22 21 20 20 19 19 20 21 22 23 24 24 25 26 26 27 28 29 30 31 32 33 34 35 36 37 37 38 38 38 38 39 40 41 41 42 43 43 44 45 46 46 47 47
23 23 23 23 24 24 23 21 21 21 21 21 22 24 25 25 26 27 27 27 28 29 30 31 32 33 33 34 35 36 37 37 38 39 39 40 40 41 41 41 42 43 44 44 45 46 47 47 48
25 25 24 25 25 26 26 24 22 22 23 23 23 25 26 27 28 29 29 29 30 30 31 32 33 34 34 35 35 36 37 38 39 40 41 41 42 43 43 44 43 44 44 45 46 46 47 48 49

GEFSSGP_500_meanwind_204.txt.gz
Wind_Speed
26 27 27 28 28 29 29 29 28 27 26 25 26 26 27 26 25 24 24 23 22 21 20 19 19 19 18 17 17 16 16 15 15 14 14 14 13 13 13 13 13 13 12 12 12 11 11 11 11
26 27 27 28 29 29 29 28 29 28 27 27 27 27 28 28 27 26 25 25 24 23 22 22 21 20 20 19 19 18 18 17 16 16 16 15 15 14 14 14 14 14 13 13 13 13 12 12 13
25 25 26 27 28 28 28 27 28 28 28 28 29 29 29 29 29 28 27 26 26 25 24 23 23 22 22 21 21 20 19 19 18 17 17 17 16 15 15 15 15 15 14 14 14 14 14 14 14
24 24 25 26 27 27 27 27 29 28 28 29 30 30 30 31 31 30 30 28 28 26 26 25 24 24 23 23 22 21 20 20 19 19 18 18 17 17 16 16 16 16 15 15 15 15 15 16 16
22 23 25 26 25 25 26 28 29 29 28 29 30 30 30 31 31 32 31 31 29 28 27 26 26 25 25 24 24 23 22 21 20 20 20 19 19 18 18 18 17 17 17 17 17 16 17 17 17
21 22 23 25 25 25 25 26 28 28 27 28 29 30 29 30 31 32 32 32 30 29 28 27 27 26 26 26 25 24 24 23 22 22 21 21 20 20 19 19 19 19 19 19 18 18 18 18 18
20 21 22 23 24 24 24 25 27 27 27 28 29 29 29 30 30 31 32 32 31 30 29 28 28 27 27 26 26 26 25 24 24 24 23 22 22 21 21 20 20 20 20 20 19 19 19 19 19
19 21 22 23 23 22 23 25 26 27 28 28 30 30 29 30 30 31 32 32 32 32 31 30 29 28 28 27 27 26 26 26 25 25 25 24 24 23 22 22 22 21 22 21 21 21 21 21 20
19 21 21 22 22 21 22 25 26 26 27 28 29 29 29 30 30 31 32 32 31 32 33 32 30 30 29 29 28 28 28 28 28 27 27 26 26 25 24 23 23 23 23 23 22 22 22 22 22
19 19 19 20 21 21 22 23 25 25 26 28 28 29 29 30 31 31 31 33 32 33 33 32 32 31 30 30 30 30 30 30 29 29 28 28 27 27 26 25 25 24 24 24 23 23 23 24 24
16 17 18 19 21 21 22 23 24 25 26 27 28 28 30 30 32 31 31 32 32 33 33 33 32 32 32 31 31 32 31 31 30 30 30 29 29 28 27 26 26 26 25 25 26 25 26 26 26
14 15 16 18 19 21 23 22 23 24 24 25 27 27 29 29 30 30 31 32 31 32 34 34 33 33 33 32 33 33 33 32 32 31 31 31 30 29 29 28 28 28 27 27 28 28 28 28 28
14 14 15 17 18 19 21 22 21 22 23 25 26 27 27 28 28 30 32 34 34 32 35 36 35 34 34 33 32 33 34 34 34 33 33 32 31 31 30 30 29 29 29 29 30 30 30 30 29
14 14 15 16 17 19 20 21 22 21 23 25 26 26 26 27 27 29 31 32 33 33 35 36 36 35 35 35 34 34 35 35 35 34 33 33 33 33 33 33 33 33 32 32 32 32 32 31 31
14 14 16 17 18 18 19 20 21 21 23 25 25 26 25 27 26 27 29 31 32 33 35 36 36 36 36 34 33 35 35 35 34 34 34 33 34 33 34 34 35 35 33 33 34 34 34 33 33
15 15 15 16 17 18 18 17 18 19 21 23 25 26 25 27 27 27 28 29 30 32 35 37 37 36 36 35 33 34 35 35 35 35 35 34 34 35 35 36 36 35 35 35 35 35 34 35 35
15 15 15 15 16 17 17 16 17 18 19 21 22 23 24 25 26 27 28 28 28 30 34 36 36 36 35 37 34 33 35 36 36 36 36 36 35 36 37 37 37 37 37 37 36 36 35 35 36
14 14 14 14 15 17 17 16 16 18 19 20 20 21 22 23 25 26 27 29 28 29 32 34 35 35 35 36 34 33 34 35 36 36 36 37 37 36 37 38 38 38 38 38 37 36 37 36 37
14 13 14 14 15 16 16 16 16 17 18 19 19 19 19 21 23 25 26 28 29 29 30 31 33 33 33 33 34 33 34 35 36 36 37 38 38 38 38 37 38 39 39 39 38 38 37 37 38
14 14 14 14 16 16 16 16 16 17 17 17 18 18 19 20 21 23 25 25 26 27 29 31 31 32 32 32 33 33 33 35 35 36 36 37 38 39 39 39 39 38 38 39 39 39 37 38 38
14 15 15 15 15 16 17 16 17 16 17 17 17 18 19 20 22 22 24 25 26 27 28 29 29 31 32 33 33 33 33 35 36 37 37 37 38 39 39 40 39 39 40 40 40 39 38 38 38
15 16 16 16 16 16 17 17 16 17 17 18 18 19 20 21 23 23 24 24 24 26 28 29 29 30 31 33 34 34 33 34 35 36 37 38 39 40 40 40 40 40 40 41 41 41 41 40 40
17 17 17 17 17 16 17 17 16 17 18 18 18 19 20 21 22 24 23 23 24 26 26 27 28 29 31 32 33 33 33 34 35 36 37 38 38 39 40 40 41 41 40 41 42 43 43 42 42
18 19 19 19 18 18 17 17 16 16 17 18 18 19 20 20 21 23 24 24 25 25 26 27 27 28 30 32 33 33 33 34 35 35 36 37 38 39 40 40 40 41 41 42 42 43 43 43 42
20 20 20 21 20 19 18 18 16 16 16 17 17 18 19 19 20 21 23 24 25 25 26 27 27 28 30 31 31 32 34 34 35 36 36 37 38 39 40 40 40 40 41 42 43 43 43 44 44
21 21 22 22 22 20 19 19 17 17 16 17 18 18 18 19 20 20 21 23 23 24 25 26 27 29 30 31 31 32 33 34 35 36 37 38 39 39 40 40 40 41 42 43 43 43 44 45 45
22 23 23 23 24 23 21 20 18 18 17 18 18 19 20 20 20 20 21 22 23 23 25 26 27 28 30 31 31 32 32 33 34 36 37 38 39 40 40 41 41 42 42 43 44 43 44 45 45
24 24 24 24 25 25 24 22 20 19 18 19 19 20 21 22 22 22 22 22 24 25 27 27 28 28 30 32 32 32 33 34 35 36 37 37 38 39 40 40 40 41 42 43 43 44 44 44 45
26 26 26 26 26 26 26 23 21 20 20 21 22 23 23 24 24 23 24 24 25 27 28 28 29 30 31 32 33 33 34 34 34 35 36 37 38 38 39 40 41 42 42 42 43 44 45 46 46
27 27 27 27 27 27 26 24 22 22 22 23 23 24 25 25 25 25 25 26 26 27 28 29 30 31 32 33 33 34 35 35 35 35 36 37 38 39 40 41 42 43 43 44 45 45 46 46 46

GEFSSGP_500_meanwind_210.txt.gz
Wind_Speed
24 25 26 27 28 28 28 28 27 26 25 25 25 25 24 23 23 23 22 21 21 20 20 20 20 20 19 19 18 17 16 15 14 13 12 12 12 12 11 11 11 11 11 11 10 10 10 11 10
24 25 26 27 29 29 28 28 28 27 26 27 27 26 26 25 25 24 23 23 23 22 22 22 22 21 20 21 21 19 18 17 16 16 15 14 13 13 13 13 12 12 13 12 12 12 12 12 12
24 25 26 27 28 28 28 28 28 28 27 27 27 27 27 26 26 26 25 25 25 24 24 23 23 23 22 22 22 21 20 19 18 17 16 15 15 14 14 14 14 13 13 13 13 13 13 13 13
23 24 26 26 26 26 27 28 28 29 28 28 28 28 27 27 27 26 26 26 26 27 26 25 25 25 24 24 23 23 22 21 20 19 18 17 16 15 15 14 14 14 14 14 14 15 14 14 14
22 23 25 25 25 25 26 27 28 30 29 28 29 29 28 28 28 27 27 27 27 28 27 27 27 27 26 25 25 24 24 23 22 21 19 18 17 16 16 16 15 15 16 16 16 16 16 16 16
23 23 24 24 25 25 25 26 27 30 29 28 29 29 28 28 28 28 28 28 29 29 30 29 29 28 28 27 26 26 25 25 24 22 21 20 19 18 18 17 17 16 17 17 17 17 17 17 17
23 23 24 24 24 24 24 26 26 28 29 29 29 29 29 29 29 29 29 29 29 30 31 31 31 30 30 29 28 27 26 26 25 24 23 22 21 20 19 19 18 18 18 18 18 18 18 18 18
22 23 23 23 23 23 25 26 27 28 28 29 30 29 29 29 29 30 30 30 30 30 31 32 32 32 32 31 29 28 27 27 26 26 25 24 23 22 21 20 20 20 20 20 19 19 19 19 19
21 21 21 22 21 22 24 26 27 27 28 29 30 29 29 30 30 31 31 31 31 31 31 32 33 34 33 32 30 29 29 28 28 27 27 26 25 24 23 22 22 21 21 21 21 21 21 21 21
20 20 21 20 21 22 24 25 26 27 28 28 29 30 30 30 31 31 31 31 31 31 31 32 34 35 34 33 32 31 31 29 29 29 29 28 26 26 25 25 24 24 23 23 23 23 23 23 24
20 19 19 20 20 22 24 25 25 26 26 28 28 29 30 30 30 31 31 31 31 32 32 33 34 35 34 34 34 33 32 30 30 30 29 29 28 27 27 27 27 26 25 25 25 26 26 26 26
19 19 19 20 20 22 23 23 23 24 25 26 28 28 29 30 30 31 32 32 32 32 33 34 34 35 35 35 35 34 33 32 30 30 30 31 30 30 29 29 29 28 28 27 27 28 28 28 28
18 18 19 19 20 21 21 22 23 25 25 25 27 28 28 30 30 30 30 31 30 31 34 36 36 35 35 36 36 35 36 35 33 32 32 32 32 31 31 30 30 30 30 30 30 30 30 31 31
19 19 20 20 21 21 21 22 24 25 25 26 27 28 29 29 29 30 30 29 29 31 33 36 37 37 37 36 36 37 37 36 35 34 33 33 33 32 33 32 32 32 32 33 33 33 33 33 32
19 19 20 21 21 21 22 22 23 24 25 26 27 28 29 29 30 30 30 31 30 32 33 35 36 36 37 37 36 36 36 35 34 33 32 33 33 33 34 34 34 33 34 34 35 35 34 33 33
19 19 19 20 21 22 23 21 21 22 24 26 26 27 27 29 29 29 29 30 30 32 34 34 34 36 37 37 36 37 36 37 35 35 34 34 34 34 35 35 35 35 35 35 35 36 36 35 35
18 18 19 20 21 22 23 22 20 21 23 24 25 25 26 28 29 29 29 30 30 30 32 33 33 35 35 36 35 36 37 36 35 34 34 35 35 35 35 35 36 36 36 36 37 37 37 37 37
18 18 19 20 21 21 21 21 20 20 22 23 25 25 25 26 27 27 27 28 28 30 31 31 32 33 35 36 36 36 35 35 35 35 34 34 35 36 36 36 36 38 38 38 38 38 38 39 39
18 19 19 20 21 21 21 21 21 21 21 21 23 24 24 24 25 26 26 26 26 28 30 30 30 32 34 34 35 34 36 36 36 35 35 35 36 37 37 37 37 38 39 39 39 39 39 39 40
19 19 20 21 22 22 21 20 21 21 20 21 22 22 23 23 24 25 25 24 24 26 27 29 29 31 32 35 35 34 36 36 36 35 34 35 36 37 38 38 39 39 39 39 40 40 40 40 39
20 20 21 21 22 22 22 21 22 21 21 20 20 21 22 22 23 24 24 26 26 26 27 29 30 30 32 35 36 35 36 36 35 35 35 35 35 37 39 40 40 40 40 40 40 40 40 39 39
21 21 21 22 23 23 23 23 22 22 21 20 20 20 21 22 23 24 24 25 26 26 27 29 29 30 32 34 35 36 36 36 36 35 35 35 36 37 39 40 40 40 40 39 39 39 40 39 38
21 21 22 22 23 23 23 24 22 21 21 21 21 20 21 22 22 23 23 24 25 26 27 28 29 29 31 33 34 36 37 36 35 36 36 36 37 37 38 40 41 41 40 40 40 40 41 40 39
22 22 22 23 23 24 22 24 23 22 21 20 21 21 21 21 22 23 22 23 25 25 27 28 29 30 31 33 35 36 36 36 36 36 37 37 37 37 38 40 40 40 40 41 41 41 41 42 42
23 23 24 25 25 25 24 24 23 22 21 21 21 21 21 22 23 24 24 24 25 26 27 27 27 29 30 32 34 36 36 36 36 35 36 37 37 38 38 39 39 40 41 41 41 41 42 43 43
24 25 25 26 27 26 25 24 23 23 23 22 22 22 22 22 22 24 24 25 26 27 27 28 28 29 30 31 32 35 35 36 37 36 36 37 37 38 37 38 39 39 40 41 41 41 42 43 43
25 26 26 27 28 28 27 25 24 24 24 24 24 24 23 23 23 23 24 25 25 26 27 28 28 29 30 32 33 34 35 37 37 37 37 36 36 36 37 37 38 40 40 41 41 42 42 43 44
27 27 28 28 29 30 28 26 25 25 25 25 25 24 24 24 24 24 25 26 26 26 26 27 28 29 31 32 34 35 35 35 36 37 36 35 35 37 38 38 39 40 41 42 43 43 44 44 45
29 29 29 30 30 31 31 28 27 26 26 26 26 27 26 26 26 26 26 27 27 27 27 28 28 29 31 32 32 34 34 35 35 36 36 36 37 38 39 40 40 41 43 44 44 45 45 45 45
31 30 30 31 31 32 32 30 28 28 28 28 28 28 28 28 28 28 28 28 29 28 29 30 30 30 31 32 32 33 33 34 35 36 37 38 39 40 41 41 42 43 44 45 45 46 46 47 47

GEFSSGP_500_meanwind_216.txt.gz
Wind_Speed
21 22 22 23 24 26 26 26 26 25 26 26 24 24 23 23 22 23 22 21 20 20 19 19 19 19 19 19 18 19 19 18 18 17 16 15 15 14 13 12 11 10 10 10 10 9 9 9 9
22 22 22 23 25 25 26 26 27 27 27 27 26 25 24 24 24 23 23 22 22 21 21 21 21 21 20 20 20 20 20 20 19 19 18 17 16 16 15 14 13 12 12 11 11 10 10 10 10
22 22 23 24 25 25 25 25 27 28 28 28 28 26 26 25 25 24 24 23 23 22 22 22 22 22 22 22 22 21 21 21 21 21 20 19 18 17 17 16 15 14 13 13 12 11 11 11 11
21 22 23 24 24 24 25 26 27 28 28 29 29 27 27 26 26 26 25 24 24 24 23 24 23 23 23 23 23 23 23 23 23 22 22 21 20 19 18 17 16 15 15 14 13 13 13 13 13
22 23 24 24 24 24 25 26 26 27 28 29 29 28 27 27 27 27 26 25 25 25 25 25 25 25 25 25 25 25 25 25 25 24 24 23 22 21 20 18 18 17 16 15 15 15 15 14 14
23 23 24 24 24 24 25 25 26 26 27 28 29 28 28 28 27 27 27 27 27 26 26 27 27 27 27 26 26 27 27 27 27 26 26 25 24 23 21 20 19 18 17 17 16 16 16 16 15
22 22 23 23 23 23 24 24 25 25 26 27 28 28 28 28 28 28 28 28 28 28 28 28 28 29 29 28 28 27 28 28 28 27 27 27 25 24 23 22 21 20 19 19 18 17 17 17 17
21 22 22 23 23 23 23 23 24 25 26 27 27 27 27 28 28 28 28 29 29 29 29 29 30 30 30 30 30 29 29 29 29 29 28 28 27 26 25 24 23 22 21 20 19 19 19 18 18
21 21 22 22 22 22 22 22 23 25 25 26 26 27 28 27 28 28 29 29 29 29 30 30 31 31 32 32 32 31 31 30 30 30 30 30 29 28 27 26 25 24 23 22 21 21 21 20 20
21 21 21 21 21 21 21 22 23 25 24 25 25 27 28 27 28 28 29 29 30 30 31 31 33 33 33 34 34 34 33 32 32 32 32 31 30 30 29 28 27 26 25 24 24 24 23 22 22
20 20 20 21 21 21 21 22 23 25 24 23 25 26 27 27 28 29 29 30 31 31 32 33 34 34 35 36 36 36 35 34 34 34 33 33 32 31 31 29 29 28 27 26 26 25 25 25 24
20 20 20 20 20 21 22 23 23 24 24 24 25 26 27 27 28 29 30 31 31 32 33 34 34 35 35 37 38 38 38 37 35 35 34 33 32 32 32 30 29 28 28 28 27 27 27 27 26
19 18 19 19 20 21 22 23 24 24 24 24 25 26 26 27 27 29 29 30 30 32 33 34 34 35 36 36 38 39 38 38 37 37 37 34 33 34 33 32 31 30 29 28 28 29 29 28 28
20 19 19 19 20 21 22 23 24 24 24 24 24 26 26 27 27 28 29 30 30 31 32 33 34 35 36 37 38 39 39 38 37 38 38 37 35 35 35 34 33 32 31 30 30 30 30 31 31
20 19 19 20 21 22 22 22 23 24 24 24 25 26 27 28 28 29 30 29 30 31 32 33 35 35 36 37 37 38 39 39 38 39 39 39 37 36 35 36 35 34 33 32 31 31 31 32 33
20 19 19 19 21 22 22 21 23 24 24 24 25 26 27 27 28 28 29 29 29 30 31 33 34 35 36 37 38 38 40 40 38 39 39 39 37 36 35 36 36 35 33 33 32 33 33 34 34
21 20 20 19 20 20 22 22 23 24 24 23 24 25 26 27 27 28 28 28 29 30 31 32 34 35 36 37 37 38 38 39 39 39 38 39 38 36 36 36 35 35 35 34 34 34 35 35 35
21 21 21 21 21 21 22 22 23 24 23 23 24 24 25 26 26 27 27 28 28 29 30 30 32 34 35 36 36 37 38 39 39 38 38 39 41 38 36 36 36 36 36 36 36 36 36 36 37
22 22 22 21 22 22 22 21 22 22 21 22 23 24 24 25 26 26 26 26 27 28 28 28 29 32 33 34 35 35 35 37 38 38 37 38 40 40 38 38 37 36 36 37 37 37 38 38 39
22 22 22 22 22 22 22 21 21 22 21 21 22 22 23 24 25 25 25 26 25 25 26 26 27 29 31 33 34 34 35 35 36 37 37 37 38 39 38 38 37 37 37 38 39 39 39 39 39
22 22 22 22 22 23 23 22 21 21 21 20 21 21 22 23 24 24 24 24 24 24 24 25 27 28 30 31 33 33 34 35 35 37 37 38 37 38 39 39 38 38 38 39 40 40 40 40 40
23 23 23 23 23 23 23 23 21 21 21 21 20 21 21 22 23 24 24 23 22 22 23 23 26 27 28 30 33 34 34 34 35 37 38 38 38 38 40 40 39 38 39 39 40 40 40 41 42
22 22 23 23 23 24 24 24 23 22 21 21 21 21 21 21 22 23 24 23 22 23 23 24 26 27 29 30 33 33 33 34 35 37 38 38 37 37 39 40 39 39 39 39 40 41 42 42 42
23 23 24 23 24 24 23 24 23 23 22 22 22 21 21 22 23 24 24 23 23 23 24 24 25 27 28 29 31 32 33 34 34 35 37 37 36 38 38 40 40 40 40 40 40 41 42 42 42
24 24 25 25 24 24 23 24 23 23 22 22 22 22 23 23 23 23 24 23 23 23 23 24 25 26 28 29 30 32 33 34 35 36 36 36 36 36 38 39 40 40 41 41 41 42 42 44 44
25 25 25 26 26 25 24 24 24 24 24 23 23 23 24 23 23 24 23 23 22 22 23 24 25 26 28 29 31 32 33 34 35 36 37 37 37 37 38 38 40 41 41 42 43 43 44 45 45
27 26 26 27 27 26 25 25 25 24 24 24 24 24 24 24 24 24 24 23 23 23 24 25 25 25 28 30 31 32 33 35 35 36 37 38 38 39 39 39 40 41 41 42 43 44 45 45 46
28 27 27 27 28 28 27 26 25 24 24 25 25 25 25 25 24 24 24 24 24 24 25 25 25 26 28 30 31 32 33 34 36 37 38 38 38 38 39 39 41 42 43 43 43 45 46 46 46
29 29 28 28 29 28 28 26 24 24 25 25 26 25 25 25 24 24 24 24 25 25 24 25 26 27 29 30 31 32 33 34 35 37 38 39 40 41 41 41 41 42 44 45 46 46 46 46 47
30 30 29 30 30 30 30 28 25 25 25 26 26 25 25 26 25 25 26 25 25 25 25 26 27 28 29 30 31 32 33 34 35 37 38 39 41 41 41 42 42 43 44 45 46 47 47 47 47

GEFSSGP_500_meanwind_222.txt.gz
Wind_Speed
22 22 23 23 24 24 23 23 23 24 24 24 25 25 25 25 25 26 24 22 21 20 20 20 19 19 19 19 19 19 19 19 18 18 18 17 16 16 15 14 14 13 12 12 12 11 10 10 10
22 23 24 24 25 25 24 24 25 25 24 25 26 26 26 26 27 26 25 23 22 22 22 22 21 21 20 20 20 20 20 20 20 20 19 19 18 18 17 16 15 14 14 13 13 13 13 12 11
23 24 24 25 25 25 24 25 25 25 25 26 27 27 27 27 28 27 26 25 24 24 23 23 23 23 22 22 22 22 22 21 21 21 21 20 20 19 19 18 17 16 16 15 14 14 14 14 13
23 24 25 26 25 25 25 26 26 25 26 27 27 28 28 28 29 28 27 27 26 25 25 24 24 24 24 24 24 24 23 23 22 22 22 21 21 20 20 19 19 18 17 17 16 15 15 15 14
24 25 25 25 25 24 25 26 26 26 26 26 27 28 28 29 29 28 28 28 28 27 26 26 26 26 25 25 25 25 24 24 24 23 23 22 22 22 21 21 20 20 19 18 17 17 17 16 16
24 25 25 25 25 25 25 26 26 26 26 26 26 28 27 28 29 29 28 28 29 28 27 27 27 27 27 26 26 26 26 26 25 25 24 24 24 23 22 22 22 21 20 19 19 18 18 17 17
24 24 25 25 25 25 25 25 26 26 26 26 26 26 27 27 27 28 28 28 29 29 29 29 29 29 29 28 28 27 27 27 27 26 26 26 25 24 23 23 23 23 22 21 20 20 19 19 19
24 24 24 25 25 25 25 25 26 26 26 26 27 26 27 26 26 27 27 28 29 30 30 30 30 30 30 30 29 29 29 29 28 28 28 27 26 26 26 25 25 24 24 23 23 22 21 21 21
24 25 24 25 25 25 24 25 26 26 26 26 27 27 26 26 26 27 28 28 28 29 29 31 30 31 31 31 31 31 31 31 31 30 30 29 28 28 28 28 27 26 26 25 25 24 24 23 23
25 25 24 24 24 25 25 25 25 25 25 26 27 28 27 26 26 27 27 28 29 29 30 31 31 31 32 32 32 32 32 32 33 32 32 31 30 30 30 30 29 28 27 27 27 26 26 25 25
26 25 24 25 25 25 25 25 26 25 25 25 26 28 28 27 26 27 28 29 30 30 30 31 31 32 33 33 33 34 34 34 35 35 35 34 34 33 32 32 31 30 29 28 28 27 27 27 26
26 25 24 25 25 25 25 25 26 26 25 25 27 28 28 28 27 28 29 30 30 31 31 32 33 33 33 34 35 35 36 36 37 37 37 36 36 36 35 33 33 32 31 30 30 29 29 29 28
26 25 25 24 23 24 24 25 25 25 26 26 27 28 29 29 27 28 30 30 31 31 32 33 33 34 34 35 36 36 37 37 38 38 37 37 37 37 37 35 35 34 32 31 31 30 30 29 29
26 26 25 24 24 24 25 25 25 25 26 26 27 28 28 29 28 29 30 30 31 32 33 34 34 35 35 35 36 36 36 36 37 38 38 38 38 38 38 37 36 35 34 33 32 32 31 31 30
27 27 27 26 25 24 26 26 25 26 26 26 27 28 28 28 29 29 31 31 32 32 33 35 35 34 35 35 35 35 35 36 37 38 39 39 38 39 39 38 37 37 36 34 33 33 33 33 32
29 29 28 26 25 26 27 26 26 26 27 27 27 28 28 28 29 30 31 32 33 33 33 35 36 35 34 34 35 35 35 36 37 38 39 39 39 39 39 40 39 38 37 35 35 34 34 34 33
30 29 29 28 27 26 27 27 26 26 27 27 27 28 28 28 29 30 31 32 33 32 32 33 35 35 34 34 34 36 36 37 37 37 38 40 40 39 40 41 40 39 38 37 36 36 36 35 35
30 30 29 29 28 28 27 27 26 26 27 27 28 28 29 28 29 30 31 31 32 32 32 32 34 34 34 34 34 35 36 37 37 37 37 39 40 39 40 40 40 40 39 37 37 38 37 37 36
30 30 30 29 29 29 29 28 27 28 28 28 29 28 29 29 29 30 31 31 32 32 31 32 33 35 35 35 34 34 34 35 36 36 37 38 40 39 40 40 41 41 41 39 38 38 38 38 37
30 30 30 30 30 31 31 30 29 29 29 29 29 28 28 28 29 29 30 31 31 31 31 32 32 34 34 33 33 33 33 33 34 35 37 37 39 39 40 41 41 41 42 41 39 38 39 38 38
32 31 31 32 31 32 32 31 30 29 29 28 28 28 28 29 29 29 30 30 30 30 30 31 31 33 33 33 33 33 33 34 34 35 36 37 39 38 39 40 41 41 41 41 40 39 40 39 39
32 31 31 31 32 32 31 31 28 28 28 27 27 28 28 29 28 28 28 28 28 29 29 29 30 31 31 33 34 33 32 33 34 36 37 37 37 37 38 39 40 40 40 40 40 41 41 40 41
32 32 32 32 32 32 31 32 29 28 27 27 27 27 27 27 27 27 29 29 28 29 29 29 30 31 31 31 32 32 32 32 33 35 36 37 36 37 38 39 40 40 40 39 40 40 41 41 42
33 32 32 32 32 33 30 32 31 29 28 26 26 26 26 26 26 27 28 29 28 28 29 29 29 30 31 31 31 31 32 33 33 33 35 35 35 37 37 39 39 40 41 40 40 40 40 41 43
33 33 33 33 32 32 30 31 31 28 27 26 26 26 26 26 26 26 27 27 27 28 28 28 29 29 30 30 30 31 30 31 33 33 33 35 36 37 38 40 40 41 41 41 41 41 41 42 43
33 33 33 33 32 32 30 30 29 28 27 27 27 26 26 26 26 26 27 27 27 27 27 28 29 29 29 30 30 31 30 30 32 33 34 34 36 37 38 40 41 41 42 42 40 41 42 44 45
34 33 32 33 33 32 31 30 29 27 28 27 27 27 27 26 26 26 27 27 27 27 27 28 28 28 29 30 31 31 32 32 32 33 34 35 35 37 39 40 40 41 42 42 41 41 42 43 45
34 33 32 32 33 32 31 30 29 28 28 28 27 28 28 27 27 27 28 28 28 28 28 28 28 28 29 30 31 31 31 31 32 33 35 35 35 37 39 40 40 41 42 43 42 41 41 43 45
33 33 32 33 33 32 31 29 28 28 28 28 28 28 28 27 28 29 29 29 29 29 28 28 28 27 28 29 29 30 31 32 33 33 34 35 35 37 38 39 40 41 42 42 43 44 44 44 45
34 33 33 34 33 33 32 31 29 29 29 30 29 29 28 29 29 29 29 29 29 29 28 28 28 27 28 28 30 31 32 33 33 33 34 34 35 37 38 39 40 41 41 42 43 44 44 44 45

GEFSSGP_500_meanwind_228.txt.gz
Wind_Speed
20 20 21 21 22 22 21 21 22 22 22 22 22 22 22 22 21 21 20 19 18 18 18 19 19 18 18 17 17 17 18 18 18 18 18 18 17 17 16 16 15 15 14 14 14 13 13 12 11
20 21 22 22 23 22 21 22 23 23 23 23 24 24 23 23 22 22 22 21 21 20 20 20 20 20 20 19 19 19 19 19 19 19 19 19 19 19 18 17 17 16 16 16 15 15 15 14 13
22 22 22 23 23 22 21 22 23 23 23 23 24 24 25 23 23 23 24 24 23 23 22 22 22 21 21 21 21 21 21 21 21 21 21 20 20 20 19 19 19 18 17 17 17 16 16 15 15
23 22 23 23 23 22 22 23 24 24 23 24 24 24 25 25 24 24 25 25 25 24 24 24 24 24 23 22 22 23 23 22 22 22 22 22 22 21 21 20 20 19 19 18 18 17 17 16 16
24 24 24 24 24 23 23 24 24 25 24 24 24 24 25 25 25 25 25 26 26 26 26 26 26 26 25 24 24 24 24 24 24 24 23 23 23 23 22 21 21 20 20 19 19 19 18 18 17
25 25 25 24 25 24 24 25 25 25 25 25 25 25 25 25 25 25 26 26 27 27 27 28 27 27 26 26 25 25 25 25 25 25 25 24 24 23 23 22 22 21 20 21 20 20 20 19 19
26 25 25 25 25 24 24 25 25 26 26 26 26 26 25 26 26 25 25 26 26 27 27 27 28 27 27 27 26 26 26 26 26 27 26 26 25 25 24 24 23 23 22 22 21 20 21 21 20
26 26 26 26 26 25 24 25 25 25 26 26 27 26 26 26 26 26 26 25 26 27 27 27 27 28 28 28 27 27 27 28 28 28 28 28 27 27 26 26 25 24 24 24 23 23 22 22 22
28 27 27 27 27 25 24 25 26 26 26 26 26 26 26 27 27 27 28 27 26 26 28 28 27 27 28 28 28 29 29 29 29 29 29 29 29 29 28 28 27 27 26 26 26 25 24 23 23
29 28 27 28 27 26 25 26 26 27 27 26 26 26 27 27 28 28 29 28 27 26 27 28 29 28 29 29 30 30 30 30 30 31 31 31 31 30 30 30 29 29 28 28 28 27 26 25 25
30 29 28 29 28 27 27 27 27 27 27 27 26 26 27 27 28 28 29 29 28 27 27 28 29 29 30 30 31 31 31 32 32 32 32 32 32 32 32 32 32 31 31 30 30 29 28 28 27
31 30 30 30 29 28 28 28 28 27 27 28 27 27 27 27 28 28 30 30 28 26 27 29 29 30 30 31 32 33 33 34 34 34 34 34 34 34 34 34 34 34 34 33 32 31 30 30 29
31 30 30 30 29 29 29 29 29 27 28 28 27 27 27 27 28 29 30 31 29 28 28 29 30 30 31 31 32 33 34 35 35 35 36 36 37 36 36 36 36 36 36 35 34 33 33 32 31
32 31 31 31 30 30 30 30 30 27 29 28 28 27 28 28 29 30 31 30 29 29 29 30 30 31 31 32 33 34 35 36 37 37 37 37 38 38 38 38 38 38 38 37 37 36 35 34 33
33 33 33 32 31 30 31 30 30 29 30 29 29 29 29 29 30 31 31 30 30 30 30 32 32 32 32 33 34 34 36 37 37 38 39 39 39 40 40 40 40 40 40 39 39 39 38 37 36
34 34 33 32 32 32 32 30 29 31 31 30 30 30 30 30 30 31 31 31 32 31 32 33 33 33 33 34 35 35 36 37 38 38 39 40 40 40 41 41 41 41 41 41 41 41 40 38 38
35 34 34 33 33 34 33 32 30 31 31 31 31 31 31 31 31 32 31 32 32 32 33 34 34 34 34 34 35 36 36 37 37 38 38 39 40 40 40 41 41 41 41 41 42 42 42 40 39
34 34 34 33 34 35 34 32 31 31 32 31 31 31 32 33 33 33 32 32 32 33 33 34 35 35 35 35 36 37 36 37 37 37 38 39 39 40 40 40 40 40 41 41 42 42 42 42 41
34 34 34 34 35 36 36 34 31 31 32 31 31 31 32 32 33 33 32 31 31 32 32 33 33 34 35 35 36 37 37 37 37 37 37 38 38 39 39 39 39 40 40 41 41 42 42 42 41
34 34 33 34 35 35 36 35 33 31 31 31 30 31 31 31 32 32 32 31 31 32 32 32 33 34 34 35 35 35 35 35 35 36 37 38 39 39 38 39 39 40 41 41 41 42 42 43 42
35 35 34 33 34 36 37 36 34 33 32 31 30 29 29 29 30 30 31 31 32 32 32 33 33 33 34 35 34 34 35 34 35 36 35 37 38 38 38 39 39 40 41 41 41 42 43 43 43
36 34 34 34 35 36 36 37 34 33 32 31 30 29 28 29 29 30 30 31 31 32 33 32 31 32 33 34 34 33 33 34 35 35 36 36 36 37 38 39 40 40 40 41 41 41 42 43 43
35 34 35 35 35 36 35 37 35 34 33 31 30 30 29 29 30 31 30 30 31 31 32 32 31 32 32 33 33 34 32 33 33 34 36 36 36 37 38 39 39 40 41 41 41 41 41 43 43
34 35 36 36 37 38 35 36 35 34 32 31 31 30 29 29 30 31 30 30 31 31 31 32 31 31 31 32 32 33 32 32 32 34 35 36 36 36 37 38 40 41 41 41 41 41 42 42 42
33 34 35 37 38 39 36 37 35 34 33 32 31 30 30 29 29 29 30 30 31 31 32 32 31 31 31 32 32 32 32 31 31 33 34 35 34 34 35 38 40 40 41 42 41 42 43 42 42
33 33 34 36 37 37 36 37 35 33 33 33 32 31 31 30 29 29 29 30 30 30 31 32 31 30 31 32 32 32 32 32 31 32 33 34 35 33 34 36 37 38 39 41 41 41 42 43 44
32 33 32 34 35 36 36 36 35 33 33 33 32 31 30 30 29 29 29 30 29 29 30 31 30 30 30 31 31 31 31 31 31 31 31 32 34 34 34 33 35 38 39 40 41 42 42 43 43
33 32 31 32 33 35 36 35 33 32 32 32 31 30 29 29 28 28 28 28 28 29 29 29 28 28 28 29 29 29 30 30 30 30 30 30 32 34 35 35 35 37 38 39 40 42 42 42 43
33 34 34 34 34 35 36 35 32 31 31 31 30 30 29 29 28 28 28 28 28 28 28 28 28 28 29 29 29 29 29 29 30 30 30 30 31 32 33 34 34 36 39 40 41 42 42 43 43
35 35 35 35 35 35 35 34 32 31 31 31 30 29 29 28 28 28 29 29 29 28 28 28 28 29 29 29 29 30 30 29 30 30 31 31 31 32 33 34 34 35 37 40 41 42 43 43 43

GEFSSGP_500_meanwind_234.txt.gz
Wind_Speed
23 23 23 23 23 23 21 19 19 20 21 21 22 22 22 22 22 22 20 19 18 18 18 18 18 18 17 16 16 15 15 15 14 14 13 13 13 13 13 12 12 12 11 11 11 11 10 10 9
24 24 25 25 25 23 21 20 20 21 22 22 22 22 23 23 23 23 22 21 20 20 20 19 19 19 19 18 17 17 16 16 16 15 15 15 15 14 14 14 14 14 13 13 13 12 12 12 11
25 26 26 26 26 24 22 22 22 23 23 23 23 23 23 23 24 24 23 23 22 22 22 21 21 21 21 20 20 19 18 18 17 17 17 16 16 16 15 15 15 15 15 15 14 14 14 14 14
26 27 27 27 26 25 24 23 23 24 24 24 23 23 23 23 24 24 25 25 24 24 23 23 23 22 22 22 22 21 20 20 19 19 19 18 18 17 17 17 17 17 17 16 16 15 15 15 15
27 27 28 28 27 26 25 25 25 25 25 25 24 24 24 24 24 25 26 26 26 25 25 25 24 24 24 24 23 23 22 22 21 21 20 20 19 19 18 18 18 18 17 17 17 16 16 16 17
28 29 29 28 27 27 26 26 27 27 27 26 25 25 24 25 25 26 26 26 26 26 26 26 26 25 25 25 25 25 24 23 23 22 22 22 21 20 20 20 19 19 19 19 18 18 17 17 17
30 30 30 28 28 27 27 27 28 28 28 27 27 26 25 26 26 27 27 27 27 27 27 27 27 26 26 26 26 26 26 26 25 24 23 23 22 22 22 21 21 21 21 20 20 19 19 18 18
31 32 31 29 29 28 28 28 28 28 28 28 28 27 26 27 27 28 28 28 28 28 28 27 27 27 27 28 28 28 27 27 27 26 25 24 24 24 24 23 23 22 22 22 21 21 20 20 20
33 33 31 30 30 30 30 29 29 29 29 29 29 29 28 28 29 29 29 30 29 29 29 28 28 27 27 28 28 28 28 28 28 28 27 26 26 25 25 25 25 24 24 24 23 23 23 22 22
34 34 32 31 31 31 31 31 30 30 29 29 29 30 29 29 30 30 30 30 30 30 31 30 30 29 29 29 29 28 29 29 29 29 28 28 28 27 27 27 26 26 26 26 25 25 25 25 24
35 34 33 33 33 33 33 33 32 31 30 30 31 31 30 30 31 31 31 30 31 31 32 32 31 31 30 30 30 30 30 29 29 30 29 29 28 29 28 28 28 28 28 28 28 28 27 27 27
36 35 35 35 36 36 35 34 34 33 31 32 32 32 31 31 32 32 33 31 31 31 32 32 33 31 31 31 31 30 31 31 30 30 30 30 30 30 30 30 30 29 29 30 30 30 30 29 29
37 36 36 37 38 38 37 36 36 34 33 34 34 33 33 32 32 33 33 33 32 32 32 32 33 32 31 32 32 31 31 31 31 31 31 31 31 31 31 31 31 31 31 31 32 32 32 32 31
38 37 37 38 39 38 38 38 38 35 35 36 35 35 34 34 33 33 34 34 33 32 32 32 32 33 33 33 33 32 32 32 32 32 32 32 33 32 33 33 33 34 34 34 34 34 34 34 33
38 38 38 37 38 38 39 39 38 36 36 36 36 36 35 34 34 34 35 34 34 33 32 32 32 34 34 33 33 33 33 33 33 33 33 33 34 34 34 35 36 36 36 36 36 36 35 35 35
39 39 39 37 38 39 40 39 37 39 38 37 37 36 36 35 35 35 35 35 34 35 34 33 33 34 35 34 34 33 33 34 34 34 34 34 35 35 35 36 37 38 38 38 38 38 38 37 37
39 40 39 38 39 40 41 39 38 39 39 39 38 37 36 35 35 35 35 35 35 36 35 34 34 35 35 35 34 34 34 35 35 35 35 35 36 36 36 37 38 39 39 39 40 39 39 39 39
39 39 39 38 39 40 41 40 39 39 39 39 38 38 37 36 35 35 35 35 36 36 36 35 34 34 35 35 35 34 35 36 36 35 36 36 36 37 38 38 39 40 40 40 40 40 40 40 40
40 40 39 38 39 41 41 40 39 40 39 38 38 38 37 36 35 36 35 36 35 34 35 34 34 34 34 35 35 35 35 36 36 35 35 36 36 37 38 39 40 40 41 41 41 41 40 40 40
40 40 39 39 39 41 41 40 39 40 40 39 38 38 38 37 36 35 35 35 35 34 34 35 34 34 34 35 36 36 36 36 36 37 36 36 37 38 39 39 40 41 42 42 42 42 41 41 41
40 40 39 40 40 41 41 41 38 38 39 39 39 38 38 37 36 36 35 35 34 34 34 35 35 35 35 35 35 36 37 37 37 38 38 37 38 38 39 39 39 40 41 42 42 42 42 42 42
40 39 40 40 40 40 41 42 38 38 38 38 38 38 37 37 36 35 35 35 35 35 35 36 35 36 36 36 35 35 36 37 38 38 38 38 38 38 39 39 40 40 40 41 41 41 42 43 43
40 39 40 41 41 41 41 43 40 37 37 37 37 37 38 38 37 36 36 35 35 35 36 36 36 36 36 36 36 36 36 36 37 37 38 38 38 39 39 39 40 41 41 41 41 42 43 44 45
39 40 40 40 41 43 40 42 41 38 36 36 37 37 37 38 38 37 36 35 35 36 36 36 37 37 37 37 36 36 36 36 37 37 37 37 38 39 39 40 40 41 41 42 43 43 44 44 45
38 38 39 41 42 43 40 41 41 38 37 36 36 36 36 37 38 37 36 36 36 36 36 36 36 36 36 36 36 36 36 37 37 37 37 37 37 38 39 39 40 41 42 43 43 42 43 44 45
37 37 38 40 41 41 41 41 39 37 36 36 36 36 35 35 36 37 36 36 37 37 37 37 36 36 36 36 36 36 36 37 37 38 37 37 38 38 39 39 39 39 41 42 42 42 42 42 43
36 36 36 38 40 40 40 40 38 37 36 35 35 35 35 35 35 36 36 36 36 36 36 36 37 36 36 36 36 36 37 37 37 38 38 38 38 38 38 38 38 38 39 40 41 41 41 42 43
34 34 35 36 37 38 38 37 36 35 35 34 34 35 34 34 34 34 35 35 34 34 35 35 35 35 36 36 37 37 38 38 38 38 38 36 36 37 37 37 36 37 38 39 39 39 40 41 42
33 32 33 35 37 38 37 36 35 34 34 34 34 33 34 34 35 35 35 34 34 34 34 34 34 35 35 35 36 36 37 37 37 36 36 36 34 35 35 35 36 37 38 38 38 38 40 41 42
32 32 33 34 36 38 38 35 33 32 33 33 33 33 33 34 34 34 34 33 33 33 33 33 34 34 35 35 35 36 36 36 36 35 35 35 34 34 34 35 35 36 36 37 37 38 39 40 41

GEFSSGP_500_meanwind_240.txt.gz
Wind_Speed
24 24 24 24 25 25 23 21 20 20 20 20 20 20 20 19 20 21 20 20 19 19 19 18 18 17 17 16 16 16 16 16 15 15 15 15 15 14 14 13 12 12 11 11 11 10 10 10 9
25 26 26 26 27 26 24 22 22 22 22 22 22 21 21 20 20 20 21 21 21 21 21 20 20 19 19 18 18 18 18 18 17 17 16 16 16 16 15 14 14 13 12 12 12 12 11 11 10
26 27 27 28 28 26 25 24 24 24 24 24 23 23 22 21 21 21 21 21 21 22 22 22 22 21 20 20 20 20 20 19 19 19 18 18 17 17 16 16 15 14 14 13 13 13 13 12 12
28 28 29 29 28 26 26 25 25 25 25 25 25 25 23 22 22 22 22 22 22 22 22 22 23 23 22 21 21 21 21 21 21 20 20 19 19 18 18 18 17 16 15 15 15 15 14 14 14
29 29 30 30 29 28 27 27 27 27 27 27 26 26 25 24 23 23 23 23 23 23 23 23 23 24 24 23 23 23 23 23 22 22 22 21 20 20 20 19 18 18 17 16 16 16 16 15 15
30 31 31 31 30 29 29 28 28 28 28 28 27 27 26 25 24 24 24 24 24 24 24 24 24 24 25 25 25 24 24 24 24 24 23 23 22 21 21 20 20 19 18 18 18 18 17 17 17
32 32 32 31 31 30 30 30 29 29 29 29 29 28 27 26 26 26 25 25 25 25 25 25 25 25 26 26 26 26 26 25 25 25 24 24 23 23 23 22 21 21 20 20 19 19 19 18 18
33 33 33 32 31 31 31 31 31 31 30 30 30 29 29 28 27 27 27 27 27 27 27 26 26 26 26 27 28 28 27 26 26 26 26 26 25 25 24 23 23 22 22 21 21 21 20 20 20
34 34 33 32 32 32 33 33 33 33 32 32 31 31 30 30 29 29 28 28 28 28 28 28 27 27 27 28 29 29 29 28 28 28 27 27 27 26 26 25 25 24 24 23 23 22 22 21 21
35 35 33 33 33 34 35 35 35 34 34 33 33 32 32 31 31 31 30 30 30 30 29 29 29 29 28 29 29 30 30 30 30 29 29 28 29 28 28 27 26 26 26 25 24 24 23 23 23
36 35 34 35 36 36 36 37 36 36 35 34 35 34 33 33 32 32 32 32 32 31 31 31 30 30 30 30 30 31 31 31 31 30 30 29 29 29 29 28 28 27 27 27 26 26 25 25 25
37 36 36 36 37 38 38 38 38 37 36 36 36 36 35 34 34 33 33 33 33 33 33 33 32 32 32 32 31 32 32 32 32 31 30 30 30 30 30 30 29 29 29 28 28 28 28 27 27
37 36 36 36 37 38 39 39 40 38 38 38 38 37 36 36 35 35 34 34 34 35 34 33 34 33 33 33 33 32 32 33 33 33 32 32 32 31 31 31 31 31 30 30 30 30 30 30 29
38 38 37 37 37 38 39 40 40 38 40 40 40 39 38 38 37 37 36 35 35 36 35 35 35 34 34 34 34 34 33 34 34 34 34 33 33 32 32 32 32 32 32 32 32 32 32 32 32
38 39 39 38 38 38 40 40 39 39 41 41 41 40 40 39 39 38 38 37 36 37 37 37 36 35 35 35 35 35 35 35 35 35 35 34 34 34 33 33 33 33 33 34 34 33 34 34 33
39 39 39 38 39 39 41 40 38 40 41 41 42 41 41 40 40 40 39 39 38 37 38 38 37 36 36 36 37 37 36 36 35 35 36 36 35 35 35 35 35 34 35 35 35 35 35 35 35
40 40 39 39 39 41 41 40 39 40 41 41 41 42 42 41 41 41 40 40 39 39 38 39 38 37 37 37 38 38 37 37 37 36 36 36 36 36 36 36 36 36 36 36 36 36 36 37 37
40 41 40 40 41 42 42 41 40 41 42 41 41 42 43 42 42 42 41 40 40 39 38 37 37 37 37 37 38 39 38 38 38 37 37 37 37 37 37 37 37 37 37 37 37 37 38 39 39
42 42 42 41 42 43 43 42 41 41 42 42 42 42 43 43 43 42 41 41 40 39 38 38 37 37 37 37 38 38 38 38 39 38 37 38 38 38 38 38 38 38 37 37 37 38 39 40 40
44 43 43 43 44 44 44 44 42 42 42 42 42 43 43 43 44 43 42 41 40 39 39 38 38 38 37 37 38 38 38 38 38 37 37 38 38 39 39 39 38 38 38 38 38 39 40 40 40
44 44 44 44 44 45 45 44 42 42 42 42 42 42 43 43 44 44 42 41 40 40 39 39 38 38 38 38 38 38 38 38 38 37 37 37 38 38 39 38 39 39 39 39 39 40 40 40 41
43 43 43 44 44 44 44 44 42 41 41 41 40 40 42 43 44 44 43 42 41 40 40 40 39 38 38 37 38 38 38 38 37 37 37 37 37 38 38 38 39 39 39 40 40 41 41 41 41
42 41 42 42 43 44 43 44 42 41 40 39 39 39 40 41 41 42 43 42 41 40 40 40 39 38 37 37 38 38 38 38 38 38 38 37 37 37 38 38 38 38 38 39 40 40 41 42 43
40 40 40 41 42 43 41 42 42 40 39 38 38 38 38 39 40 40 41 42 41 40 40 40 39 38 38 38 38 38 38 38 38 37 38 37 37 37 38 38 38 38 38 38 39 40 41 42 43
37 37 38 39 40 42 40 42 42 39 38 38 38 38 38 37 38 40 40 41 41 41 41 40 40 39 39 38 38 38 38 38 38 37 38 38 38 37 38 38 38 38 39 39 39 39 40 42 43
34 35 36 37 38 39 39 40 39 38 37 37 37 37 37 37 37 38 39 40 41 41 41 41 40 40 39 39 39 39 39 39 38 38 38 39 39 38 39 39 39 39 40 40 40 40 41 42 43
33 33 33 35 36 37 38 38 37 36 36 37 37 37 36 37 36 37 38 38 39 40 41 41 40 40 40 40 40 39 39 40 39 39 39 39 39 39 40 40 40 40 40 41 41 41 41 42 44
33 32 32 33 33 34 35 36 36 35 35 35 36 36 36 36 37 37 37 37 38 39 40 40 40 41 41 41 41 40 40 40 40 40 39 39 39 39 39 40 40 41 41 41 41 41 42 43 43
32 32 33 33 34 34 34 34 34 34 34 33 33 34 36 36 36 37 37 37 38 38 39 40 40 40 41 40 41 41 41 41 41 40 40 40 40 40 40 40 41 41 41 41 41 40 41 42 42
31 32 33 33 34 34 35 34 32 32 33 33 33 34 35 36 36 37 37 37 38 37 38 39 39 40 40 39 40 41 41 41 41 40 39 40 40 39 39 39 40 40 40 39 39 39 39 39 40

GEFSSGP_500_meanwind_246.txt.gz
Wind_Speed
25 26 27 27 28 28 25 23 23 23 23 23 22 22 22 22 22 22 20 19 19 19 19 19 19 19 18 18 17 17 17 16 16 16 15 15 15 15 14 14 13 13 12 11 11 10 10 10 9
27 28 29 29 30 29 26 24 25 25 25 24 24 24 24 24 23 22 20 20 20 20 20 20 20 20 19 19 18 18 18 18 17 17 16 16 16 15 15 15 14 14 14 13 12 11 11 11 10
28 29 30 31 31 29 27 27 27 27 26 26 26 26 26 25 23 23 21 21 21 21 21 21 21 21 21 20 19 19 19 19 19 18 18 17 17 16 16 16 16 15 15 15 14 13 12 12 12
30 30 32 32 31 29 29 29 28 28 29 28 28 28 27 26 25 24 23 23 22 22 22 22 22 22 21 21 21 21 20 20 20 19 19 19 19 18 18 18 18 17 16 16 15 15 14 13 13
31 32 33 33 31 30 30 31 31 31 30 29 30 30 29 28 27 27 26 25 24 23 23 22 22 22 22 22 22 22 22 22 21 21 20 20 20 20 19 19 19 19 18 18 17 16 16 15 14
33 34 34 33 31 31 32 33 33 32 31 31 31 31 30 29 29 28 28 27 26 25 24 23 23 22 23 23 22 22 22 23 23 23 22 21 21 20 20 20 20 20 20 19 19 18 17 17 17
34 34 35 34 33 33 33 34 34 34 33 33 33 33 31 31 30 30 29 28 28 27 26 25 24 23 23 23 23 23 23 23 24 24 24 23 22 21 21 21 21 21 20 20 20 20 19 18 18
35 36 35 34 35 34 34 34 35 35 35 35 34 34 32 32 32 31 31 30 29 28 27 26 26 25 24 24 24 24 24 24 25 25 25 25 24 23 22 22 22 22 22 22 22 21 21 20 19
36 37 36 35 35 34 35 35 35 36 36 36 35 35 33 33 33 33 32 31 31 30 29 28 27 27 26 26 25 25 25 25 25 26 26 26 25 25 24 24 23 23 24 23 23 23 23 22 21
38 38 36 35 36 36 36 36 36 36 36 37 36 36 35 35 34 34 34 33 32 31 31 30 30 29 28 28 27 27 26 26 26 27 27 27 27 27 26 25 25 25 25 25 25 24 24 24 24
40 39 37 37 37 38 38 37 36 37 37 37 37 37 36 36 35 35 35 34 33 33 33 33 32 31 30 30 29 28 28 28 28 28 29 29 29 29 28 27 27 27 26 26 26 26 26 26 26
41 40 40 39 39 39 38 38 38 38 37 38 38 38 37 37 37 37 36 36 35 35 34 34 34 33 32 32 31 30 30 29 29 29 29 30 30 30 30 30 29 29 28 28 27 27 27 27 27
42 42 41 41 41 40 40 40 39 38 38 38 39 39 38 38 38 38 38 38 37 36 36 35 35 35 34 34 33 32 32 31 31 30 30 30 31 31 31 31 30 30 30 30 29 29 29 29 29
42 43 43 42 42 42 42 42 41 39 40 40 40 40 40 40 40 40 40 39 39 38 37 36 36 36 35 34 34 34 34 33 32 32 31 31 31 32 32 32 31 31 31 31 31 30 30 30 30
42 43 43 42 43 43 44 44 42 41 42 42 42 41 41 41 41 41 41 41 40 40 39 38 38 37 37 35 35 35 35 35 34 33 33 33 33 33 33 33 33 33 33 32 32 32 32 32 32
42 43 43 41 42 43 44 43 41 42 43 42 42 41 42 42 42 42 42 42 41 41 41 40 39 38 38 37 36 36 36 36 36 35 35 35 35 34 35 35 35 34 34 34 33 33 33 33 33
42 43 42 41 42 43 44 43 42 42 43 42 42 42 42 42 42 41 41 41 42 42 42 41 40 40 39 39 38 37 38 38 37 36 36 36 36 36 35 34 35 35 35 35 35 35 35 35 35
42 43 43 42 42 44 44 42 42 42 43 43 43 42 43 42 41 41 41 41 42 42 42 42 42 41 40 40 40 39 39 38 38 38 37 37 37 36 36 36 36 36 36 36 35 35 36 36 36
42 43 43 43 43 44 44 43 42 42 43 43 43 43 43 42 41 42 42 42 42 43 43 42 42 42 41 41 41 40 40 40 39 39 39 38 38 38 38 37 37 37 37 37 37 36 36 36 37
42 43 43 42 43 44 44 44 43 42 42 43 43 42 42 42 42 43 43 43 43 43 43 43 42 42 42 42 42 41 41 41 40 40 39 39 38 38 38 39 38 37 38 38 38 37 38 37 37
42 42 42 42 43 44 44 44 42 42 42 42 42 42 42 42 43 43 44 43 43 44 44 44 43 42 42 42 42 42 42 41 40 40 40 39 39 38 38 39 38 37 37 37 38 38 38 38 38
41 41 41 42 42 43 44 45 42 42 42 42 42 42 42 42 43 43 43 43 44 44 44 44 44 43 43 43 42 42 42 41 41 41 40 40 39 38 38 39 39 39 39 38 38 38 38 38 39
40 39 40 41 42 42 42 45 44 43 43 42 42 43 42 42 43 44 44 44 44 44 44 44 45 44 43 43 42 42 42 42 42 42 41 40 39 38 38 38 39 38 38 38 38 38 38 38 39
37 38 38 40 41 42 41 43 44 43 42 42 43 43 42 42 42 43 44 44 44 45 45 44 45 45 44 43 43 42 42 42 42 42 42 41 40 38 37 38 38 37 37 38 38 38 39 38 38
35 36 36 37 39 41 39 41 43 42 42 42 42 42 43 43 43 43 43 43 43 43 44 44 45 45 44 44 44 43 43 43 42 42 41 41 40 40 38 38 38 38 38 38 38 38 39 39 39
33 33 33 33 35 37 37 39 39 39 40 41 41 42 42 42 42 43 43 43 43 43 44 44 44 45 44 44 44 44 42 42 41 41 41 41 40 40 40 39 38 38 38 39 39 39 39 39 40
31 32 32 32 31 33 34 36 37 38 39 40 41 42 42 42 42 42 43 43 42 43 44 44 44 44 44 44 45 44 43 41 41 41 41 41 40 40 40 40 40 40 39 39 39 39 39 39 39
29 30 30 31 31 30 31 33 35 36 37 39 41 42 42 42 42 42 42 42 42 43 43 43 43 43 43 44 44 44 44 41 41 42 41 41 41 40 40 39 40 40 41 40 40 40 39 39 39
27 29 31 31 31 31 31 32 33 35 36 38 40 41 42 41 42 41 40 41 41 42 42 42 42 42 43 43 43 43 43 42 41 41 42 42 41 40 39 40 40 40 40 41 40 40 40 40 40
26 28 30 31 31 31 32 33 32 34 35 36 37 38 39 40 40 40 40 40 41 42 42 41 41 42 43 43 43 43 43 42 41 41 42 42 42 41 41 41 41 40 41 41 41 41 42 41 41

GEFSSGP_500_meanwind_252.txt.gz
Wind_Speed
26 27 27 28 29 29 27 24 23 24 24 23 23 23 23 23 22 20 18 18 17 17 17 17 17 17 16 16 16 16 16 16 15 14 14 14 13 14 14 14 13 13 12 11 11 11 11 10 10
26 27 28 29 30 29 27 25 25 25 26 25 25 25 25 24 23 21 19 19 19 19 19 18 18 18 18 18 17 17 17 17 16 16 16 15 15 15 15 15 14 14 13 13 13 12 12 11 11
27 28 29 30 31 29 27 26 27 27 28 27 27 27 26 25 23 22 21 20 21 20 20 20 19 19 19 19 19 19 18 17 17 17 17 16 16 16 16 16 16 15 14 14 14 14 13 13 12
29 30 31 31 31 29 28 28 28 29 29 29 29 28 27 26 25 24 22 22 22 22 21 21 21 20 20 20 19 19 19 19 18 18 18 17 16 16 16 16 16 16 16 16 15 15 14 14 14
31 32 32 32 30 29 29 29 30 31 31 30 30 30 29 28 27 26 25 24 24 23 23 22 22 21 21 20 20 20 20 20 20 20 19 18 18 18 17 17 17 17 17 17 17 16 16 15 15
33 34 34 33 31 30 29 30 31 32 32 32 31 31 30 30 30 28 27 26 26 25 24 23 23 22 22 21 21 21 21 20 20 21 21 20 20 19 19 19 18 18 18 18 18 18 17 17 17
34 35 35 34 33 32 31 32 33 33 33 32 32 32 31 31 31 30 30 28 28 27 25 25 24 24 23 23 23 22 22 21 21 21 21 22 21 21 20 20 20 19 19 19 19 18 18 18 18
36 36 36 35 34 34 33 34 34 34 34 34 33 33 32 32 32 32 31 30 29 29 28 27 26 25 24 24 24 24 23 23 22 22 22 22 22 22 22 22 22 21 20 20 20 19 19 19 19
38 38 37 35 35 35 35 36 36 36 36 36 35 34 33 34 34 33 33 32 31 31 30 29 28 27 27 26 25 25 24 24 24 24 24 23 23 23 23 23 23 23 22 22 21 21 20 21 21
40 40 38 36 37 37 37 38 38 38 38 37 37 36 35 34 35 34 34 33 33 32 32 31 30 30 29 28 27 26 26 26 26 26 25 25 25 25 25 25 24 24 24 24 23 22 22 22 22
41 41 39 39 39 40 40 40 40 40 40 39 38 37 36 36 36 36 36 35 34 34 33 33 32 31 30 30 29 28 28 27 27 27 27 27 26 26 26 26 25 25 26 26 25 25 24 24 24
42 41 41 41 41 42 42 41 41 41 41 40 40 39 39 38 37 37 37 37 36 36 35 34 34 33 32 31 31 31 30 29 28 28 28 28 28 27 27 27 27 27 27 27 27 27 26 26 26
42 41 42 42 43 43 43 43 42 42 42 41 41 40 39 39 39 38 38 38 38 37 36 36 36 35 35 34 33 33 32 31 30 30 29 30 29 29 29 29 29 29 29 29 29 29 28 28 28
41 42 42 42 42 43 43 44 44 42 43 42 42 41 40 40 40 40 40 39 39 38 38 38 37 37 37 36 35 34 34 34 33 31 31 30 30 30 30 30 30 30 30 30 30 30 30 30 30
42 42 43 42 42 42 43 45 44 44 44 44 43 42 42 41 41 40 40 40 40 40 40 39 38 38 38 38 38 37 36 35 34 34 33 32 32 32 31 31 31 31 31 31 30 30 31 31 31
42 42 43 42 42 42 44 44 43 44 44 44 44 43 43 42 41 41 40 40 41 40 40 40 40 39 39 39 39 38 38 37 36 35 34 33 33 33 32 32 31 32 32 32 31 31 31 32 32
42 42 41 41 41 42 43 42 41 43 44 44 44 44 43 42 42 41 40 40 40 41 41 41 40 40 40 40 40 39 38 38 38 37 36 35 34 34 34 33 33 33 33 33 33 33 33 33 33
41 42 41 41 41 42 43 42 41 42 43 43 44 43 43 43 42 42 41 41 41 41 41 41 41 41 41 40 40 39 39 39 38 38 37 36 35 35 35 35 35 34 35 34 34 34 34 34 34
41 42 42 41 41 42 43 42 42 41 42 42 43 43 44 43 43 43 42 42 42 42 42 41 41 41 41 41 41 41 40 40 39 39 38 37 36 36 35 35 36 35 35 35 35 35 35 35 35
41 42 42 42 41 42 42 42 42 42 42 42 43 44 43 43 43 43 42 42 42 42 42 42 42 42 42 41 42 42 41 41 40 40 39 38 38 37 36 36 36 36 36 36 36 36 36 36 36
40 40 41 42 40 41 42 43 43 42 42 42 43 44 44 44 44 44 43 43 42 42 42 42 42 43 42 42 42 43 43 42 42 41 40 40 39 39 38 38 38 38 37 37 36 36 36 36 36
38 38 39 39 40 40 42 43 43 43 43 43 43 43 44 44 44 45 44 44 43 43 43 42 42 43 43 43 43 43 43 43 43 43 42 41 41 41 40 40 39 39 39 37 37 36 36 37 37
35 36 37 37 39 40 40 42 43 43 43 43 43 44 44 44 44 44 44 44 44 44 44 43 43 44 43 43 43 43 43 44 44 44 43 43 42 42 42 41 41 40 40 39 38 38 37 37 37
33 34 36 37 38 40 39 40 42 42 42 42 43 43 44 44 44 44 44 44 44 44 44 44 44 44 44 44 43 43 43 44 45 44 44 43 44 44 43 42 42 41 41 40 40 39 38 38 38
31 33 34 36 37 39 38 39 40 39 40 40 41 43 43 43 43 43 44 44 44 44 45 45 45 45 45 44 44 44 44 45 45 46 45 45 44 44 44 43 43 42 42 41 41 40 38 39 38
27 31 33 34 36 36 37 38 38 38 38 39 40 41 42 43 43 43 44 44 45 44 45 45 46 46 46 45 45 45 45 45 45 46 46 45 45 44 44 44 43 43 42 42 41 40 39 39 39
25 28 30 32 34 35 35 37 37 37 38 39 39 40 41 42 42 43 44 45 45 45 45 46 46 46 47 46 46 46 46 45 45 45 45 45 45 45 44 44 44 43 43 42 41 41 40 40 39
24 25 27 31 32 34 34 35 35 35 37 38 38 39 40 41 42 43 44 44 45 45 45 46 47 47 47 47 46 46 46 45 45 45 45 45 45 45 45 45 44 43 43 43 43 42 41 40 40
22 24 26 29 31 32 33 34 34 35 36 36 37 38 39 40 41 41 42 43 44 44 45 46 46 46 46 47 47 46 46 45 45 45 45 45 45 45 45 45 45 44 43 44 44 42 42 41 41
22 22 24 26 28 29 30 32 31 34 35 35 36 36 37 37 38 39 40 41 42 42 43 44 44 45 45 46 46 46 45 45 44 45 46 45 45 45 45 45 45 44 44 43 43 43 43 42 42

GEFSSGP_500_meanwind_258.txt.gz
Wind_Speed
26 27 27 28 29 30 27 25 24 24 24 24 24 25 24 23 22 21 19 19 18 18 17 16 16 15 15 14 14 14 14 14 13 12 11 10 10 10 10 10 9 9 8 8 8 7 8 8 7
27 28 29 30 31 30 27 25 24 25 26 26 26 26 25 25 23 22 21 20 20 19 19 18 18 17 16 16 15 15 15 15 14 13 12 12 11 11 11 11 11 10 10 10 9 9 9 9 9
29 29 31 31 31 30 27 26 26 27 28 28 28 27 27 26 25 23 23 22 21 21 20 20 20 19 18 18 17 16 15 15 15 14 14 13 13 13 12 12 12 12 11 11 10 10 10 10 10
31 32 33 33 32 29 27 27 27 28 29 29 29 29 28 27 26 25 24 23 23 23 22 22 21 21 19 18 18 17 17 16 16 15 15 15 14 13 13 13 13 13 13 12 12 12 11 11 11
33 34 34 34 32 30 28 28 29 29 30 30 30 30 29 28 28 27 26 25 25 25 24 24 23 22 21 20 19 19 18 18 17 16 16 15 15 15 14 15 14 14 14 14 14 13 13 13 13
35 36 36 35 32 31 30 30 30 31 31 31 32 32 31 30 29 29 28 27 27 27 26 26 25 24 23 22 21 21 20 19 19 18 17 17 16 16 16 16 16 16 16 16 15 15 15 15 14
37 37 37 36 35 33 32 32 32 32 32 32 33 33 32 32 31 30 30 29 29 28 28 27 26 25 25 24 23 23 22 21 20 20 19 18 18 18 18 17 17 17 17 17 16 16 16 16 16
38 39 39 38 37 35 34 35 35 34 34 34 34 34 33 33 33 32 32 31 30 30 30 30 28 27 27 26 25 24 24 23 23 22 21 20 19 19 19 19 19 19 19 19 18 18 17 17 17
41 42 41 39 38 37 36 37 37 37 37 36 36 35 34 34 34 34 33 32 32 32 31 30 30 29 28 27 26 26 26 25 25 24 23 22 21 21 20 20 20 20 20 20 20 20 19 19 19
43 44 42 40 40 40 39 39 40 40 39 38 38 37 36 36 35 35 35 34 34 33 32 32 31 31 30 28 27 27 27 27 26 26 25 24 23 22 22 22 21 21 21 21 21 21 21 21 21
44 44 43 43 43 43 42 42 42 42 41 41 40 39 39 38 37 37 36 36 35 35 34 33 33 32 31 30 29 28 28 28 27 27 27 26 25 25 24 24 23 23 23 23 23 23 23 23 22
44 44 44 44 44 45 44 44 44 44 43 42 42 42 41 40 39 38 38 37 37 37 36 35 35 34 33 32 31 30 30 29 29 28 28 27 27 26 26 26 26 25 25 24 24 24 24 24 24
44 44 44 44 45 45 46 46 46 44 44 44 44 43 42 41 41 41 40 40 39 38 38 37 36 36 35 34 33 32 32 31 30 30 29 28 28 28 28 27 27 27 27 26 26 26 26 25 26
43 44 45 45 46 46 46 45 46 45 45 45 44 44 43 43 42 42 42 41 40 40 40 39 38 38 37 36 35 34 34 33 31 31 31 31 30 30 29 29 29 29 29 28 28 28 27 27 27
42 44 45 45 46 46 47 46 46 45 45 45 45 45 44 44 44 43 43 42 42 42 41 41 40 39 39 38 37 37 36 35 34 33 32 32 32 32 31 30 30 30 30 30 30 30 29 28 28
41 43 44 44 45 46 47 47 45 45 46 45 46 46 45 45 44 44 44 43 43 43 43 42 41 40 40 39 39 38 37 37 36 35 34 34 34 33 33 32 32 31 31 31 31 31 30 30 29
42 42 43 43 44 45 46 46 46 46 46 46 46 46 46 46 45 44 44 43 43 43 44 43 42 41 41 41 40 39 39 38 38 37 36 34 35 34 34 33 33 32 32 32 32 32 32 32 31
41 42 42 42 43 44 44 45 46 46 46 46 46 46 46 46 46 45 44 44 44 44 43 44 43 43 42 42 41 40 40 40 39 39 38 37 36 36 35 34 33 33 33 32 32 33 33 33 32
41 41 42 41 42 43 44 44 45 45 45 45 45 46 46 46 46 46 45 45 45 44 44 44 44 44 43 43 42 42 42 41 41 40 40 38 37 36 36 35 35 34 34 34 33 33 33 33 33
39 40 41 41 42 43 42 44 44 44 45 45 45 45 45 45 46 46 46 46 46 45 45 45 45 45 45 44 44 43 43 43 42 41 40 39 38 37 37 37 36 35 35 35 34 34 34 34 35
38 39 40 41 41 42 42 43 43 43 44 45 45 45 45 45 45 45 45 46 46 46 45 45 45 45 45 45 45 44 44 44 43 43 42 40 40 39 38 38 37 37 36 36 36 36 35 35 36
35 36 38 39 41 42 42 44 43 44 44 45 45 45 45 45 45 45 45 45 46 46 46 46 45 45 45 45 45 45 45 44 44 44 44 42 41 41 40 39 39 38 38 38 38 37 37 37 37
32 33 35 36 38 41 41 43 43 44 44 44 45 45 45 45 46 46 46 46 46 46 46 46 46 46 46 46 46 45 45 45 44 44 44 44 43 42 42 42 41 41 40 39 39 39 39 39 39
30 31 32 34 35 39 39 41 42 42 43 43 44 45 46 46 46 46 47 47 47 46 46 47 47 47 47 46 46 46 45 45 45 45 45 45 44 44 43 42 43 43 42 41 41 41 41 41 41
28 29 30 32 34 37 36 39 40 40 41 42 43 44 46 46 46 46 47 47 47 47 47 48 48 48 47 47 47 47 47 47 46 46 45 45 45 45 44 44 44 45 44 43 42 42 42 42 42
27 27 29 31 33 35 36 37 37 38 39 40 42 43 44 45 46 47 47 47 47 48 49 48 49 48 49 49 48 48 48 48 48 47 47 46 46 46 46 45 45 45 45 45 44 43 43 43 42
25 26 27 29 32 33 35 37 37 37 38 39 40 41 43 44 45 45 46 46 47 48 49 49 49 49 50 50 50 49 49 49 49 49 48 47 47 46 46 46 45 45 45 46 46 44 44 44 43
24 25 26 27 29 32 33 35 35 35 36 37 38 39 40 42 43 45 46 46 47 47 48 49 49 50 50 51 50 50 49 49 49 49 48 48 47 47 46 46 46 46 46 46 46 45 45 45 45
23 25 26 27 28 30 32 32 33 33 33 34 36 37 38 39 41 42 43 44 45 46 47 48 49 50 50 50 50 50 49 48 48 48 48 48 48 47 47 47 47 46 46 46 46 46 45 45 46
22 24 26 27 27 28 31 31 30 32 33 34 35 35 37 38 39 41 41 42 43 44 45 47 48 49 49 49 49 49 49 49 48 48 48 49 49 49 48 47 47 46 46 46 46 45 45 45 45

GEFSSGP_500_meanwind_264.txt.gz
Wind_Speed
26 26 26 27 28 28 26 24 22 23 23 24 24 24 23 23 23 22 21 20 19 19 18 17 17 16 15 14 14 15 14 14 14 13 13 13 12 12 11 11 10 10 9 9 8 8 7 7 6
28 28 28 29 29 29 26 24 24 24 26 26 26 26 25 24 24 23 22 21 21 20 20 19 18 17 16 16 16 16 15 15 14 14 14 14 13 13 13 12 11 11 10 10 9 9 8 8 7
30 30 31 31 31 29 27 26 25 26 27 27 28 27 27 26 25 24 23 23 22 22 21 21 20 19 18 17 17 17 17 16 15 15 15 15 14 14 14 14 13 12 12 11 11 10 10 9 9
31 32 33 33 32 30 29 28 27 28 28 29 29 29 28 27 26 25 25 24 24 23 23 22 21 21 20 19 19 18 18 17 17 16 16 15 15 15 15 15 14 13 13 12 12 12 11 11 10
34 34 35 35 32 31 31 30 30 30 30 30 31 31 29 28 28 27 27 26 25 25 25 24 23 23 22 22 21 20 19 19 18 17 17 16 15 15 16 16 15 15 15 14 14 13 13 12 11
36 36 37 36 33 33 33 33 32 32 32 32 32 32 31 30 30 29 29 28 27 27 26 26 25 25 24 23 23 22 21 21 20 19 18 18 17 17 16 17 17 17 16 16 15 15 14 14 13
37 38 38 36 36 35 35 35 34 34 34 34 34 33 32 32 31 31 31 30 29 28 28 27 27 27 26 26 25 24 23 23 22 22 21 20 19 18 18 17 18 18 18 17 17 16 16 15 15
39 40 40 38 37 36 37 37 37 37 36 36 36 35 34 33 33 33 32 32 31 31 30 29 29 29 28 28 27 26 25 25 24 23 22 22 21 20 20 19 19 18 18 18 18 17 17 16 16
40 42 41 40 39 38 39 39 39 39 38 38 38 37 36 35 35 35 34 34 33 33 32 31 31 31 30 29 29 28 27 27 26 25 24 24 23 22 22 21 20 20 19 19 19 19 18 18 18
43 44 42 41 42 41 41 41 41 41 41 40 40 39 38 38 38 37 36 35 35 34 33 33 33 32 32 31 30 30 29 29 28 27 26 26 25 24 24 23 22 22 21 21 21 21 21 20 20
44 44 43 43 44 44 44 43 43 43 42 42 41 41 40 40 39 39 38 37 37 36 35 35 34 33 33 32 32 31 31 31 30 29 28 27 26 26 25 25 24 23 23 22 22 21 21 21 21
45 44 44 44 45 45 45 45 44 44 43 43 43 43 42 41 41 40 40 39 39 38 37 37 36 35 34 34 33 33 32 32 32 31 30 29 28 27 27 26 25 25 24 23 23 22 22 22 22
44 44 44 45 46 46 46 46 46 45 44 44 44 44 43 43 43 42 41 41 40 40 39 38 37 37 36 36 35 34 34 33 33 32 32 30 29 29 28 27 26 26 26 25 24 24 24 23 23
42 43 43 44 45 46 46 46 47 45 45 45 44 44 44 44 44 44 43 42 42 41 41 40 39 38 38 37 36 35 35 34 33 33 33 32 31 31 30 29 28 28 27 27 26 26 25 25 25
41 42 43 43 44 45 46 47 47 46 46 46 45 45 44 44 45 45 44 44 43 43 42 41 41 40 40 39 38 37 36 36 36 34 34 33 32 32 32 31 30 30 29 28 28 28 28 27 26
38 40 41 42 43 43 46 47 46 46 46 47 47 46 45 45 45 45 45 45 44 44 44 43 42 42 41 41 40 39 38 38 37 36 35 35 34 33 33 32 32 31 30 30 30 30 29 29 28
38 39 39 40 41 43 45 46 45 46 47 46 47 46 45 46 46 45 45 45 45 45 45 44 44 44 43 42 41 41 40 40 39 38 37 36 35 35 34 34 33 32 32 32 31 31 31 31 30
36 37 38 38 39 41 43 43 44 45 46 46 46 47 46 46 47 46 46 46 46 46 46 46 45 45 45 44 44 43 42 42 41 40 39 39 37 37 35 35 34 33 33 33 32 32 32 32 32
35 36 37 37 38 39 41 42 42 44 44 45 46 47 47 46 46 47 47 47 47 47 47 46 46 46 46 46 45 45 44 43 43 42 41 41 40 39 38 37 36 35 34 34 33 33 33 33 33
34 34 34 36 37 39 41 42 42 43 43 44 45 46 47 47 47 47 48 48 48 49 48 48 47 47 47 47 46 46 46 45 44 44 43 42 42 41 40 39 38 37 36 36 36 35 34 34 34
32 33 32 33 34 37 39 40 41 41 42 43 44 45 46 47 47 47 48 48 49 49 49 49 48 48 48 47 47 47 47 46 46 45 45 44 43 43 42 41 41 40 38 37 37 37 36 35 35
29 30 30 31 32 34 37 39 40 40 40 42 43 44 45 46 46 47 48 49 49 49 49 49 49 49 49 49 48 48 47 46 46 46 46 45 45 44 44 43 42 42 40 39 39 39 38 37 36
25 26 27 28 30 33 34 36 38 39 40 40 42 43 44 45 45 46 47 47 48 49 49 50 49 49 49 49 49 49 48 48 47 47 47 47 46 45 45 44 43 43 42 41 40 40 40 39 38
22 24 25 25 27 30 32 34 35 37 38 39 41 42 43 43 44 45 46 46 47 48 49 49 49 49 49 49 49 49 49 49 48 48 48 48 47 46 45 45 44 44 44 43 41 42 41 41 40
21 21 23 24 25 26 28 31 34 35 36 37 39 40 41 42 42 43 45 46 46 47 48 48 48 48 49 49 49 49 49 49 49 49 48 48 48 47 47 46 46 45 45 44 43 42 43 42 42
20 20 22 24 25 25 26 28 30 32 34 36 37 38 40 40 41 42 43 45 46 47 47 47 47 48 48 49 49 49 49 49 49 49 49 49 48 48 48 48 47 46 45 45 44 43 44 44 43
19 20 20 22 25 26 26 28 29 30 32 35 36 37 39 40 41 42 43 44 45 46 47 47 47 47 48 48 50 50 50 50 49 50 50 50 49 48 48 47 47 47 46 45 45 45 44 44 43
18 20 20 21 22 24 26 28 29 29 31 33 35 37 38 39 40 42 43 44 45 46 46 46 47 48 48 48 49 50 51 51 50 50 50 50 50 49 49 49 48 47 47 46 46 46 46 45 45
16 19 21 21 22 23 23 25 27 27 28 30 33 36 38 39 40 41 41 43 44 45 46 46 47 48 48 48 48 50 51 51 51 51 51 51 51 50 50 50 49 49 48 48 47 47 46 46 46
17 18 18 20 21 23 25 25 26 27 27 29 31 33 36 37 39 40 41 42 43 45 46 46 46 47 48 48 48 49 49 50 51 51 51 51 51 51 51 50 50 50 49 50 49 49 48 47 47

GEFSSGP_500_meanwind_270.txt.gz
Wind_Speed
26 26 27 27 28 29 27 25 24 24 25 25 25 25 24 24 24 24 23 21 20 19 19 18 18 17 17 16 16 15 15 15 14 14 14 13 13 13 13 12 11 10 10 10 9 8 8 7 6
28 29 29 30 30 29 27 26 26 26 26 26 26 26 26 26 26 25 24 23 22 21 21 20 20 19 18 18 18 17 17 16 16 15 15 14 14 14 13 13 12 11 11 11 10 9 9 8 7
30 31 32 33 32 31 28 27 27 28 28 28 27 28 28 28 27 26 25 25 24 23 22 22 21 20 19 19 18 18 18 18 17 17 16 15 15 15 14 14 14 13 12 11 11 11 10 9 9
32 33 34 35 34 31 31 31 30 31 30 30 29 30 30 29 28 27 27 27 26 25 24 23 22 22 21 20 20 19 19 19 18 17 17 17 16 16 15 15 15 14 13 13 12 12 11 11 10
34 35 36 37 35 33 33 33 33 33 33 32 32 32 32 31 30 30 30 29 28 27 26 26 25 24 23 22 21 21 21 20 19 18 18 18 17 17 16 16 16 15 14 14 14 13 13 12 12
36 38 39 38 36 35 35 36 35 36 35 35 34 34 34 32 32 32 31 31 30 29 29 28 27 26 25 24 23 23 22 22 21 20 19 18 18 18 17 17 16 16 15 15 15 14 15 14 14
38 39 40 39 38 38 38 38 37 37 38 38 37 37 36 34 34 34 34 33 32 31 30 30 29 28 27 26 25 25 24 23 23 22 21 20 19 19 18 18 17 17 17 16 16 16 16 16 15
41 42 42 42 41 40 40 40 40 39 40 39 40 40 38 36 35 36 36 35 34 33 32 32 31 30 29 28 27 27 26 25 25 24 23 22 21 20 20 19 19 19 18 18 17 17 17 17 17
43 44 44 43 43 42 42 43 42 42 42 42 42 42 40 38 37 37 37 37 36 36 35 34 33 32 31 30 29 29 28 27 27 26 25 25 24 23 22 21 20 20 19 19 18 17 17 18 18
44 46 45 44 44 45 44 45 44 44 45 44 43 43 42 41 39 39 38 38 38 37 36 36 35 33 32 31 31 31 30 29 28 28 27 27 26 25 24 23 22 21 20 20 19 18 18 18 19
44 45 45 45 45 46 46 47 46 46 46 46 45 44 43 41 41 41 40 39 39 39 38 37 36 35 34 33 32 32 31 31 30 30 29 29 28 27 26 25 25 23 22 21 20 20 20 20 20
42 43 44 44 45 46 48 48 48 47 48 47 47 45 45 43 42 42 41 41 41 40 40 39 38 37 36 34 33 33 32 31 31 31 31 30 29 28 28 27 26 25 24 24 23 22 21 21 21
40 40 41 42 43 45 47 49 49 49 49 49 48 46 46 45 44 43 43 42 41 41 41 40 40 39 38 36 36 35 33 32 32 32 32 32 31 30 29 29 27 27 26 25 25 23 23 22 22
38 39 40 41 42 43 45 47 48 48 49 49 49 48 46 46 45 45 44 43 42 42 42 42 41 41 40 39 38 37 35 34 34 34 33 33 33 32 31 30 29 29 28 27 26 25 25 24 23
35 37 40 41 42 42 44 45 46 47 47 48 48 48 47 46 46 46 45 44 43 43 43 43 43 42 42 41 40 39 38 36 36 36 35 34 34 33 33 32 31 30 29 28 27 26 26 26 25
34 35 37 38 41 42 44 45 44 45 46 47 47 47 47 46 46 46 46 45 44 44 44 44 44 44 43 43 42 41 40 39 37 37 36 35 35 34 34 33 32 32 31 29 29 28 27 27 26
32 34 35 37 38 40 42 43 43 44 45 46 46 47 47 46 46 46 46 46 45 45 45 45 45 45 45 45 44 43 41 40 39 38 37 36 37 36 35 34 33 33 32 31 31 30 29 28 28
32 33 35 36 37 38 40 41 42 43 44 45 46 47 47 46 47 46 46 45 45 46 46 46 45 45 45 46 45 44 43 42 41 39 38 37 37 37 37 35 34 34 33 33 33 32 31 30 29
31 32 34 35 36 38 39 39 40 41 43 44 45 46 47 46 47 47 47 46 46 46 46 46 46 46 46 46 46 45 45 44 44 43 41 39 39 38 38 38 37 36 35 34 34 33 33 32 31
31 32 33 34 35 38 39 39 39 39 42 43 43 45 46 47 47 48 48 47 46 46 46 46 46 46 47 47 46 46 46 46 45 44 44 43 42 41 41 40 39 38 37 36 35 34 34 34 33
30 31 32 33 34 36 38 39 39 40 41 43 42 44 45 46 47 48 48 48 47 48 47 48 47 47 47 47 47 46 46 46 46 45 45 45 44 43 42 42 41 40 39 38 37 37 36 35 34
26 28 29 31 32 34 35 37 37 39 40 41 42 43 44 45 46 47 47 48 48 48 48 48 48 47 47 47 47 46 46 46 46 45 46 46 45 44 44 43 43 42 41 40 39 39 38 37 36
23 24 26 28 31 33 33 34 34 36 38 40 41 42 42 43 45 46 47 48 48 48 49 49 49 48 47 47 47 47 46 46 46 46 46 46 46 45 45 44 44 43 42 41 41 40 40 39 38
21 21 22 25 28 29 29 32 33 34 35 36 39 40 41 42 43 45 46 47 48 48 49 49 49 49 48 48 48 48 47 46 46 47 47 47 47 47 46 46 45 44 43 42 42 41 41 40 39
19 19 20 22 24 26 26 28 31 30 32 34 37 38 39 41 42 43 44 46 47 47 48 49 49 49 48 48 48 48 48 47 47 47 47 48 47 47 47 47 46 45 44 44 43 42 42 41 41
18 18 19 21 22 23 23 25 26 27 29 32 35 36 37 38 40 41 43 44 46 47 48 49 50 49 49 49 48 48 48 48 48 48 47 48 48 47 46 47 46 45 45 45 44 44 43 43 43
17 17 18 19 20 21 22 23 26 27 28 29 32 34 35 37 39 40 42 43 44 46 48 49 49 49 50 49 49 49 49 50 50 49 48 48 49 49 48 48 47 46 46 46 46 45 45 44 44
19 18 18 18 19 20 21 22 23 25 26 27 30 33 34 36 38 39 41 42 44 45 46 47 48 49 49 49 49 49 50 50 51 50 50 50 51 50 50 50 49 48 47 46 46 46 46 46 45
19 19 19 20 20 21 22 22 22 23 25 27 28 31 33 35 37 39 41 42 43 44 45 46 47 48 48 49 50 50 50 50 50 51 51 51 52 52 52 51 50 50 49 48 48 47 47 46 45
19 19 20 20 20 21 22 24 24 24 25 27 29 30 31 34 35 37 39 41 42 44 45 46 46 47 48 49 49 50 51 51 50 50 51 51 51 51 52 51 50 50 50 49 48 48 48 48 47

GEFSSGP_500_meanwind_276.txt.gz
Wind_Speed
26 26 26 26 27 28 26 22 21 21 22 22 23 24 23 23 23 22 20 20 19 19 19 18 18 17 17 16 16 15 15 14 13 13 13 13 12 12 12 11 11 11 10 10 10 9 8 7 7
28 28 29 29 30 30 27 24 23 22 23 25 26 26 26 25 24 23 22 22 21 21 21 20 19 19 18 18 17 17 16 16 15 15 14 14 14 13 13 12 12 12 12 11 11 10 9 9 8
29 30 31 32 32 30 28 26 26 26 27 27 28 28 27 26 26 25 23 23 23 23 22 22 21 20 20 19 19 18 18 17 17 16 16 15 15 14 14 13 13 13 12 12 11 11 10 9 9
31 32 33 34 33 31 29 28 29 29 29 29 30 30 29 28 28 26 25 25 24 24 24 23 23 22 22 21 21 20 20 19 18 18 17 16 15 15 15 14 14 14 13 13 12 12 12 11 10
33 34 35 36 34 32 31 31 31 32 32 31 31 31 31 30 30 28 28 27 26 26 25 26 25 25 24 23 22 22 21 21 20 19 19 18 17 17 16 16 16 15 15 14 14 13 12 12 12
35 36 38 37 35 34 33 34 34 34 33 33 33 33 32 32 32 31 30 29 29 28 27 27 27 27 26 25 24 24 23 23 22 21 20 20 19 18 18 17 17 17 17 17 16 14 14 13 13
36 38 39 38 37 37 36 36 36 36 36 35 35 35 34 34 34 34 33 31 31 30 29 29 29 29 28 27 26 25 24 24 23 23 22 21 21 20 20 19 18 18 18 17 17 16 15 15 14
37 39 40 39 39 38 38 38 37 37 37 37 37 36 35 35 35 35 34 34 33 32 31 31 31 31 30 29 28 27 26 26 25 24 24 23 23 22 21 20 20 19 19 18 18 17 16 16 16
37 39 40 39 39 39 39 39 39 39 39 39 38 38 37 36 36 36 35 35 35 34 34 34 33 33 32 31 30 29 28 27 27 26 25 25 24 24 23 22 21 21 20 20 19 18 17 17 17
37 39 39 39 40 40 40 41 41 41 41 41 40 39 39 38 38 38 37 36 36 36 36 36 35 35 34 33 32 31 30 29 28 28 27 26 26 25 24 24 23 22 21 21 21 20 19 18 18
36 37 37 38 40 41 41 41 42 42 42 42 41 41 41 41 41 40 40 39 38 38 38 37 37 37 36 35 34 33 32 31 30 30 29 28 27 27 26 25 25 24 24 23 23 21 20 20 19
35 35 36 37 39 40 42 42 42 43 43 43 43 43 43 42 42 42 42 41 40 40 39 39 39 38 38 37 36 35 34 33 32 31 31 30 29 28 28 27 26 26 26 25 24 23 23 21 21
34 34 36 37 38 40 42 42 43 43 43 43 43 43 43 43 43 43 43 42 42 41 41 40 40 40 39 39 38 36 35 34 34 33 32 31 30 30 30 29 28 27 27 27 26 25 25 24 23
33 33 34 36 38 39 41 42 43 43 43 43 43 43 44 44 43 43 44 44 43 42 42 42 41 41 41 40 39 38 37 36 35 35 34 33 32 31 31 30 30 29 29 28 28 27 26 26 25
31 32 33 34 37 39 40 41 42 41 42 43 43 43 44 45 44 44 44 43 43 43 42 42 42 42 42 41 41 40 39 38 37 36 35 35 35 34 33 32 32 31 30 30 29 29 29 28 27
30 32 33 33 35 37 39 40 39 39 40 42 42 43 44 46 46 46 45 44 43 43 43 42 43 43 43 43 42 42 41 40 38 38 37 36 36 35 34 34 34 33 32 31 30 30 30 30 29
30 31 31 32 33 34 37 39 39 40 40 40 41 42 44 46 47 47 46 45 44 43 43 43 43 43 44 44 43 42 42 42 41 40 39 38 37 37 36 35 34 34 33 33 32 32 32 31 30
29 29 30 31 32 33 34 35 37 39 40 40 41 43 44 45 47 47 47 46 45 44 44 44 44 44 44 44 44 43 43 43 43 42 41 40 39 38 38 37 36 35 34 34 33 33 33 32 31
28 29 30 31 31 32 33 34 35 37 39 40 41 43 44 45 46 47 47 47 46 46 45 45 46 46 45 45 45 44 44 43 43 43 42 41 40 39 39 39 38 36 35 35 34 33 33 33 33
28 29 30 30 31 32 33 34 34 35 37 38 40 43 43 44 45 47 47 47 47 47 46 46 46 46 46 45 45 44 44 44 43 43 43 42 41 41 40 39 39 38 37 37 36 35 34 33 33
25 27 28 30 31 31 32 33 34 34 36 37 39 43 44 43 44 46 47 46 46 46 46 46 46 46 45 45 45 45 45 45 44 44 44 42 41 40 39 40 39 39 39 38 38 37 37 36 34
23 24 25 28 29 30 31 32 33 34 35 36 38 40 43 44 44 45 47 46 46 46 46 46 47 46 46 45 45 46 45 45 45 44 44 43 42 42 41 41 41 40 40 39 39 39 38 37 36
20 21 23 24 26 28 29 32 32 33 34 36 38 38 41 43 43 44 46 45 45 46 46 46 47 47 47 47 47 46 46 46 46 45 45 44 44 44 44 43 43 42 41 41 41 40 39 39 38
18 19 19 21 22 26 27 29 31 32 33 35 37 38 40 42 42 43 45 45 45 46 47 47 47 48 48 48 48 48 46 46 46 46 46 45 45 44 44 44 44 44 43 43 42 41 41 41 40
16 17 17 19 21 24 23 26 27 28 30 33 35 37 39 41 42 43 45 45 46 46 47 48 48 48 49 49 49 49 47 47 47 47 47 47 46 46 45 44 44 44 44 43 43 42 42 43 42
14 16 17 18 19 22 22 24 24 24 26 28 32 35 37 39 40 42 44 45 46 47 48 48 48 48 49 49 50 50 49 49 49 48 48 48 47 47 46 45 45 44 43 43 43 43 43 44 44
15 14 16 18 19 20 22 22 22 22 23 24 28 32 33 37 39 41 42 43 45 46 48 49 48 48 49 50 50 51 51 50 49 49 49 49 48 47 47 47 47 46 45 45 44 44 44 45 45
16 15 16 17 18 19 21 21 21 21 22 23 26 30 32 34 36 38 40 42 44 45 47 48 48 49 49 49 50 51 51 50 50 49 49 49 49 48 48 48 47 47 46 46 46 45 45 45 46
15 16 18 18 19 20 21 21 20 21 21 22 23 26 29 32 34 36 38 41 43 45 46 47 48 48 49 49 50 50 51 50 50 49 49 49 49 49 48 48 48 48 48 48 47 47 46 46 46
17 17 18 19 20 21 21 21 21 22 23 23 24 25 28 32 34 35 37 39 41 42 44 45 45 46 47 50 51 50 50 51 51 50 49 49 50 50 50 50 49 49 49 48 48 48 48 47 47

GEFSSGP_500_meanwind_282.txt.gz
Wind_Speed
25 26 26 26 27 27 25 22 21 22 22 22 23 24 23 23 22 22 21 20 20 19 19 18 17 17 16 16 16 15 14 13 13 12 11 10 10 9 9 8 8 7 7 7 6 6 6 5 5
27 28 29 30 30 30 27 24 24 24 24 25 25 25 25 25 24 23 22 21 21 21 20 19 19 18 18 17 17 17 16 15 14 14 13 12 11 10 10 10 9 9 8 8 7 7 7 6 6
29 30 31 32 33 31 28 27 26 27 27 28 28 28 27 27 26 25 24 23 23 23 22 21 20 20 20 19 19 18 18 17 16 15 14 14 13 12 11 10 10 10 9 9 9 9 8 8 8
30 31 33 34 33 31 30 29 29 30 30 30 30 30 29 28 28 27 26 26 25 24 24 24 23 22 21 20 20 20 19 19 18 17 16 15 14 13 13 12 11 11 10 10 10 10 9 9 9
31 32 34 34 33 32 31 31 31 32 32 32 32 32 31 30 30 29 28 28 27 27 26 26 26 25 24 23 22 21 21 20 19 19 18 16 16 15 14 14 13 12 12 12 11 11 10 10 9
32 32 33 33 33 33 33 33 32 33 33 33 33 33 33 32 31 31 30 30 29 29 29 28 28 27 26 25 24 23 22 21 21 20 19 18 17 16 16 15 14 14 14 14 13 13 12 12 12
33 34 33 33 34 35 34 34 34 33 34 34 34 34 34 33 33 32 32 32 31 31 30 30 29 28 28 27 26 25 23 23 22 22 21 20 19 18 18 17 16 16 15 15 15 15 14 14 14
34 34 34 34 34 35 35 35 34 34 35 35 35 36 35 34 34 34 34 33 33 32 32 31 31 30 29 29 28 27 26 25 24 24 23 22 21 20 19 19 18 18 17 17 17 17 16 16 16
33 35 34 33 34 35 35 35 36 36 36 36 36 36 36 35 35 35 35 35 35 34 34 33 33 32 31 30 29 29 28 27 26 25 25 24 23 23 22 21 20 20 19 19 19 18 18 17 17
34 35 34 34 35 35 35 36 37 37 37 37 37 37 37 37 37 36 36 36 36 36 35 35 35 34 33 33 32 31 30 29 28 27 26 26 25 25 24 23 22 21 21 20 20 19 18 18 18
33 34 34 35 36 36 36 36 37 39 39 39 38 38 38 38 38 38 38 38 37 37 37 36 36 35 35 35 34 33 32 31 31 30 29 28 27 26 25 25 24 23 23 22 22 20 20 19 19
32 32 34 35 36 36 36 36 37 38 39 40 40 39 39 39 38 39 39 39 38 38 38 38 37 37 36 36 36 35 34 34 33 31 30 30 29 28 28 27 26 25 25 25 24 23 22 21 21
32 32 33 34 35 36 37 38 38 38 39 41 41 41 41 41 40 40 40 40 39 39 39 39 39 38 38 37 37 37 36 36 35 34 32 32 31 30 30 29 29 28 27 26 26 25 24 23 23
32 32 33 34 35 36 37 38 39 39 40 41 42 43 43 43 42 41 41 41 41 40 40 40 40 39 39 38 38 38 38 37 36 35 35 34 33 32 32 31 30 30 29 28 27 27 26 25 25
32 33 33 35 36 36 37 37 38 38 40 41 42 43 44 44 44 43 42 43 42 42 42 41 41 41 40 40 39 39 39 39 38 37 37 36 35 34 34 32 32 31 31 30 30 29 28 27 26
31 33 34 35 36 36 36 37 37 38 39 41 42 43 44 44 44 45 44 43 43 43 43 42 42 42 42 41 40 39 39 40 39 39 39 38 37 36 35 35 33 33 33 32 32 31 30 29 28
31 31 32 33 35 36 37 37 38 38 39 41 41 41 43 44 44 45 45 45 44 44 43 43 44 43 43 42 42 41 40 41 41 39 39 39 39 40 38 37 36 36 35 34 34 33 32 31 30
29 30 30 32 34 35 36 37 37 38 38 40 41 41 42 43 44 44 45 46 46 46 45 44 43 43 43 44 43 43 42 42 42 42 40 41 41 41 40 39 39 38 37 36 36 35 34 33 33
29 29 29 30 32 33 34 35 35 37 38 39 40 40 41 42 43 44 46 46 46 46 46 45 44 43 44 45 44 43 43 43 43 43 42 42 43 43 41 41 39 38 38 38 38 37 36 35 34
28 29 29 29 30 31 32 33 33 35 36 37 39 40 40 41 42 43 45 46 46 46 47 47 46 45 44 44 45 44 44 44 44 45 45 45 43 43 42 42 40 39 38 38 38 38 38 36 36
26 27 27 28 29 30 31 31 31 32 33 35 37 39 40 40 41 43 44 45 45 45 47 46 47 46 46 46 45 45 45 44 43 44 44 45 45 44 43 43 42 41 39 38 38 39 39 38 37
26 26 27 28 29 29 30 30 30 31 31 33 35 37 38 39 38 41 43 44 45 46 47 47 47 47 47 47 47 46 46 45 45 44 43 44 45 44 43 44 44 43 42 42 40 40 40 39 38
25 24 26 27 28 28 28 28 27 28 30 32 34 35 37 38 37 39 42 44 45 46 48 47 47 47 47 46 47 46 46 47 46 46 45 45 44 44 44 43 44 45 44 44 43 41 41 41 40
23 24 24 26 27 27 26 27 26 26 27 30 32 34 37 38 38 38 41 43 44 46 47 48 48 48 47 47 47 47 47 48 47 47 47 46 46 45 45 44 44 44 45 45 44 43 42 42 41
22 23 23 23 24 25 24 26 25 25 27 28 30 32 36 39 40 39 39 42 43 44 46 47 48 49 48 48 48 47 47 48 49 49 48 47 47 46 45 45 44 43 44 45 45 45 44 43 42
22 21 20 21 23 23 23 24 23 23 25 27 28 29 33 37 41 41 40 41 42 43 45 46 48 48 48 48 48 47 48 48 48 49 50 49 48 48 47 47 45 45 45 45 46 46 46 46 44
21 21 20 22 23 22 23 22 22 23 24 25 27 28 30 33 37 39 39 40 41 43 44 45 47 48 48 48 48 48 47 48 48 48 48 49 49 49 48 49 49 47 47 47 46 46 46 46 45
20 20 20 22 23 24 23 22 23 23 24 25 26 28 28 31 34 35 37 36 38 42 43 44 46 47 48 48 49 48 49 48 49 49 49 48 48 49 49 49 50 49 48 47 47 47 48 48 48
20 20 21 22 22 24 24 22 21 23 24 25 26 28 28 30 33 34 36 36 37 40 40 42 44 46 47 47 48 49 49 49 49 49 50 49 50 51 51 49 49 49 50 49 49 49 49 48 48
21 21 21 22 22 24 25 23 22 23 24 25 26 27 29 30 32 33 35 36 37 39 41 42 44 45 45 45 46 48 49 50 50 49 49 51 51 51 51 51 50 49 50 51 50 49 49 48 48